<?xml version="1.0" encoding="UTF-8" standalone="yes"?>
<gpx
 xmlns="http://www.topografix.com/GPX/1/1"
 creator="OziExplorer Version 3956f - http://www.oziexplorer.com"
 version="1.1"
 xmlns:xsi="http://www.w3.org/2001/XMLSchema-instance"
 xsi:schemaLocation="http://www.topografix.com/GPX/1/1 http://www.topografix.com/GPX/1/1/gpx.xsd">
<metadata>
 <time>2021-04-07T05:06:43Z</time>
 <bounds minlat="30.814100" minlon="34.778810" maxlat="30.857260" maxlon="34.972920"/>
</metadata>
<wpt lat="30.8179000" lon="34.9446600">
 <time>2021-04-07T08:00:06.338Z</time>
 <name>EIN-UM-TINA</name>
</wpt>
<wpt lat="30.8343100" lon="34.9585000">
 <time>2021-04-07T08:00:06.357Z</time>
 <name>GEV-ZARHAN</name>
</wpt>
<wpt lat="30.8558800" lon="34.9655000">
 <time>2021-04-07T08:00:06.357Z</time>
 <name>TONNEL</name>
</wpt>
<trk>
 <name>zin-zarhan2_51km.520m</name>
 <desc>zin-zarhan2_51km.520m</desc>
<trkseg>
<trkpt lat="30.8426100" lon="34.7788100">
<ele>363.779999</ele>
<time>2021-04-07T08:00:06.357Z</time>
</trkpt>
<trkpt lat="30.8427200" lon="34.7789800">
<ele>362.279999</ele>
<time>2021-04-07T08:00:06.357Z</time>
</trkpt>
<trkpt lat="30.8429200" lon="34.7793500">
<ele>362.820007</ele>
<time>2021-04-07T08:00:06.357Z</time>
</trkpt>
<trkpt lat="30.8430000" lon="34.7797500">
<ele>361.920013</ele>
<time>2021-04-07T08:00:06.357Z</time>
</trkpt>
<trkpt lat="30.8431800" lon="34.7802400">
<ele>358.470001</ele>
<time>2021-04-07T08:00:06.357Z</time>
</trkpt>
<trkpt lat="30.8433100" lon="34.7808100">
<ele>356.230011</ele>
<time>2021-04-07T08:00:06.357Z</time>
</trkpt>
<trkpt lat="30.8433900" lon="34.7815200">
<ele>355.869995</ele>
<time>2021-04-07T08:00:06.357Z</time>
</trkpt>
<trkpt lat="30.8433900" lon="34.7816800">
<ele>356.209991</ele>
<time>2021-04-07T08:00:06.357Z</time>
</trkpt>
<trkpt lat="30.8434400" lon="34.7825200">
<ele>353.190002</ele>
<time>2021-04-07T08:00:06.357Z</time>
</trkpt>
<trkpt lat="30.8435200" lon="34.7831100">
<ele>349.040009</ele>
<time>2021-04-07T08:00:06.357Z</time>
</trkpt>
<trkpt lat="30.8435700" lon="34.7836400">
<ele>348.359985</ele>
<time>2021-04-07T08:00:06.357Z</time>
</trkpt>
<trkpt lat="30.8436100" lon="34.7842100">
<ele>351.850006</ele>
<time>2021-04-07T08:00:06.357Z</time>
</trkpt>
<trkpt lat="30.8436300" lon="34.7847600">
<ele>351.000000</ele>
<time>2021-04-07T08:00:06.357Z</time>
</trkpt>
<trkpt lat="30.8435200" lon="34.7853100">
<ele>349.389984</ele>
<time>2021-04-07T08:00:06.357Z</time>
</trkpt>
<trkpt lat="30.8433800" lon="34.7855600">
<ele>347.820007</ele>
<time>2021-04-07T08:00:06.357Z</time>
</trkpt>
<trkpt lat="30.8432100" lon="34.7858600">
<ele>349.179993</ele>
<time>2021-04-07T08:00:06.357Z</time>
</trkpt>
<trkpt lat="30.8431300" lon="34.7863100">
<ele>349.930023</ele>
<time>2021-04-07T08:00:06.357Z</time>
</trkpt>
<trkpt lat="30.8429800" lon="34.7865300">
<ele>352.250031</ele>
<time>2021-04-07T08:00:06.357Z</time>
</trkpt>
<trkpt lat="30.8428600" lon="34.7869100">
<ele>352.639984</ele>
<time>2021-04-07T08:00:06.357Z</time>
</trkpt>
<trkpt lat="30.8426800" lon="34.7871600">
<ele>356.149994</ele>
<time>2021-04-07T08:00:06.357Z</time>
</trkpt>
<trkpt lat="30.8424100" lon="34.7872500">
<ele>358.279999</ele>
<time>2021-04-07T08:00:06.357Z</time>
</trkpt>
<trkpt lat="30.8420500" lon="34.7871900">
<ele>361.840027</ele>
<time>2021-04-07T08:00:06.357Z</time>
</trkpt>
<trkpt lat="30.8417700" lon="34.7873900">
<ele>362.180023</ele>
<time>2021-04-07T08:00:06.357Z</time>
</trkpt>
<trkpt lat="30.8416700" lon="34.7878700">
<ele>363.599976</ele>
<time>2021-04-07T08:00:06.357Z</time>
</trkpt>
<trkpt lat="30.8417200" lon="34.7884000">
<ele>356.940002</ele>
<time>2021-04-07T08:00:06.357Z</time>
</trkpt>
<trkpt lat="30.8417700" lon="34.7890500">
<ele>352.500000</ele>
<time>2021-04-07T08:00:06.357Z</time>
</trkpt>
<trkpt lat="30.8416600" lon="34.7900500">
<ele>350.350006</ele>
<time>2021-04-07T08:00:06.357Z</time>
</trkpt>
<trkpt lat="30.8415800" lon="34.7905100">
<ele>350.849976</ele>
<time>2021-04-07T08:00:06.357Z</time>
</trkpt>
<trkpt lat="30.8416000" lon="34.7907800">
<ele>350.429993</ele>
<time>2021-04-07T08:00:06.357Z</time>
</trkpt>
<trkpt lat="30.8416600" lon="34.7910100">
<ele>350.289978</ele>
<time>2021-04-07T08:00:06.357Z</time>
</trkpt>
<trkpt lat="30.8417500" lon="34.7914100">
<ele>348.919983</ele>
<time>2021-04-07T08:00:06.357Z</time>
</trkpt>
<trkpt lat="30.8418800" lon="34.7920800">
<ele>345.789978</ele>
<time>2021-04-07T08:00:06.357Z</time>
</trkpt>
<trkpt lat="30.8418100" lon="34.7926300">
<ele>339.600006</ele>
<time>2021-04-07T08:00:06.357Z</time>
</trkpt>
<trkpt lat="30.8415600" lon="34.7927500">
<ele>338.299988</ele>
<time>2021-04-07T08:00:06.357Z</time>
</trkpt>
<trkpt lat="30.8415400" lon="34.7932000">
<ele>336.100006</ele>
<time>2021-04-07T08:00:06.357Z</time>
</trkpt>
<trkpt lat="30.8414800" lon="34.7933200">
<ele>333.190002</ele>
<time>2021-04-07T08:00:06.357Z</time>
</trkpt>
<trkpt lat="30.8413100" lon="34.7934900">
<ele>329.339996</ele>
<time>2021-04-07T08:00:06.357Z</time>
</trkpt>
<trkpt lat="30.8409700" lon="34.7936900">
<ele>326.839996</ele>
<time>2021-04-07T08:00:06.357Z</time>
</trkpt>
<trkpt lat="30.8406400" lon="34.7943200">
<ele>333.119995</ele>
<time>2021-04-07T08:00:06.357Z</time>
</trkpt>
<trkpt lat="30.8405000" lon="34.7948800">
<ele>337.539978</ele>
<time>2021-04-07T08:00:06.357Z</time>
</trkpt>
<trkpt lat="30.8404900" lon="34.7956500">
<ele>341.619995</ele>
<time>2021-04-07T08:00:06.357Z</time>
</trkpt>
<trkpt lat="30.8404900" lon="34.7957400">
<ele>342.440002</ele>
<time>2021-04-07T08:00:06.357Z</time>
</trkpt>
<trkpt lat="30.8407700" lon="34.7963500">
<ele>344.800018</ele>
<time>2021-04-07T08:00:06.357Z</time>
</trkpt>
<trkpt lat="30.8410700" lon="34.7968400">
<ele>344.000000</ele>
<time>2021-04-07T08:00:06.357Z</time>
</trkpt>
<trkpt lat="30.8414500" lon="34.7971200">
<ele>334.820007</ele>
<time>2021-04-07T08:00:06.357Z</time>
</trkpt>
<trkpt lat="30.8418200" lon="34.7971200">
<ele>324.510010</ele>
<time>2021-04-07T08:00:06.357Z</time>
</trkpt>
<trkpt lat="30.8422100" lon="34.7974000">
<ele>317.879974</ele>
<time>2021-04-07T08:00:06.357Z</time>
</trkpt>
<trkpt lat="30.8423100" lon="34.7975300">
<ele>318.980011</ele>
<time>2021-04-07T08:00:06.357Z</time>
</trkpt>
<trkpt lat="30.8427200" lon="34.7979300">
<ele>330.160004</ele>
<time>2021-04-07T08:00:06.357Z</time>
</trkpt>
<trkpt lat="30.8427400" lon="34.7984500">
<ele>341.800018</ele>
<time>2021-04-07T08:00:06.357Z</time>
</trkpt>
<trkpt lat="30.8426800" lon="34.7988600">
<ele>341.979980</ele>
<time>2021-04-07T08:00:06.357Z</time>
</trkpt>
<trkpt lat="30.8426500" lon="34.7993300">
<ele>340.940002</ele>
<time>2021-04-07T08:00:06.357Z</time>
</trkpt>
<trkpt lat="30.8424200" lon="34.8000800">
<ele>332.850006</ele>
<time>2021-04-07T08:00:06.357Z</time>
</trkpt>
<trkpt lat="30.8423300" lon="34.8002800">
<ele>331.570007</ele>
<time>2021-04-07T08:00:06.357Z</time>
</trkpt>
<trkpt lat="30.8422700" lon="34.8004900">
<ele>332.219971</ele>
<time>2021-04-07T08:00:06.357Z</time>
</trkpt>
<trkpt lat="30.8422500" lon="34.8006700">
<ele>332.770020</ele>
<time>2021-04-07T08:00:06.357Z</time>
</trkpt>
<trkpt lat="30.8422000" lon="34.8008700">
<ele>333.000000</ele>
<time>2021-04-07T08:00:06.357Z</time>
</trkpt>
<trkpt lat="30.8420700" lon="34.8013600">
<ele>334.720001</ele>
<time>2021-04-07T08:00:06.357Z</time>
</trkpt>
<trkpt lat="30.8419200" lon="34.8013900">
<ele>336.989990</ele>
<time>2021-04-07T08:00:06.357Z</time>
</trkpt>
<trkpt lat="30.8417300" lon="34.8014100">
<ele>336.849976</ele>
<time>2021-04-07T08:00:06.357Z</time>
</trkpt>
<trkpt lat="30.8415300" lon="34.8016700">
<ele>334.950012</ele>
<time>2021-04-07T08:00:06.357Z</time>
</trkpt>
<trkpt lat="30.8415800" lon="34.8018600">
<ele>331.480011</ele>
<time>2021-04-07T08:00:06.357Z</time>
</trkpt>
<trkpt lat="30.8415300" lon="34.8020600">
<ele>328.809998</ele>
<time>2021-04-07T08:00:06.357Z</time>
</trkpt>
<trkpt lat="30.8415100" lon="34.8020900">
<ele>328.660004</ele>
<time>2021-04-07T08:00:06.357Z</time>
</trkpt>
<trkpt lat="30.8413700" lon="34.8022400">
<ele>329.279999</ele>
<time>2021-04-07T08:00:06.357Z</time>
</trkpt>
<trkpt lat="30.8413000" lon="34.8024700">
<ele>328.559998</ele>
<time>2021-04-07T08:00:06.357Z</time>
</trkpt>
<trkpt lat="30.8410600" lon="34.8028300">
<ele>325.570007</ele>
<time>2021-04-07T08:00:06.357Z</time>
</trkpt>
<trkpt lat="30.8404100" lon="34.8034500">
<ele>316.959991</ele>
<time>2021-04-07T08:00:06.357Z</time>
</trkpt>
<trkpt lat="30.8399200" lon="34.8037800">
<ele>316.089996</ele>
<time>2021-04-07T08:00:06.357Z</time>
</trkpt>
<trkpt lat="30.8395000" lon="34.8042900">
<ele>314.400024</ele>
<time>2021-04-07T08:00:06.357Z</time>
</trkpt>
<trkpt lat="30.8391300" lon="34.8048900">
<ele>315.449982</ele>
<time>2021-04-07T08:00:06.357Z</time>
</trkpt>
<trkpt lat="30.8387900" lon="34.8055800">
<ele>316.479980</ele>
<time>2021-04-07T08:00:06.357Z</time>
</trkpt>
<trkpt lat="30.8387600" lon="34.8056300">
<ele>316.859985</ele>
<time>2021-04-07T08:00:06.357Z</time>
</trkpt>
<trkpt lat="30.8386600" lon="34.8058200">
<ele>318.560028</ele>
<time>2021-04-07T08:00:06.357Z</time>
</trkpt>
<trkpt lat="30.8386000" lon="34.8060000">
<ele>319.130005</ele>
<time>2021-04-07T08:00:06.357Z</time>
</trkpt>
<trkpt lat="30.8384000" lon="34.8063900">
<ele>322.519989</ele>
<time>2021-04-07T08:00:06.357Z</time>
</trkpt>
<trkpt lat="30.8383400" lon="34.8066900">
<ele>324.029999</ele>
<time>2021-04-07T08:00:06.357Z</time>
</trkpt>
<trkpt lat="30.8383600" lon="34.8068100">
<ele>324.269989</ele>
<time>2021-04-07T08:00:06.357Z</time>
</trkpt>
<trkpt lat="30.8385600" lon="34.8076500">
<ele>324.810028</ele>
<time>2021-04-07T08:00:06.357Z</time>
</trkpt>
<trkpt lat="30.8387400" lon="34.8079800">
<ele>324.869995</ele>
<time>2021-04-07T08:00:06.357Z</time>
</trkpt>
<trkpt lat="30.8388600" lon="34.8082400">
<ele>324.470032</ele>
<time>2021-04-07T08:00:06.357Z</time>
</trkpt>
<trkpt lat="30.8388700" lon="34.8085900">
<ele>324.930023</ele>
<time>2021-04-07T08:00:06.357Z</time>
</trkpt>
<trkpt lat="30.8389100" lon="34.8089500">
<ele>327.580017</ele>
<time>2021-04-07T08:00:06.357Z</time>
</trkpt>
<trkpt lat="30.8390500" lon="34.8093500">
<ele>328.889984</ele>
<time>2021-04-07T08:00:06.357Z</time>
</trkpt>
<trkpt lat="30.8390600" lon="34.8095300">
<ele>327.120026</ele>
<time>2021-04-07T08:00:06.357Z</time>
</trkpt>
<trkpt lat="30.8390300" lon="34.8102300">
<ele>319.739990</ele>
<time>2021-04-07T08:00:06.357Z</time>
</trkpt>
<trkpt lat="30.8388300" lon="34.8104000">
<ele>320.779999</ele>
<time>2021-04-07T08:00:06.357Z</time>
</trkpt>
<trkpt lat="30.8384800" lon="34.8102800">
<ele>317.010010</ele>
<time>2021-04-07T08:00:06.357Z</time>
</trkpt>
<trkpt lat="30.8380000" lon="34.8104200">
<ele>315.560028</ele>
<time>2021-04-07T08:00:06.357Z</time>
</trkpt>
<trkpt lat="30.8376800" lon="34.8104500">
<ele>315.679993</ele>
<time>2021-04-07T08:00:06.357Z</time>
</trkpt>
<trkpt lat="30.8372100" lon="34.8105700">
<ele>317.150024</ele>
<time>2021-04-07T08:00:06.357Z</time>
</trkpt>
<trkpt lat="30.8366600" lon="34.8106700">
<ele>322.869995</ele>
<time>2021-04-07T08:00:06.357Z</time>
</trkpt>
<trkpt lat="30.8362800" lon="34.8108000">
<ele>318.730011</ele>
<time>2021-04-07T08:00:06.357Z</time>
</trkpt>
<trkpt lat="30.8362000" lon="34.8108700">
<ele>316.920013</ele>
<time>2021-04-07T08:00:06.357Z</time>
</trkpt>
<trkpt lat="30.8359300" lon="34.8111900">
<ele>318.320007</ele>
<time>2021-04-07T08:00:06.357Z</time>
</trkpt>
<trkpt lat="30.8359200" lon="34.8112900">
<ele>319.179993</ele>
<time>2021-04-07T08:00:06.357Z</time>
</trkpt>
<trkpt lat="30.8359200" lon="34.8113300">
<ele>319.509979</ele>
<time>2021-04-07T08:00:06.357Z</time>
</trkpt>
<trkpt lat="30.8359700" lon="34.8114700">
<ele>320.429993</ele>
<time>2021-04-07T08:00:06.357Z</time>
</trkpt>
<trkpt lat="30.8361100" lon="34.8115700">
<ele>321.949982</ele>
<time>2021-04-07T08:00:06.357Z</time>
</trkpt>
<trkpt lat="30.8363700" lon="34.8114300">
<ele>321.239990</ele>
<time>2021-04-07T08:00:06.357Z</time>
</trkpt>
<trkpt lat="30.8364100" lon="34.8114100">
<ele>320.960022</ele>
<time>2021-04-07T08:00:06.357Z</time>
</trkpt>
<trkpt lat="30.8366700" lon="34.8113400">
<ele>317.520020</ele>
<time>2021-04-07T08:00:06.357Z</time>
</trkpt>
<trkpt lat="30.8368500" lon="34.8113600">
<ele>320.189972</ele>
<time>2021-04-07T08:00:06.357Z</time>
</trkpt>
<trkpt lat="30.8372100" lon="34.8115900">
<ele>328.679993</ele>
<time>2021-04-07T08:00:06.357Z</time>
</trkpt>
<trkpt lat="30.8373500" lon="34.8116900">
<ele>333.209991</ele>
<time>2021-04-07T08:00:06.357Z</time>
</trkpt>
<trkpt lat="30.8376000" lon="34.8118100">
<ele>338.460022</ele>
<time>2021-04-07T08:00:06.357Z</time>
</trkpt>
<trkpt lat="30.8380400" lon="34.8120000">
<ele>341.519989</ele>
<time>2021-04-07T08:00:06.357Z</time>
</trkpt>
<trkpt lat="30.8384800" lon="34.8121500">
<ele>329.699982</ele>
<time>2021-04-07T08:00:06.357Z</time>
</trkpt>
<trkpt lat="30.8389200" lon="34.8126900">
<ele>319.220001</ele>
<time>2021-04-07T08:00:06.357Z</time>
</trkpt>
<trkpt lat="30.8390400" lon="34.8128800">
<ele>320.060028</ele>
<time>2021-04-07T08:00:06.357Z</time>
</trkpt>
<trkpt lat="30.8393500" lon="34.8134900">
<ele>322.559998</ele>
<time>2021-04-07T08:00:06.357Z</time>
</trkpt>
<trkpt lat="30.8395600" lon="34.8136500">
<ele>323.400024</ele>
<time>2021-04-07T08:00:06.357Z</time>
</trkpt>
<trkpt lat="30.8400600" lon="34.8142800">
<ele>333.030029</ele>
<time>2021-04-07T08:00:06.357Z</time>
</trkpt>
<trkpt lat="30.8402400" lon="34.8145500">
<ele>336.130005</ele>
<time>2021-04-07T08:00:06.357Z</time>
</trkpt>
<trkpt lat="30.8406100" lon="34.8150400">
<ele>340.040009</ele>
<time>2021-04-07T08:00:06.357Z</time>
</trkpt>
<trkpt lat="30.8412000" lon="34.8157300">
<ele>332.680023</ele>
<time>2021-04-07T08:00:06.357Z</time>
</trkpt>
<trkpt lat="30.8412200" lon="34.8157700">
<ele>331.639984</ele>
<time>2021-04-07T08:00:06.357Z</time>
</trkpt>
<trkpt lat="30.8416600" lon="34.8163000">
<ele>312.669983</ele>
<time>2021-04-07T08:00:06.357Z</time>
</trkpt>
<trkpt lat="30.8418200" lon="34.8164800">
<ele>313.810028</ele>
<time>2021-04-07T08:00:06.357Z</time>
</trkpt>
<trkpt lat="30.8419100" lon="34.8166100">
<ele>313.550018</ele>
<time>2021-04-07T08:00:06.357Z</time>
</trkpt>
<trkpt lat="30.8421700" lon="34.8171100">
<ele>320.769989</ele>
<time>2021-04-07T08:00:06.357Z</time>
</trkpt>
<trkpt lat="30.8424700" lon="34.8176900">
<ele>323.229980</ele>
<time>2021-04-07T08:00:06.357Z</time>
</trkpt>
<trkpt lat="30.8426400" lon="34.8178700">
<ele>325.020020</ele>
<time>2021-04-07T08:00:06.357Z</time>
</trkpt>
<trkpt lat="30.8427500" lon="34.8179400">
<ele>326.390015</ele>
<time>2021-04-07T08:00:06.357Z</time>
</trkpt>
<trkpt lat="30.8428900" lon="34.8180900">
<ele>325.679993</ele>
<time>2021-04-07T08:00:06.357Z</time>
</trkpt>
<trkpt lat="30.8431100" lon="34.8187800">
<ele>319.200012</ele>
<time>2021-04-07T08:00:06.357Z</time>
</trkpt>
<trkpt lat="30.8431700" lon="34.8189600">
<ele>319.460022</ele>
<time>2021-04-07T08:00:06.357Z</time>
</trkpt>
<trkpt lat="30.8433200" lon="34.8196100">
<ele>318.430023</ele>
<time>2021-04-07T08:00:06.357Z</time>
</trkpt>
<trkpt lat="30.8435800" lon="34.8198900">
<ele>315.399994</ele>
<time>2021-04-07T08:00:06.357Z</time>
</trkpt>
<trkpt lat="30.8436900" lon="34.8205400">
<ele>318.489990</ele>
<time>2021-04-07T08:00:06.357Z</time>
</trkpt>
<trkpt lat="30.8438300" lon="34.8212900">
<ele>322.790009</ele>
<time>2021-04-07T08:00:06.357Z</time>
</trkpt>
<trkpt lat="30.8438700" lon="34.8217600">
<ele>316.580017</ele>
<time>2021-04-07T08:00:06.357Z</time>
</trkpt>
<trkpt lat="30.8440400" lon="34.8221900">
<ele>315.609985</ele>
<time>2021-04-07T08:00:06.357Z</time>
</trkpt>
<trkpt lat="30.8441300" lon="34.8227400">
<ele>316.720032</ele>
<time>2021-04-07T08:00:06.357Z</time>
</trkpt>
<trkpt lat="30.8441900" lon="34.8232800">
<ele>314.400024</ele>
<time>2021-04-07T08:00:06.357Z</time>
</trkpt>
<trkpt lat="30.8441200" lon="34.8235600">
<ele>316.649994</ele>
<time>2021-04-07T08:00:06.357Z</time>
</trkpt>
<trkpt lat="30.8440700" lon="34.8236300">
<ele>317.440002</ele>
<time>2021-04-07T08:00:06.357Z</time>
</trkpt>
<trkpt lat="30.8438200" lon="34.8239500">
<ele>317.700012</ele>
<time>2021-04-07T08:00:06.357Z</time>
</trkpt>
<trkpt lat="30.8435200" lon="34.8243900">
<ele>311.239990</ele>
<time>2021-04-07T08:00:06.357Z</time>
</trkpt>
<trkpt lat="30.8432900" lon="34.8247000">
<ele>310.850006</ele>
<time>2021-04-07T08:00:06.357Z</time>
</trkpt>
<trkpt lat="30.8428700" lon="34.8252300">
<ele>313.269989</ele>
<time>2021-04-07T08:00:06.357Z</time>
</trkpt>
<trkpt lat="30.8426600" lon="34.8254300">
<ele>311.670013</ele>
<time>2021-04-07T08:00:06.357Z</time>
</trkpt>
<trkpt lat="30.8424400" lon="34.8256600">
<ele>309.880005</ele>
<time>2021-04-07T08:00:06.357Z</time>
</trkpt>
<trkpt lat="30.8420900" lon="34.8261000">
<ele>313.899994</ele>
<time>2021-04-07T08:00:06.357Z</time>
</trkpt>
<trkpt lat="30.8419900" lon="34.8262100">
<ele>314.769989</ele>
<time>2021-04-07T08:00:06.357Z</time>
</trkpt>
<trkpt lat="30.8417000" lon="34.8266200">
<ele>319.279999</ele>
<time>2021-04-07T08:00:06.357Z</time>
</trkpt>
<trkpt lat="30.8413900" lon="34.8270100">
<ele>321.229980</ele>
<time>2021-04-07T08:00:06.357Z</time>
</trkpt>
<trkpt lat="30.8410400" lon="34.8274000">
<ele>317.539978</ele>
<time>2021-04-07T08:00:06.357Z</time>
</trkpt>
<trkpt lat="30.8407500" lon="34.8277800">
<ele>311.519989</ele>
<time>2021-04-07T08:00:06.357Z</time>
</trkpt>
<trkpt lat="30.8404800" lon="34.8281400">
<ele>314.230011</ele>
<time>2021-04-07T08:00:06.357Z</time>
</trkpt>
<trkpt lat="30.8400000" lon="34.8287200">
<ele>317.140015</ele>
<time>2021-04-07T08:00:06.357Z</time>
</trkpt>
<trkpt lat="30.8399000" lon="34.8288400">
<ele>319.110016</ele>
<time>2021-04-07T08:00:06.357Z</time>
</trkpt>
<trkpt lat="30.8398000" lon="34.8289700">
<ele>319.360016</ele>
<time>2021-04-07T08:00:06.357Z</time>
</trkpt>
<trkpt lat="30.8396800" lon="34.8291400">
<ele>318.739990</ele>
<time>2021-04-07T08:00:06.357Z</time>
</trkpt>
<trkpt lat="30.8393700" lon="34.8295400">
<ele>318.000000</ele>
<time>2021-04-07T08:00:06.357Z</time>
</trkpt>
<trkpt lat="30.8391200" lon="34.8298600">
<ele>320.970001</ele>
<time>2021-04-07T08:00:06.357Z</time>
</trkpt>
<trkpt lat="30.8387100" lon="34.8303300">
<ele>320.690002</ele>
<time>2021-04-07T08:00:06.357Z</time>
</trkpt>
<trkpt lat="30.8386600" lon="34.8304000">
<ele>320.010010</ele>
<time>2021-04-07T08:00:06.357Z</time>
</trkpt>
<trkpt lat="30.8382800" lon="34.8309200">
<ele>316.750000</ele>
<time>2021-04-07T08:00:06.357Z</time>
</trkpt>
<trkpt lat="30.8378000" lon="34.8315000">
<ele>317.870026</ele>
<time>2021-04-07T08:00:06.357Z</time>
</trkpt>
<trkpt lat="30.8373600" lon="34.8321000">
<ele>321.389984</ele>
<time>2021-04-07T08:00:06.357Z</time>
</trkpt>
<trkpt lat="30.8369900" lon="34.8326300">
<ele>321.500000</ele>
<time>2021-04-07T08:00:06.357Z</time>
</trkpt>
<trkpt lat="30.8366100" lon="34.8332400">
<ele>322.589996</ele>
<time>2021-04-07T08:00:06.357Z</time>
</trkpt>
<trkpt lat="30.8365800" lon="34.8333000">
<ele>322.619995</ele>
<time>2021-04-07T08:00:06.357Z</time>
</trkpt>
<trkpt lat="30.8365200" lon="34.8333900">
<ele>322.379974</ele>
<time>2021-04-07T08:00:06.357Z</time>
</trkpt>
<trkpt lat="30.8361200" lon="34.8338600">
<ele>319.249969</ele>
<time>2021-04-07T08:00:06.357Z</time>
</trkpt>
<trkpt lat="30.8356100" lon="34.8345500">
<ele>320.270020</ele>
<time>2021-04-07T08:00:06.357Z</time>
</trkpt>
<trkpt lat="30.8350500" lon="34.8354100">
<ele>333.589996</ele>
<time>2021-04-07T08:00:06.357Z</time>
</trkpt>
<trkpt lat="30.8347500" lon="34.8358600">
<ele>333.950012</ele>
<time>2021-04-07T08:00:06.357Z</time>
</trkpt>
<trkpt lat="30.8345900" lon="34.8361100">
<ele>329.579987</ele>
<time>2021-04-07T08:00:06.357Z</time>
</trkpt>
<trkpt lat="30.8344900" lon="34.8362400">
<ele>329.179993</ele>
<time>2021-04-07T08:00:06.357Z</time>
</trkpt>
<trkpt lat="30.8341800" lon="34.8367100">
<ele>323.180023</ele>
<time>2021-04-07T08:00:06.357Z</time>
</trkpt>
<trkpt lat="30.8341100" lon="34.8368100">
<ele>322.690002</ele>
<time>2021-04-07T08:00:06.357Z</time>
</trkpt>
<trkpt lat="30.8338800" lon="34.8371700">
<ele>322.639984</ele>
<time>2021-04-07T08:00:06.357Z</time>
</trkpt>
<trkpt lat="30.8336800" lon="34.8374400">
<ele>324.179993</ele>
<time>2021-04-07T08:00:06.357Z</time>
</trkpt>
<trkpt lat="30.8336300" lon="34.8375000">
<ele>324.859985</ele>
<time>2021-04-07T08:00:06.357Z</time>
</trkpt>
<trkpt lat="30.8334600" lon="34.8377600">
<ele>323.520020</ele>
<time>2021-04-07T08:00:06.357Z</time>
</trkpt>
<trkpt lat="30.8332600" lon="34.8380400">
<ele>324.839996</ele>
<time>2021-04-07T08:00:06.357Z</time>
</trkpt>
<trkpt lat="30.8330400" lon="34.8383500">
<ele>321.940002</ele>
<time>2021-04-07T08:00:06.357Z</time>
</trkpt>
<trkpt lat="30.8327600" lon="34.8387700">
<ele>318.479980</ele>
<time>2021-04-07T08:00:06.357Z</time>
</trkpt>
<trkpt lat="30.8324100" lon="34.8393000">
<ele>317.309998</ele>
<time>2021-04-07T08:00:06.357Z</time>
</trkpt>
<trkpt lat="30.8323700" lon="34.8393500">
<ele>317.029999</ele>
<time>2021-04-07T08:00:06.357Z</time>
</trkpt>
<trkpt lat="30.8320100" lon="34.8399300">
<ele>314.620026</ele>
<time>2021-04-07T08:00:06.357Z</time>
</trkpt>
<trkpt lat="30.8316900" lon="34.8404100">
<ele>315.640015</ele>
<time>2021-04-07T08:00:06.357Z</time>
</trkpt>
<trkpt lat="30.8314100" lon="34.8408100">
<ele>314.079987</ele>
<time>2021-04-07T08:00:06.357Z</time>
</trkpt>
<trkpt lat="30.8310900" lon="34.8413500">
<ele>314.329987</ele>
<time>2021-04-07T08:00:06.357Z</time>
</trkpt>
<trkpt lat="30.8305800" lon="34.8421600">
<ele>313.110016</ele>
<time>2021-04-07T08:00:06.357Z</time>
</trkpt>
<trkpt lat="30.8302200" lon="34.8427100">
<ele>318.399994</ele>
<time>2021-04-07T08:00:06.357Z</time>
</trkpt>
<trkpt lat="30.8298500" lon="34.8433600">
<ele>314.620026</ele>
<time>2021-04-07T08:00:06.357Z</time>
</trkpt>
<trkpt lat="30.8292500" lon="34.8442300">
<ele>321.040009</ele>
<time>2021-04-07T08:00:06.357Z</time>
</trkpt>
<trkpt lat="30.8290700" lon="34.8444700">
<ele>321.260010</ele>
<time>2021-04-07T08:00:06.357Z</time>
</trkpt>
<trkpt lat="30.8287000" lon="34.8448400">
<ele>318.529999</ele>
<time>2021-04-07T08:00:06.357Z</time>
</trkpt>
<trkpt lat="30.8284400" lon="34.8451000">
<ele>317.779999</ele>
<time>2021-04-07T08:00:06.357Z</time>
</trkpt>
<trkpt lat="30.8283700" lon="34.8451700">
<ele>317.470001</ele>
<time>2021-04-07T08:00:06.357Z</time>
</trkpt>
<trkpt lat="30.8277300" lon="34.8458900">
<ele>316.930023</ele>
<time>2021-04-07T08:00:06.357Z</time>
</trkpt>
<trkpt lat="30.8273500" lon="34.8463200">
<ele>314.759979</ele>
<time>2021-04-07T08:00:06.357Z</time>
</trkpt>
<trkpt lat="30.8265800" lon="34.8472000">
<ele>309.459991</ele>
<time>2021-04-07T08:00:06.357Z</time>
</trkpt>
<trkpt lat="30.8263700" lon="34.8474100">
<ele>312.459991</ele>
<time>2021-04-07T08:00:06.357Z</time>
</trkpt>
<trkpt lat="30.8261800" lon="34.8476100">
<ele>313.100006</ele>
<time>2021-04-07T08:00:06.357Z</time>
</trkpt>
<trkpt lat="30.8258200" lon="34.8480000">
<ele>315.569977</ele>
<time>2021-04-07T08:00:06.357Z</time>
</trkpt>
<trkpt lat="30.8253800" lon="34.8483600">
<ele>315.470001</ele>
<time>2021-04-07T08:00:06.357Z</time>
</trkpt>
<trkpt lat="30.8253100" lon="34.8484000">
<ele>314.459991</ele>
<time>2021-04-07T08:00:06.357Z</time>
</trkpt>
<trkpt lat="30.8249800" lon="34.8485700">
<ele>314.869995</ele>
<time>2021-04-07T08:00:06.357Z</time>
</trkpt>
<trkpt lat="30.8249100" lon="34.8486000">
<ele>314.989990</ele>
<time>2021-04-07T08:00:06.357Z</time>
</trkpt>
<trkpt lat="30.8243300" lon="34.8489200">
<ele>317.000000</ele>
<time>2021-04-07T08:00:06.357Z</time>
</trkpt>
<trkpt lat="30.8242100" lon="34.8489900">
<ele>317.000000</ele>
<time>2021-04-07T08:00:06.357Z</time>
</trkpt>
<trkpt lat="30.8239900" lon="34.8491400">
<ele>317.639984</ele>
<time>2021-04-07T08:00:06.357Z</time>
</trkpt>
<trkpt lat="30.8236600" lon="34.8493300">
<ele>316.389984</ele>
<time>2021-04-07T08:00:06.357Z</time>
</trkpt>
<trkpt lat="30.8229000" lon="34.8496900">
<ele>315.909973</ele>
<time>2021-04-07T08:00:06.357Z</time>
</trkpt>
<trkpt lat="30.8227000" lon="34.8499900">
<ele>313.779999</ele>
<time>2021-04-07T08:00:06.357Z</time>
</trkpt>
<trkpt lat="30.8226700" lon="34.8506100">
<ele>311.220001</ele>
<time>2021-04-07T08:00:06.357Z</time>
</trkpt>
<trkpt lat="30.8225300" lon="34.8517800">
<ele>309.399994</ele>
<time>2021-04-07T08:00:06.357Z</time>
</trkpt>
<trkpt lat="30.8224200" lon="34.8526300">
<ele>303.399994</ele>
<time>2021-04-07T08:00:06.357Z</time>
</trkpt>
<trkpt lat="30.8223900" lon="34.8532700">
<ele>305.539978</ele>
<time>2021-04-07T08:00:06.357Z</time>
</trkpt>
<trkpt lat="30.8224000" lon="34.8539200">
<ele>307.559998</ele>
<time>2021-04-07T08:00:06.357Z</time>
</trkpt>
<trkpt lat="30.8223200" lon="34.8542300">
<ele>306.019989</ele>
<time>2021-04-07T08:00:06.357Z</time>
</trkpt>
<trkpt lat="30.8222800" lon="34.8546800">
<ele>301.700012</ele>
<time>2021-04-07T08:00:06.357Z</time>
</trkpt>
<trkpt lat="30.8222500" lon="34.8553000">
<ele>297.890015</ele>
<time>2021-04-07T08:00:06.357Z</time>
</trkpt>
<trkpt lat="30.8221900" lon="34.8559800">
<ele>296.950012</ele>
<time>2021-04-07T08:00:06.357Z</time>
</trkpt>
<trkpt lat="30.8220900" lon="34.8568200">
<ele>299.160004</ele>
<time>2021-04-07T08:00:06.357Z</time>
</trkpt>
<trkpt lat="30.8220700" lon="34.8569300">
<ele>299.800018</ele>
<time>2021-04-07T08:00:06.357Z</time>
</trkpt>
<trkpt lat="30.8220000" lon="34.8572000">
<ele>302.899994</ele>
<time>2021-04-07T08:00:06.357Z</time>
</trkpt>
<trkpt lat="30.8219600" lon="34.8575400">
<ele>303.699982</ele>
<time>2021-04-07T08:00:06.357Z</time>
</trkpt>
<trkpt lat="30.8218200" lon="34.8581200">
<ele>307.089996</ele>
<time>2021-04-07T08:00:06.357Z</time>
</trkpt>
<trkpt lat="30.8217600" lon="34.8585000">
<ele>304.729980</ele>
<time>2021-04-07T08:00:06.357Z</time>
</trkpt>
<trkpt lat="30.8215800" lon="34.8594500">
<ele>302.690002</ele>
<time>2021-04-07T08:00:06.357Z</time>
</trkpt>
<trkpt lat="30.8214700" lon="34.8603500">
<ele>306.299988</ele>
<time>2021-04-07T08:00:06.357Z</time>
</trkpt>
<trkpt lat="30.8214500" lon="34.8604700">
<ele>307.320007</ele>
<time>2021-04-07T08:00:06.357Z</time>
</trkpt>
<trkpt lat="30.8215200" lon="34.8608600">
<ele>312.510010</ele>
<time>2021-04-07T08:00:06.357Z</time>
</trkpt>
<trkpt lat="30.8219000" lon="34.8613900">
<ele>313.819977</ele>
<time>2021-04-07T08:00:06.357Z</time>
</trkpt>
<trkpt lat="30.8223500" lon="34.8619800">
<ele>306.660004</ele>
<time>2021-04-07T08:00:06.357Z</time>
</trkpt>
<trkpt lat="30.8224400" lon="34.8621500">
<ele>306.089996</ele>
<time>2021-04-07T08:00:06.357Z</time>
</trkpt>
<trkpt lat="30.8226700" lon="34.8630400">
<ele>299.699982</ele>
<time>2021-04-07T08:00:06.357Z</time>
</trkpt>
<trkpt lat="30.8227400" lon="34.8634600">
<ele>298.940002</ele>
<time>2021-04-07T08:00:06.357Z</time>
</trkpt>
<trkpt lat="30.8227500" lon="34.8637800">
<ele>296.179993</ele>
<time>2021-04-07T08:00:06.357Z</time>
</trkpt>
<trkpt lat="30.8227300" lon="34.8640500">
<ele>294.899994</ele>
<time>2021-04-07T08:00:06.357Z</time>
</trkpt>
<trkpt lat="30.8227200" lon="34.8650500">
<ele>295.860016</ele>
<time>2021-04-07T08:00:06.357Z</time>
</trkpt>
<trkpt lat="30.8226400" lon="34.8665100">
<ele>293.730011</ele>
<time>2021-04-07T08:00:06.357Z</time>
</trkpt>
<trkpt lat="30.8225900" lon="34.8677000">
<ele>292.410004</ele>
<time>2021-04-07T08:00:06.357Z</time>
</trkpt>
<trkpt lat="30.8224100" lon="34.8686400">
<ele>292.320007</ele>
<time>2021-04-07T08:00:06.357Z</time>
</trkpt>
<trkpt lat="30.8223900" lon="34.8687700">
<ele>291.980011</ele>
<time>2021-04-07T08:00:06.357Z</time>
</trkpt>
<trkpt lat="30.8224200" lon="34.8690600">
<ele>291.519989</ele>
<time>2021-04-07T08:00:06.357Z</time>
</trkpt>
<trkpt lat="30.8224200" lon="34.8693100">
<ele>290.470001</ele>
<time>2021-04-07T08:00:06.357Z</time>
</trkpt>
<trkpt lat="30.8224300" lon="34.8696100">
<ele>288.800018</ele>
<time>2021-04-07T08:00:06.357Z</time>
</trkpt>
<trkpt lat="30.8223000" lon="34.8703600">
<ele>284.329987</ele>
<time>2021-04-07T08:00:06.357Z</time>
</trkpt>
<trkpt lat="30.8222800" lon="34.8704900">
<ele>284.440002</ele>
<time>2021-04-07T08:00:06.357Z</time>
</trkpt>
<trkpt lat="30.8222700" lon="34.8706900">
<ele>283.950012</ele>
<time>2021-04-07T08:00:06.357Z</time>
</trkpt>
<trkpt lat="30.8222500" lon="34.8708400">
<ele>283.179993</ele>
<time>2021-04-07T08:00:06.357Z</time>
</trkpt>
<trkpt lat="30.8222300" lon="34.8709100">
<ele>282.779999</ele>
<time>2021-04-07T08:00:06.357Z</time>
</trkpt>
<trkpt lat="30.8221800" lon="34.8714500">
<ele>281.440002</ele>
<time>2021-04-07T08:00:06.357Z</time>
</trkpt>
<trkpt lat="30.8222200" lon="34.8717400">
<ele>280.970001</ele>
<time>2021-04-07T08:00:06.357Z</time>
</trkpt>
<trkpt lat="30.8222400" lon="34.8726200">
<ele>279.859985</ele>
<time>2021-04-07T08:00:06.357Z</time>
</trkpt>
<trkpt lat="30.8221800" lon="34.8736300">
<ele>274.730011</ele>
<time>2021-04-07T08:00:06.357Z</time>
</trkpt>
<trkpt lat="30.8222100" lon="34.8739500">
<ele>272.809998</ele>
<time>2021-04-07T08:00:06.357Z</time>
</trkpt>
<trkpt lat="30.8219900" lon="34.8754900">
<ele>265.220001</ele>
<time>2021-04-07T08:00:06.357Z</time>
</trkpt>
<trkpt lat="30.8218400" lon="34.8763200">
<ele>270.279999</ele>
<time>2021-04-07T08:00:06.357Z</time>
</trkpt>
<trkpt lat="30.8218000" lon="34.8765800">
<ele>269.779999</ele>
<time>2021-04-07T08:00:06.357Z</time>
</trkpt>
<trkpt lat="30.8217100" lon="34.8768300">
<ele>268.070007</ele>
<time>2021-04-07T08:00:06.357Z</time>
</trkpt>
<trkpt lat="30.8215000" lon="34.8778800">
<ele>265.000000</ele>
<time>2021-04-07T08:00:06.357Z</time>
</trkpt>
<trkpt lat="30.8215000" lon="34.8780300">
<ele>265.000000</ele>
<time>2021-04-07T08:00:06.357Z</time>
</trkpt>
<trkpt lat="30.8214500" lon="34.8782900">
<ele>263.359985</ele>
<time>2021-04-07T08:00:06.357Z</time>
</trkpt>
<trkpt lat="30.8214200" lon="34.8786400">
<ele>262.010010</ele>
<time>2021-04-07T08:00:06.357Z</time>
</trkpt>
<trkpt lat="30.8213400" lon="34.8790200">
<ele>262.559998</ele>
<time>2021-04-07T08:00:06.357Z</time>
</trkpt>
<trkpt lat="30.8213000" lon="34.8791400">
<ele>263.190002</ele>
<time>2021-04-07T08:00:06.357Z</time>
</trkpt>
<trkpt lat="30.8210400" lon="34.8800300">
<ele>267.580017</ele>
<time>2021-04-07T08:00:06.357Z</time>
</trkpt>
<trkpt lat="30.8209400" lon="34.8804400">
<ele>263.759979</ele>
<time>2021-04-07T08:00:06.357Z</time>
</trkpt>
<trkpt lat="30.8209400" lon="34.8804500">
<ele>263.670013</ele>
<time>2021-04-07T08:00:06.357Z</time>
</trkpt>
<trkpt lat="30.8209200" lon="34.8804300">
<ele>263.670013</ele>
<time>2021-04-07T08:00:06.357Z</time>
</trkpt>
<trkpt lat="30.8209200" lon="34.8804500">
<ele>263.500000</ele>
<time>2021-04-07T08:00:06.357Z</time>
</trkpt>
<trkpt lat="30.8208300" lon="34.8808700">
<ele>259.889984</ele>
<time>2021-04-07T08:00:06.357Z</time>
</trkpt>
<trkpt lat="30.8207400" lon="34.8812200">
<ele>259.540009</ele>
<time>2021-04-07T08:00:06.357Z</time>
</trkpt>
<trkpt lat="30.8207100" lon="34.8813700">
<ele>259.470001</ele>
<time>2021-04-07T08:00:06.357Z</time>
</trkpt>
<trkpt lat="30.8206300" lon="34.8818800">
<ele>259.669983</ele>
<time>2021-04-07T08:00:06.357Z</time>
</trkpt>
<trkpt lat="30.8205500" lon="34.8823400">
<ele>259.910004</ele>
<time>2021-04-07T08:00:06.357Z</time>
</trkpt>
<trkpt lat="30.8203900" lon="34.8832200">
<ele>258.160004</ele>
<time>2021-04-07T08:00:06.357Z</time>
</trkpt>
<trkpt lat="30.8202500" lon="34.8841200">
<ele>260.250000</ele>
<time>2021-04-07T08:00:06.357Z</time>
</trkpt>
<trkpt lat="30.8202100" lon="34.8842600">
<ele>259.360016</ele>
<time>2021-04-07T08:00:06.357Z</time>
</trkpt>
<trkpt lat="30.8201800" lon="34.8844700">
<ele>258.619995</ele>
<time>2021-04-07T08:00:06.357Z</time>
</trkpt>
<trkpt lat="30.8201100" lon="34.8847400">
<ele>258.290009</ele>
<time>2021-04-07T08:00:06.357Z</time>
</trkpt>
<trkpt lat="30.8200700" lon="34.8853700">
<ele>259.669983</ele>
<time>2021-04-07T08:00:06.357Z</time>
</trkpt>
<trkpt lat="30.8198500" lon="34.8859300">
<ele>261.109985</ele>
<time>2021-04-07T08:00:06.357Z</time>
</trkpt>
<trkpt lat="30.8197500" lon="34.8863600">
<ele>260.809998</ele>
<time>2021-04-07T08:00:06.357Z</time>
</trkpt>
<trkpt lat="30.8195300" lon="34.8873400">
<ele>257.299988</ele>
<time>2021-04-07T08:00:06.357Z</time>
</trkpt>
<trkpt lat="30.8192900" lon="34.8877000">
<ele>253.979996</ele>
<time>2021-04-07T08:00:06.357Z</time>
</trkpt>
<trkpt lat="30.8192300" lon="34.8877900">
<ele>252.639999</ele>
<time>2021-04-07T08:00:06.357Z</time>
</trkpt>
<trkpt lat="30.8192400" lon="34.8883600">
<ele>256.459991</ele>
<time>2021-04-07T08:00:06.357Z</time>
</trkpt>
<trkpt lat="30.8193300" lon="34.8887400">
<ele>259.149994</ele>
<time>2021-04-07T08:00:06.357Z</time>
</trkpt>
<trkpt lat="30.8195500" lon="34.8891000">
<ele>263.980011</ele>
<time>2021-04-07T08:00:06.357Z</time>
</trkpt>
<trkpt lat="30.8199700" lon="34.8895600">
<ele>267.489990</ele>
<time>2021-04-07T08:00:06.357Z</time>
</trkpt>
<trkpt lat="30.8205100" lon="34.8901700">
<ele>260.330017</ele>
<time>2021-04-07T08:00:06.357Z</time>
</trkpt>
<trkpt lat="30.8209400" lon="34.8908500">
<ele>255.059998</ele>
<time>2021-04-07T08:00:06.357Z</time>
</trkpt>
<trkpt lat="30.8214200" lon="34.8918000">
<ele>263.269989</ele>
<time>2021-04-07T08:00:06.357Z</time>
</trkpt>
<trkpt lat="30.8218400" lon="34.8924100">
<ele>257.750000</ele>
<time>2021-04-07T08:00:06.357Z</time>
</trkpt>
<trkpt lat="30.8219300" lon="34.8927200">
<ele>255.419998</ele>
<time>2021-04-07T08:00:06.357Z</time>
</trkpt>
<trkpt lat="30.8219500" lon="34.8930600">
<ele>256.869995</ele>
<time>2021-04-07T08:00:06.357Z</time>
</trkpt>
<trkpt lat="30.8219900" lon="34.8933400">
<ele>257.519989</ele>
<time>2021-04-07T08:00:06.357Z</time>
</trkpt>
<trkpt lat="30.8222700" lon="34.8942600">
<ele>243.740005</ele>
<time>2021-04-07T08:00:06.357Z</time>
</trkpt>
<trkpt lat="30.8226800" lon="34.8955200">
<ele>242.970001</ele>
<time>2021-04-07T08:00:06.357Z</time>
</trkpt>
<trkpt lat="30.8228600" lon="34.8958800">
<ele>239.319992</ele>
<time>2021-04-07T08:00:06.357Z</time>
</trkpt>
<trkpt lat="30.8229400" lon="34.8961200">
<ele>241.799988</ele>
<time>2021-04-07T08:00:06.357Z</time>
</trkpt>
<trkpt lat="30.8230500" lon="34.8972700">
<ele>247.889999</ele>
<time>2021-04-07T08:00:06.357Z</time>
</trkpt>
<trkpt lat="30.8230600" lon="34.8976800">
<ele>244.289993</ele>
<time>2021-04-07T08:00:06.357Z</time>
</trkpt>
<trkpt lat="30.8229800" lon="34.8982200">
<ele>234.779999</ele>
<time>2021-04-07T08:00:06.357Z</time>
</trkpt>
<trkpt lat="30.8228200" lon="34.8987300">
<ele>235.660004</ele>
<time>2021-04-07T08:00:06.357Z</time>
</trkpt>
<trkpt lat="30.8226600" lon="34.8996600">
<ele>231.759995</ele>
<time>2021-04-07T08:00:06.357Z</time>
</trkpt>
<trkpt lat="30.8224800" lon="34.9006100">
<ele>228.729996</ele>
<time>2021-04-07T08:00:06.357Z</time>
</trkpt>
<trkpt lat="30.8224200" lon="34.9008100">
<ele>231.459991</ele>
<time>2021-04-07T08:00:06.357Z</time>
</trkpt>
<trkpt lat="30.8222700" lon="34.9013400">
<ele>238.849991</ele>
<time>2021-04-07T08:00:06.357Z</time>
</trkpt>
<trkpt lat="30.8220500" lon="34.9016000">
<ele>242.490005</ele>
<time>2021-04-07T08:00:06.357Z</time>
</trkpt>
<trkpt lat="30.8220000" lon="34.9016400">
<ele>242.849991</ele>
<time>2021-04-07T08:00:06.357Z</time>
</trkpt>
<trkpt lat="30.8219100" lon="34.9018100">
<ele>244.160004</ele>
<time>2021-04-07T08:00:06.357Z</time>
</trkpt>
<trkpt lat="30.8218900" lon="34.9019000">
<ele>244.879990</ele>
<time>2021-04-07T08:00:06.357Z</time>
</trkpt>
<trkpt lat="30.8219300" lon="34.9020900">
<ele>246.130005</ele>
<time>2021-04-07T08:00:06.357Z</time>
</trkpt>
<trkpt lat="30.8221100" lon="34.9026400">
<ele>251.589996</ele>
<time>2021-04-07T08:00:06.357Z</time>
</trkpt>
<trkpt lat="30.8224900" lon="34.9035600">
<ele>249.690002</ele>
<time>2021-04-07T08:00:06.357Z</time>
</trkpt>
<trkpt lat="30.8227400" lon="34.9041400">
<ele>244.490005</ele>
<time>2021-04-07T08:00:06.357Z</time>
</trkpt>
<trkpt lat="30.8228900" lon="34.9044500">
<ele>244.599991</ele>
<time>2021-04-07T08:00:06.357Z</time>
</trkpt>
<trkpt lat="30.8232000" lon="34.9053900">
<ele>238.670013</ele>
<time>2021-04-07T08:00:06.357Z</time>
</trkpt>
<trkpt lat="30.8234100" lon="34.9064000">
<ele>244.529999</ele>
<time>2021-04-07T08:00:06.357Z</time>
</trkpt>
<trkpt lat="30.8234300" lon="34.9065200">
<ele>244.369995</ele>
<time>2021-04-07T08:00:06.357Z</time>
</trkpt>
<trkpt lat="30.8234400" lon="34.9066300">
<ele>244.100006</ele>
<time>2021-04-07T08:00:06.357Z</time>
</trkpt>
<trkpt lat="30.8235800" lon="34.9073100">
<ele>244.429993</ele>
<time>2021-04-07T08:00:06.357Z</time>
</trkpt>
<trkpt lat="30.8236700" lon="34.9075600">
<ele>244.160004</ele>
<time>2021-04-07T08:00:06.357Z</time>
</trkpt>
<trkpt lat="30.8236900" lon="34.9076400">
<ele>244.080002</ele>
<time>2021-04-07T08:00:06.357Z</time>
</trkpt>
<trkpt lat="30.8237300" lon="34.9077100">
<ele>243.619995</ele>
<time>2021-04-07T08:00:06.357Z</time>
</trkpt>
<trkpt lat="30.8237800" lon="34.9078000">
<ele>242.930008</ele>
<time>2021-04-07T08:00:06.357Z</time>
</trkpt>
<trkpt lat="30.8240400" lon="34.9083600">
<ele>238.820007</ele>
<time>2021-04-07T08:00:06.357Z</time>
</trkpt>
<trkpt lat="30.8240600" lon="34.9084200">
<ele>238.459991</ele>
<time>2021-04-07T08:00:06.357Z</time>
</trkpt>
<trkpt lat="30.8241200" lon="34.9086200">
<ele>237.330002</ele>
<time>2021-04-07T08:00:06.357Z</time>
</trkpt>
<trkpt lat="30.8242700" lon="34.9091100">
<ele>235.699997</ele>
<time>2021-04-07T08:00:06.357Z</time>
</trkpt>
<trkpt lat="30.8242800" lon="34.9093800">
<ele>234.949997</ele>
<time>2021-04-07T08:00:06.357Z</time>
</trkpt>
<trkpt lat="30.8242400" lon="34.9103000">
<ele>234.080002</ele>
<time>2021-04-07T08:00:06.357Z</time>
</trkpt>
<trkpt lat="30.8242800" lon="34.9109000">
<ele>236.729996</ele>
<time>2021-04-07T08:00:06.357Z</time>
</trkpt>
<trkpt lat="30.8243300" lon="34.9113600">
<ele>236.820007</ele>
<time>2021-04-07T08:00:06.357Z</time>
</trkpt>
<trkpt lat="30.8243200" lon="34.9116100">
<ele>237.970001</ele>
<time>2021-04-07T08:00:06.357Z</time>
</trkpt>
<trkpt lat="30.8243600" lon="34.9118800">
<ele>239.059998</ele>
<time>2021-04-07T08:00:06.357Z</time>
</trkpt>
<trkpt lat="30.8243700" lon="34.9120300">
<ele>240.570007</ele>
<time>2021-04-07T08:00:06.357Z</time>
</trkpt>
<trkpt lat="30.8244100" lon="34.9122600">
<ele>242.759995</ele>
<time>2021-04-07T08:00:06.357Z</time>
</trkpt>
<trkpt lat="30.8245300" lon="34.9127600">
<ele>242.940002</ele>
<time>2021-04-07T08:00:06.357Z</time>
</trkpt>
<trkpt lat="30.8247600" lon="34.9133400">
<ele>244.000015</ele>
<time>2021-04-07T08:00:06.357Z</time>
</trkpt>
<trkpt lat="30.8250300" lon="34.9140300">
<ele>245.080002</ele>
<time>2021-04-07T08:00:06.357Z</time>
</trkpt>
<trkpt lat="30.8253700" lon="34.9149000">
<ele>240.819992</ele>
<time>2021-04-07T08:00:06.357Z</time>
</trkpt>
<trkpt lat="30.8255400" lon="34.9154100">
<ele>238.130005</ele>
<time>2021-04-07T08:00:06.357Z</time>
</trkpt>
<trkpt lat="30.8259100" lon="34.9161600">
<ele>236.039993</ele>
<time>2021-04-07T08:00:06.357Z</time>
</trkpt>
<trkpt lat="30.8260600" lon="34.9165300">
<ele>232.149994</ele>
<time>2021-04-07T08:00:06.357Z</time>
</trkpt>
<trkpt lat="30.8261400" lon="34.9166300">
<ele>231.150009</ele>
<time>2021-04-07T08:00:06.357Z</time>
</trkpt>
<trkpt lat="30.8261800" lon="34.9167100">
<ele>230.220001</ele>
<time>2021-04-07T08:00:06.357Z</time>
</trkpt>
<trkpt lat="30.8262100" lon="34.9168200">
<ele>229.550003</ele>
<time>2021-04-07T08:00:06.357Z</time>
</trkpt>
<trkpt lat="30.8262200" lon="34.9170200">
<ele>229.100006</ele>
<time>2021-04-07T08:00:06.357Z</time>
</trkpt>
<trkpt lat="30.8261400" lon="34.9172000">
<ele>228.940002</ele>
<time>2021-04-07T08:00:06.357Z</time>
</trkpt>
<trkpt lat="30.8260500" lon="34.9176900">
<ele>228.209991</ele>
<time>2021-04-07T08:00:06.357Z</time>
</trkpt>
<trkpt lat="30.8261300" lon="34.9179300">
<ele>227.790009</ele>
<time>2021-04-07T08:00:06.357Z</time>
</trkpt>
<trkpt lat="30.8261000" lon="34.9185700">
<ele>229.129990</ele>
<time>2021-04-07T08:00:06.357Z</time>
</trkpt>
<trkpt lat="30.8261200" lon="34.9190700">
<ele>226.190002</ele>
<time>2021-04-07T08:00:06.357Z</time>
</trkpt>
<trkpt lat="30.8261200" lon="34.9192200">
<ele>225.890015</ele>
<time>2021-04-07T08:00:06.357Z</time>
</trkpt>
<trkpt lat="30.8261100" lon="34.9193300">
<ele>226.029999</ele>
<time>2021-04-07T08:00:06.357Z</time>
</trkpt>
<trkpt lat="30.8260400" lon="34.9195300">
<ele>227.410004</ele>
<time>2021-04-07T08:00:06.357Z</time>
</trkpt>
<trkpt lat="30.8260100" lon="34.9198900">
<ele>225.369995</ele>
<time>2021-04-07T08:00:06.357Z</time>
</trkpt>
<trkpt lat="30.8260400" lon="34.9203300">
<ele>222.180008</ele>
<time>2021-04-07T08:00:06.357Z</time>
</trkpt>
<trkpt lat="30.8260400" lon="34.9203300">
<ele>222.180008</ele>
<time>2021-04-07T08:00:06.357Z</time>
</trkpt>
<trkpt lat="30.8260600" lon="34.9203200">
<ele>221.860001</ele>
<time>2021-04-07T08:00:06.357Z</time>
</trkpt>
<trkpt lat="30.8260800" lon="34.9205500">
<ele>221.339996</ele>
<time>2021-04-07T08:00:06.357Z</time>
</trkpt>
<trkpt lat="30.8260800" lon="34.9207100">
<ele>220.289993</ele>
<time>2021-04-07T08:00:06.357Z</time>
</trkpt>
<trkpt lat="30.8261400" lon="34.9208800">
<ele>218.539993</ele>
<time>2021-04-07T08:00:06.357Z</time>
</trkpt>
<trkpt lat="30.8261200" lon="34.9213100">
<ele>217.940002</ele>
<time>2021-04-07T08:00:06.357Z</time>
</trkpt>
<trkpt lat="30.8260200" lon="34.9214900">
<ele>217.880005</ele>
<time>2021-04-07T08:00:06.357Z</time>
</trkpt>
<trkpt lat="30.8258300" lon="34.9219200">
<ele>217.970001</ele>
<time>2021-04-07T08:00:06.357Z</time>
</trkpt>
<trkpt lat="30.8257300" lon="34.9222700">
<ele>219.250000</ele>
<time>2021-04-07T08:00:06.357Z</time>
</trkpt>
<trkpt lat="30.8255700" lon="34.9231800">
<ele>220.869995</ele>
<time>2021-04-07T08:00:06.357Z</time>
</trkpt>
<trkpt lat="30.8255500" lon="34.9236200">
<ele>223.089996</ele>
<time>2021-04-07T08:00:06.357Z</time>
</trkpt>
<trkpt lat="30.8255100" lon="34.9239500">
<ele>222.139999</ele>
<time>2021-04-07T08:00:06.357Z</time>
</trkpt>
<trkpt lat="30.8254300" lon="34.9242700">
<ele>219.279999</ele>
<time>2021-04-07T08:00:06.357Z</time>
</trkpt>
<trkpt lat="30.8253500" lon="34.9245400">
<ele>215.479996</ele>
<time>2021-04-07T08:00:06.357Z</time>
</trkpt>
<trkpt lat="30.8251700" lon="34.9249100">
<ele>212.289993</ele>
<time>2021-04-07T08:00:06.357Z</time>
</trkpt>
<trkpt lat="30.8248800" lon="34.9253200">
<ele>209.989990</ele>
<time>2021-04-07T08:00:06.357Z</time>
</trkpt>
<trkpt lat="30.8244000" lon="34.9260300">
<ele>211.580002</ele>
<time>2021-04-07T08:00:06.357Z</time>
</trkpt>
<trkpt lat="30.8244000" lon="34.9260300">
<ele>211.580002</ele>
<time>2021-04-07T08:00:06.357Z</time>
</trkpt>
<trkpt lat="30.8243900" lon="34.9260400">
<ele>211.639999</ele>
<time>2021-04-07T08:00:06.357Z</time>
</trkpt>
<trkpt lat="30.8241400" lon="34.9263600">
<ele>208.910004</ele>
<time>2021-04-07T08:00:06.357Z</time>
</trkpt>
<trkpt lat="30.8239300" lon="34.9267000">
<ele>209.880005</ele>
<time>2021-04-07T08:00:06.357Z</time>
</trkpt>
<trkpt lat="30.8238200" lon="34.9268400">
<ele>208.839996</ele>
<time>2021-04-07T08:00:06.357Z</time>
</trkpt>
<trkpt lat="30.8235500" lon="34.9270900">
<ele>208.309998</ele>
<time>2021-04-07T08:00:06.357Z</time>
</trkpt>
<trkpt lat="30.8229600" lon="34.9274300">
<ele>208.879990</ele>
<time>2021-04-07T08:00:06.357Z</time>
</trkpt>
<trkpt lat="30.8227200" lon="34.9275000">
<ele>212.460007</ele>
<time>2021-04-07T08:00:06.357Z</time>
</trkpt>
<trkpt lat="30.8217800" lon="34.9278500">
<ele>209.730011</ele>
<time>2021-04-07T08:00:06.357Z</time>
</trkpt>
<trkpt lat="30.8215200" lon="34.9279900">
<ele>207.029999</ele>
<time>2021-04-07T08:00:06.357Z</time>
</trkpt>
<trkpt lat="30.8210300" lon="34.9283200">
<ele>212.109985</ele>
<time>2021-04-07T08:00:06.357Z</time>
</trkpt>
<trkpt lat="30.8207500" lon="34.9285300">
<ele>214.719986</ele>
<time>2021-04-07T08:00:06.357Z</time>
</trkpt>
<trkpt lat="30.8205000" lon="34.9288000">
<ele>216.340012</ele>
<time>2021-04-07T08:00:06.357Z</time>
</trkpt>
<trkpt lat="30.8203500" lon="34.9289000">
<ele>215.539993</ele>
<time>2021-04-07T08:00:06.357Z</time>
</trkpt>
<trkpt lat="30.8203500" lon="34.9288900">
<ele>215.520004</ele>
<time>2021-04-07T08:00:06.357Z</time>
</trkpt>
<trkpt lat="30.8203500" lon="34.9288900">
<ele>215.520004</ele>
<time>2021-04-07T08:00:06.357Z</time>
</trkpt>
<trkpt lat="30.8203500" lon="34.9289000">
<ele>215.539993</ele>
<time>2021-04-07T08:00:06.357Z</time>
</trkpt>
<trkpt lat="30.8202800" lon="34.9289400">
<ele>215.019989</ele>
<time>2021-04-07T08:00:06.357Z</time>
</trkpt>
<trkpt lat="30.8201400" lon="34.9290000">
<ele>214.310013</ele>
<time>2021-04-07T08:00:06.357Z</time>
</trkpt>
<trkpt lat="30.8200100" lon="34.9290300">
<ele>214.070007</ele>
<time>2021-04-07T08:00:06.357Z</time>
</trkpt>
<trkpt lat="30.8197600" lon="34.9291400">
<ele>216.730011</ele>
<time>2021-04-07T08:00:06.357Z</time>
</trkpt>
<trkpt lat="30.8193900" lon="34.9292100">
<ele>215.520004</ele>
<time>2021-04-07T08:00:06.357Z</time>
</trkpt>
<trkpt lat="30.8191000" lon="34.9293000">
<ele>211.639999</ele>
<time>2021-04-07T08:00:06.357Z</time>
</trkpt>
<trkpt lat="30.8187600" lon="34.9294600">
<ele>211.410004</ele>
<time>2021-04-07T08:00:06.357Z</time>
</trkpt>
<trkpt lat="30.8184500" lon="34.9296500">
<ele>210.670013</ele>
<time>2021-04-07T08:00:06.357Z</time>
</trkpt>
<trkpt lat="30.8180500" lon="34.9299200">
<ele>207.529999</ele>
<time>2021-04-07T08:00:06.357Z</time>
</trkpt>
<trkpt lat="30.8176900" lon="34.9302500">
<ele>202.280014</ele>
<time>2021-04-07T08:00:06.357Z</time>
</trkpt>
<trkpt lat="30.8174100" lon="34.9304300">
<ele>202.210007</ele>
<time>2021-04-07T08:00:06.357Z</time>
</trkpt>
<trkpt lat="30.8172800" lon="34.9305500">
<ele>202.569992</ele>
<time>2021-04-07T08:00:06.357Z</time>
</trkpt>
<trkpt lat="30.8170600" lon="34.9308300">
<ele>206.380005</ele>
<time>2021-04-07T08:00:06.357Z</time>
</trkpt>
<trkpt lat="30.8168100" lon="34.9310100">
<ele>207.930008</ele>
<time>2021-04-07T08:00:06.357Z</time>
</trkpt>
<trkpt lat="30.8166400" lon="34.9312400">
<ele>206.919998</ele>
<time>2021-04-07T08:00:06.357Z</time>
</trkpt>
<trkpt lat="30.8164600" lon="34.9314300">
<ele>204.959991</ele>
<time>2021-04-07T08:00:06.357Z</time>
</trkpt>
<trkpt lat="30.8162500" lon="34.9317400">
<ele>201.660004</ele>
<time>2021-04-07T08:00:06.357Z</time>
</trkpt>
<trkpt lat="30.8160500" lon="34.9319600">
<ele>205.020004</ele>
<time>2021-04-07T08:00:06.357Z</time>
</trkpt>
<trkpt lat="30.8160100" lon="34.9320600">
<ele>205.300003</ele>
<time>2021-04-07T08:00:06.357Z</time>
</trkpt>
<trkpt lat="30.8160000" lon="34.9323100">
<ele>205.800003</ele>
<time>2021-04-07T08:00:06.357Z</time>
</trkpt>
<trkpt lat="30.8159800" lon="34.9323400">
<ele>205.940002</ele>
<time>2021-04-07T08:00:06.357Z</time>
</trkpt>
<trkpt lat="30.8159800" lon="34.9323400">
<ele>205.940002</ele>
<time>2021-04-07T08:00:06.357Z</time>
</trkpt>
<trkpt lat="30.8159800" lon="34.9323500">
<ele>205.940002</ele>
<time>2021-04-07T08:00:06.357Z</time>
</trkpt>
<trkpt lat="30.8159500" lon="34.9324000">
<ele>206.159988</ele>
<time>2021-04-07T08:00:06.357Z</time>
</trkpt>
<trkpt lat="30.8158400" lon="34.9324900">
<ele>206.949997</ele>
<time>2021-04-07T08:00:06.357Z</time>
</trkpt>
<trkpt lat="30.8157400" lon="34.9325500">
<ele>206.300003</ele>
<time>2021-04-07T08:00:06.357Z</time>
</trkpt>
<trkpt lat="30.8156300" lon="34.9326600">
<ele>205.119995</ele>
<time>2021-04-07T08:00:06.357Z</time>
</trkpt>
<trkpt lat="30.8154500" lon="34.9329500">
<ele>203.379990</ele>
<time>2021-04-07T08:00:06.357Z</time>
</trkpt>
<trkpt lat="30.8153500" lon="34.9331700">
<ele>202.960007</ele>
<time>2021-04-07T08:00:06.357Z</time>
</trkpt>
<trkpt lat="30.8153200" lon="34.9332800">
<ele>202.770004</ele>
<time>2021-04-07T08:00:06.357Z</time>
</trkpt>
<trkpt lat="30.8152800" lon="34.9334900">
<ele>204.089996</ele>
<time>2021-04-07T08:00:06.357Z</time>
</trkpt>
<trkpt lat="30.8152800" lon="34.9337300">
<ele>205.819992</ele>
<time>2021-04-07T08:00:06.357Z</time>
</trkpt>
<trkpt lat="30.8152500" lon="34.9338600">
<ele>206.619995</ele>
<time>2021-04-07T08:00:06.357Z</time>
</trkpt>
<trkpt lat="30.8150600" lon="34.9347800">
<ele>206.070007</ele>
<time>2021-04-07T08:00:06.357Z</time>
</trkpt>
<trkpt lat="30.8149900" lon="34.9351900">
<ele>206.589996</ele>
<time>2021-04-07T08:00:06.357Z</time>
</trkpt>
<trkpt lat="30.8149500" lon="34.9355300">
<ele>205.389999</ele>
<time>2021-04-07T08:00:06.357Z</time>
</trkpt>
<trkpt lat="30.8149500" lon="34.9355300">
<ele>205.389999</ele>
<time>2021-04-07T08:00:06.357Z</time>
</trkpt>
<trkpt lat="30.8149500" lon="34.9355300">
<ele>205.389999</ele>
<time>2021-04-07T08:00:06.357Z</time>
</trkpt>
<trkpt lat="30.8149500" lon="34.9355300">
<ele>205.389999</ele>
<time>2021-04-07T08:00:06.357Z</time>
</trkpt>
<trkpt lat="30.8148500" lon="34.9363100">
<ele>204.309998</ele>
<time>2021-04-07T08:00:06.357Z</time>
</trkpt>
<trkpt lat="30.8147900" lon="34.9365300">
<ele>204.750000</ele>
<time>2021-04-07T08:00:06.357Z</time>
</trkpt>
<trkpt lat="30.8147200" lon="34.9369400">
<ele>205.960007</ele>
<time>2021-04-07T08:00:06.357Z</time>
</trkpt>
<trkpt lat="30.8146700" lon="34.9371800">
<ele>206.279999</ele>
<time>2021-04-07T08:00:06.357Z</time>
</trkpt>
<trkpt lat="30.8146200" lon="34.9378500">
<ele>208.879990</ele>
<time>2021-04-07T08:00:06.357Z</time>
</trkpt>
<trkpt lat="30.8144800" lon="34.9385300">
<ele>211.110001</ele>
<time>2021-04-07T08:00:06.357Z</time>
</trkpt>
<trkpt lat="30.8143400" lon="34.9391000">
<ele>213.860001</ele>
<time>2021-04-07T08:00:06.357Z</time>
</trkpt>
<trkpt lat="30.8142600" lon="34.9396400">
<ele>213.919998</ele>
<time>2021-04-07T08:00:06.357Z</time>
</trkpt>
<trkpt lat="30.8142100" lon="34.9397700">
<ele>213.639999</ele>
<time>2021-04-07T08:00:06.357Z</time>
</trkpt>
<trkpt lat="30.8141000" lon="34.9400100">
<ele>216.330002</ele>
<time>2021-04-07T08:00:06.357Z</time>
</trkpt>
<trkpt lat="30.8141000" lon="34.9400100">
<ele>216.330002</ele>
<time>2021-04-07T08:00:06.357Z</time>
</trkpt>
<trkpt lat="30.8141000" lon="34.9400100">
<ele>216.330002</ele>
<time>2021-04-07T08:00:06.357Z</time>
</trkpt>
<trkpt lat="30.8141700" lon="34.9400300">
<ele>217.110001</ele>
<time>2021-04-07T08:00:06.357Z</time>
</trkpt>
<trkpt lat="30.8142500" lon="34.9400100">
<ele>217.039993</ele>
<time>2021-04-07T08:00:06.357Z</time>
</trkpt>
<trkpt lat="30.8143800" lon="34.9398900">
<ele>216.839996</ele>
<time>2021-04-07T08:00:06.357Z</time>
</trkpt>
<trkpt lat="30.8147000" lon="34.9396600">
<ele>220.329987</ele>
<time>2021-04-07T08:00:06.357Z</time>
</trkpt>
<trkpt lat="30.8148000" lon="34.9396100">
<ele>219.860001</ele>
<time>2021-04-07T08:00:06.357Z</time>
</trkpt>
<trkpt lat="30.8149000" lon="34.9395900">
<ele>219.380005</ele>
<time>2021-04-07T08:00:06.357Z</time>
</trkpt>
<trkpt lat="30.8150300" lon="34.9396200">
<ele>218.740005</ele>
<time>2021-04-07T08:00:06.357Z</time>
</trkpt>
<trkpt lat="30.8152500" lon="34.9397400">
<ele>216.960007</ele>
<time>2021-04-07T08:00:06.357Z</time>
</trkpt>
<trkpt lat="30.8156500" lon="34.9397900">
<ele>207.639999</ele>
<time>2021-04-07T08:00:06.357Z</time>
</trkpt>
<trkpt lat="30.8158700" lon="34.9398600">
<ele>204.330002</ele>
<time>2021-04-07T08:00:06.357Z</time>
</trkpt>
<trkpt lat="30.8160200" lon="34.9398200">
<ele>201.740005</ele>
<time>2021-04-07T08:00:06.357Z</time>
</trkpt>
<trkpt lat="30.8160600" lon="34.9398400">
<ele>201.020004</ele>
<time>2021-04-07T08:00:06.357Z</time>
</trkpt>
<trkpt lat="30.8160900" lon="34.9398600">
<ele>200.389999</ele>
<time>2021-04-07T08:00:06.357Z</time>
</trkpt>
<trkpt lat="30.8161100" lon="34.9399000">
<ele>199.739990</ele>
<time>2021-04-07T08:00:06.357Z</time>
</trkpt>
<trkpt lat="30.8161300" lon="34.9402200">
<ele>199.110001</ele>
<time>2021-04-07T08:00:06.357Z</time>
</trkpt>
<trkpt lat="30.8161100" lon="34.9403800">
<ele>199.380005</ele>
<time>2021-04-07T08:00:06.357Z</time>
</trkpt>
<trkpt lat="30.8160300" lon="34.9407200">
<ele>200.669998</ele>
<time>2021-04-07T08:00:06.357Z</time>
</trkpt>
<trkpt lat="30.8158500" lon="34.9413700">
<ele>199.080002</ele>
<time>2021-04-07T08:00:06.357Z</time>
</trkpt>
<trkpt lat="30.8157800" lon="34.9415000">
<ele>197.990005</ele>
<time>2021-04-07T08:00:06.357Z</time>
</trkpt>
<trkpt lat="30.8157400" lon="34.9415600">
<ele>197.489990</ele>
<time>2021-04-07T08:00:06.357Z</time>
</trkpt>
<trkpt lat="30.8156800" lon="34.9416100">
<ele>197.160004</ele>
<time>2021-04-07T08:00:06.357Z</time>
</trkpt>
<trkpt lat="30.8156100" lon="34.9416400">
<ele>197.089996</ele>
<time>2021-04-07T08:00:06.357Z</time>
</trkpt>
<trkpt lat="30.8153500" lon="34.9417000">
<ele>198.029999</ele>
<time>2021-04-07T08:00:06.357Z</time>
</trkpt>
<trkpt lat="30.8153100" lon="34.9417600">
<ele>197.460007</ele>
<time>2021-04-07T08:00:06.357Z</time>
</trkpt>
<trkpt lat="30.8153200" lon="34.9418100">
<ele>196.710007</ele>
<time>2021-04-07T08:00:06.357Z</time>
</trkpt>
<trkpt lat="30.8154300" lon="34.9419000">
<ele>195.000000</ele>
<time>2021-04-07T08:00:06.357Z</time>
</trkpt>
<trkpt lat="30.8155100" lon="34.9420200">
<ele>193.120010</ele>
<time>2021-04-07T08:00:06.357Z</time>
</trkpt>
<trkpt lat="30.8155300" lon="34.9420600">
<ele>192.470001</ele>
<time>2021-04-07T08:00:06.357Z</time>
</trkpt>
<trkpt lat="30.8155300" lon="34.9421600">
<ele>191.059998</ele>
<time>2021-04-07T08:00:06.357Z</time>
</trkpt>
<trkpt lat="30.8154900" lon="34.9422300">
<ele>190.559998</ele>
<time>2021-04-07T08:00:06.357Z</time>
</trkpt>
<trkpt lat="30.8154700" lon="34.9423500">
<ele>192.139999</ele>
<time>2021-04-07T08:00:06.357Z</time>
</trkpt>
<trkpt lat="30.8154000" lon="34.9425800">
<ele>195.639999</ele>
<time>2021-04-07T08:00:06.357Z</time>
</trkpt>
<trkpt lat="30.8151700" lon="34.9427700">
<ele>197.530014</ele>
<time>2021-04-07T08:00:06.357Z</time>
</trkpt>
<trkpt lat="30.8151100" lon="34.9428500">
<ele>198.280014</ele>
<time>2021-04-07T08:00:06.357Z</time>
</trkpt>
<trkpt lat="30.8150600" lon="34.9429400">
<ele>199.090012</ele>
<time>2021-04-07T08:00:06.357Z</time>
</trkpt>
<trkpt lat="30.8150100" lon="34.9431200">
<ele>200.310013</ele>
<time>2021-04-07T08:00:06.357Z</time>
</trkpt>
<trkpt lat="30.8149800" lon="34.9434700">
<ele>200.180008</ele>
<time>2021-04-07T08:00:06.357Z</time>
</trkpt>
<trkpt lat="30.8149800" lon="34.9437200">
<ele>199.479996</ele>
<time>2021-04-07T08:00:06.357Z</time>
</trkpt>
<trkpt lat="30.8150400" lon="34.9440100">
<ele>198.929993</ele>
<time>2021-04-07T08:00:06.357Z</time>
</trkpt>
<trkpt lat="30.8150500" lon="34.9440900">
<ele>198.689987</ele>
<time>2021-04-07T08:00:06.357Z</time>
</trkpt>
<trkpt lat="30.8150200" lon="34.9442400">
<ele>198.349991</ele>
<time>2021-04-07T08:00:06.357Z</time>
</trkpt>
<trkpt lat="30.8150200" lon="34.9444100">
<ele>198.830002</ele>
<time>2021-04-07T08:00:06.357Z</time>
</trkpt>
<trkpt lat="30.8150400" lon="34.9445600">
<ele>199.090012</ele>
<time>2021-04-07T08:00:06.357Z</time>
</trkpt>
<trkpt lat="30.8151000" lon="34.9447000">
<ele>198.570007</ele>
<time>2021-04-07T08:00:06.357Z</time>
</trkpt>
<trkpt lat="30.8151900" lon="34.9448100">
<ele>197.149994</ele>
<time>2021-04-07T08:00:06.357Z</time>
</trkpt>
<trkpt lat="30.8152700" lon="34.9448800">
<ele>195.580002</ele>
<time>2021-04-07T08:00:06.357Z</time>
</trkpt>
<trkpt lat="30.8153200" lon="34.9449100">
<ele>195.629990</ele>
<time>2021-04-07T08:00:06.357Z</time>
</trkpt>
<trkpt lat="30.8157400" lon="34.9451100">
<ele>195.949997</ele>
<time>2021-04-07T08:00:06.357Z</time>
</trkpt>
<trkpt lat="30.8157900" lon="34.9451200">
<ele>195.770004</ele>
<time>2021-04-07T08:00:06.357Z</time>
</trkpt>
<trkpt lat="30.8157900" lon="34.9451200">
<ele>195.770004</ele>
<time>2021-04-07T08:00:06.357Z</time>
</trkpt>
<trkpt lat="30.8158600" lon="34.9451400">
<ele>195.150009</ele>
<time>2021-04-07T08:00:06.357Z</time>
</trkpt>
<trkpt lat="30.8162200" lon="34.9452900">
<ele>190.910004</ele>
<time>2021-04-07T08:00:06.357Z</time>
</trkpt>
<trkpt lat="30.8162800" lon="34.9453100">
<ele>190.769989</ele>
<time>2021-04-07T08:00:06.357Z</time>
</trkpt>
<trkpt lat="30.8166400" lon="34.9453700">
<ele>193.650009</ele>
<time>2021-04-07T08:00:06.357Z</time>
</trkpt>
<trkpt lat="30.8168400" lon="34.9453500">
<ele>194.060013</ele>
<time>2021-04-07T08:00:06.357Z</time>
</trkpt>
<trkpt lat="30.8169000" lon="34.9453600">
<ele>193.860001</ele>
<time>2021-04-07T08:00:06.357Z</time>
</trkpt>
<trkpt lat="30.8170000" lon="34.9453800">
<ele>193.599991</ele>
<time>2021-04-07T08:00:06.357Z</time>
</trkpt>
<trkpt lat="30.8170700" lon="34.9453800">
<ele>193.690002</ele>
<time>2021-04-07T08:00:06.357Z</time>
</trkpt>
<trkpt lat="30.8171400" lon="34.9453600">
<ele>194.020004</ele>
<time>2021-04-07T08:00:06.357Z</time>
</trkpt>
<trkpt lat="30.8172000" lon="34.9453200">
<ele>194.529999</ele>
<time>2021-04-07T08:00:06.357Z</time>
</trkpt>
<trkpt lat="30.8172600" lon="34.9452700">
<ele>195.349991</ele>
<time>2021-04-07T08:00:06.357Z</time>
</trkpt>
<trkpt lat="30.8173200" lon="34.9452200">
<ele>196.180008</ele>
<time>2021-04-07T08:00:06.357Z</time>
</trkpt>
<trkpt lat="30.8173600" lon="34.9451900">
<ele>196.630005</ele>
<time>2021-04-07T08:00:06.357Z</time>
</trkpt>
<trkpt lat="30.8174100" lon="34.9451400">
<ele>197.169998</ele>
<time>2021-04-07T08:00:06.357Z</time>
</trkpt>
<trkpt lat="30.8174600" lon="34.9451000">
<ele>197.539993</ele>
<time>2021-04-07T08:00:06.357Z</time>
</trkpt>
<trkpt lat="30.8175400" lon="34.9450200">
<ele>197.789993</ele>
<time>2021-04-07T08:00:06.357Z</time>
</trkpt>
<trkpt lat="30.8176100" lon="34.9449600">
<ele>197.889999</ele>
<time>2021-04-07T08:00:06.357Z</time>
</trkpt>
<trkpt lat="30.8176600" lon="34.9449300">
<ele>197.930008</ele>
<time>2021-04-07T08:00:06.357Z</time>
</trkpt>
<trkpt lat="30.8177300" lon="34.9449000">
<ele>197.889999</ele>
<time>2021-04-07T08:00:06.357Z</time>
</trkpt>
<trkpt lat="30.8177800" lon="34.9448900">
<ele>197.789993</ele>
<time>2021-04-07T08:00:06.357Z</time>
</trkpt>
<trkpt lat="30.8177800" lon="34.9448900">
<ele>197.789993</ele>
<time>2021-04-07T08:00:06.357Z</time>
</trkpt>
<trkpt lat="30.8177800" lon="34.9448900">
<ele>197.789993</ele>
<time>2021-04-07T08:00:06.357Z</time>
</trkpt>
<trkpt lat="30.8177300" lon="34.9449000">
<ele>197.889999</ele>
<time>2021-04-07T08:00:06.357Z</time>
</trkpt>
<trkpt lat="30.8176600" lon="34.9449300">
<ele>197.930008</ele>
<time>2021-04-07T08:00:06.357Z</time>
</trkpt>
<trkpt lat="30.8176100" lon="34.9449600">
<ele>197.889999</ele>
<time>2021-04-07T08:00:06.357Z</time>
</trkpt>
<trkpt lat="30.8175400" lon="34.9450200">
<ele>197.789993</ele>
<time>2021-04-07T08:00:06.357Z</time>
</trkpt>
<trkpt lat="30.8174600" lon="34.9451000">
<ele>197.539993</ele>
<time>2021-04-07T08:00:06.357Z</time>
</trkpt>
<trkpt lat="30.8174100" lon="34.9451400">
<ele>197.169998</ele>
<time>2021-04-07T08:00:06.357Z</time>
</trkpt>
<trkpt lat="30.8173600" lon="34.9451900">
<ele>196.630005</ele>
<time>2021-04-07T08:00:06.357Z</time>
</trkpt>
<trkpt lat="30.8173200" lon="34.9452200">
<ele>196.180008</ele>
<time>2021-04-07T08:00:06.357Z</time>
</trkpt>
<trkpt lat="30.8172600" lon="34.9452700">
<ele>195.349991</ele>
<time>2021-04-07T08:00:06.357Z</time>
</trkpt>
<trkpt lat="30.8172000" lon="34.9453200">
<ele>194.529999</ele>
<time>2021-04-07T08:00:06.357Z</time>
</trkpt>
<trkpt lat="30.8171400" lon="34.9453600">
<ele>194.020004</ele>
<time>2021-04-07T08:00:06.357Z</time>
</trkpt>
<trkpt lat="30.8170700" lon="34.9453800">
<ele>193.690002</ele>
<time>2021-04-07T08:00:06.357Z</time>
</trkpt>
<trkpt lat="30.8170000" lon="34.9453800">
<ele>193.599991</ele>
<time>2021-04-07T08:00:06.357Z</time>
</trkpt>
<trkpt lat="30.8169000" lon="34.9453600">
<ele>193.860001</ele>
<time>2021-04-07T08:00:06.357Z</time>
</trkpt>
<trkpt lat="30.8168400" lon="34.9453500">
<ele>194.060013</ele>
<time>2021-04-07T08:00:06.357Z</time>
</trkpt>
<trkpt lat="30.8168600" lon="34.9451400">
<ele>196.039993</ele>
<time>2021-04-07T08:00:06.357Z</time>
</trkpt>
<trkpt lat="30.8169100" lon="34.9449900">
<ele>197.729996</ele>
<time>2021-04-07T08:00:06.357Z</time>
</trkpt>
<trkpt lat="30.8169500" lon="34.9449300">
<ele>198.759995</ele>
<time>2021-04-07T08:00:06.357Z</time>
</trkpt>
<trkpt lat="30.8169700" lon="34.9449100">
<ele>199.000000</ele>
<time>2021-04-07T08:00:06.357Z</time>
</trkpt>
<trkpt lat="30.8170600" lon="34.9448900">
<ele>199.350006</ele>
<time>2021-04-07T08:00:06.357Z</time>
</trkpt>
<trkpt lat="30.8171300" lon="34.9448200">
<ele>200.379990</ele>
<time>2021-04-07T08:00:06.357Z</time>
</trkpt>
<trkpt lat="30.8171700" lon="34.9447600">
<ele>201.290009</ele>
<time>2021-04-07T08:00:06.357Z</time>
</trkpt>
<trkpt lat="30.8172400" lon="34.9447500">
<ele>201.479996</ele>
<time>2021-04-07T08:00:06.357Z</time>
</trkpt>
<trkpt lat="30.8173000" lon="34.9448100">
<ele>200.350006</ele>
<time>2021-04-07T08:00:06.357Z</time>
</trkpt>
<trkpt lat="30.8173800" lon="34.9448300">
<ele>199.750000</ele>
<time>2021-04-07T08:00:06.357Z</time>
</trkpt>
<trkpt lat="30.8174500" lon="34.9448000">
<ele>199.699997</ele>
<time>2021-04-07T08:00:06.357Z</time>
</trkpt>
<trkpt lat="30.8174800" lon="34.9447600">
<ele>199.849991</ele>
<time>2021-04-07T08:00:06.357Z</time>
</trkpt>
<trkpt lat="30.8175100" lon="34.9447100">
<ele>200.010010</ele>
<time>2021-04-07T08:00:06.357Z</time>
</trkpt>
<trkpt lat="30.8175100" lon="34.9446400">
<ele>200.279999</ele>
<time>2021-04-07T08:00:06.357Z</time>
</trkpt>
<trkpt lat="30.8175300" lon="34.9446000">
<ele>200.429993</ele>
<time>2021-04-07T08:00:06.357Z</time>
</trkpt>
<trkpt lat="30.8175700" lon="34.9445600">
<ele>200.630005</ele>
<time>2021-04-07T08:00:06.357Z</time>
</trkpt>
<trkpt lat="30.8176300" lon="34.9445100">
<ele>201.009995</ele>
<time>2021-04-07T08:00:06.357Z</time>
</trkpt>
<trkpt lat="30.8176400" lon="34.9444700">
<ele>201.319992</ele>
<time>2021-04-07T08:00:06.357Z</time>
</trkpt>
<trkpt lat="30.8176600" lon="34.9444100">
<ele>202.090012</ele>
<time>2021-04-07T08:00:06.357Z</time>
</trkpt>
<trkpt lat="30.8177400" lon="34.9443300">
<ele>203.809998</ele>
<time>2021-04-07T08:00:06.357Z</time>
</trkpt>
<trkpt lat="30.8178200" lon="34.9443000">
<ele>205.429993</ele>
<time>2021-04-07T08:00:06.357Z</time>
</trkpt>
<trkpt lat="30.8178800" lon="34.9443300">
<ele>206.119995</ele>
<time>2021-04-07T08:00:06.357Z</time>
</trkpt>
<trkpt lat="30.8179700" lon="34.9443500">
<ele>207.619995</ele>
<time>2021-04-07T08:00:06.357Z</time>
</trkpt>
<trkpt lat="30.8180300" lon="34.9443500">
<ele>208.839996</ele>
<time>2021-04-07T08:00:06.357Z</time>
</trkpt>
<trkpt lat="30.8180700" lon="34.9443600">
<ele>209.300003</ele>
<time>2021-04-07T08:00:06.357Z</time>
</trkpt>
<trkpt lat="30.8182600" lon="34.9443900">
<ele>210.110001</ele>
<time>2021-04-07T08:00:06.357Z</time>
</trkpt>
<trkpt lat="30.8182600" lon="34.9443900">
<ele>210.110001</ele>
<time>2021-04-07T08:00:06.357Z</time>
</trkpt>
<trkpt lat="30.8182600" lon="34.9443900">
<ele>210.110001</ele>
<time>2021-04-07T08:00:06.357Z</time>
</trkpt>
<trkpt lat="30.8182600" lon="34.9443900">
<ele>210.110001</ele>
<time>2021-04-07T08:00:06.357Z</time>
</trkpt>
<trkpt lat="30.8182600" lon="34.9443900">
<ele>210.110001</ele>
<time>2021-04-07T08:00:06.357Z</time>
</trkpt>
<trkpt lat="30.8183100" lon="34.9444200">
<ele>210.099991</ele>
<time>2021-04-07T08:00:06.357Z</time>
</trkpt>
<trkpt lat="30.8183500" lon="34.9444300">
<ele>209.779999</ele>
<time>2021-04-07T08:00:06.357Z</time>
</trkpt>
<trkpt lat="30.8185500" lon="34.9444600">
<ele>205.100006</ele>
<time>2021-04-07T08:00:06.357Z</time>
</trkpt>
<trkpt lat="30.8186500" lon="34.9444500">
<ele>203.699997</ele>
<time>2021-04-07T08:00:06.357Z</time>
</trkpt>
<trkpt lat="30.8187500" lon="34.9444300">
<ele>202.900009</ele>
<time>2021-04-07T08:00:06.357Z</time>
</trkpt>
<trkpt lat="30.8188400" lon="34.9444100">
<ele>202.020004</ele>
<time>2021-04-07T08:00:06.357Z</time>
</trkpt>
<trkpt lat="30.8189000" lon="34.9443700">
<ele>201.199997</ele>
<time>2021-04-07T08:00:06.357Z</time>
</trkpt>
<trkpt lat="30.8189500" lon="34.9442700">
<ele>200.120010</ele>
<time>2021-04-07T08:00:06.357Z</time>
</trkpt>
<trkpt lat="30.8189500" lon="34.9442000">
<ele>199.360001</ele>
<time>2021-04-07T08:00:06.357Z</time>
</trkpt>
<trkpt lat="30.8190100" lon="34.9441300">
<ele>198.830002</ele>
<time>2021-04-07T08:00:06.357Z</time>
</trkpt>
<trkpt lat="30.8191300" lon="34.9439900">
<ele>199.300003</ele>
<time>2021-04-07T08:00:06.357Z</time>
</trkpt>
<trkpt lat="30.8192200" lon="34.9438700">
<ele>200.820007</ele>
<time>2021-04-07T08:00:06.357Z</time>
</trkpt>
<trkpt lat="30.8192500" lon="34.9438200">
<ele>201.500000</ele>
<time>2021-04-07T08:00:06.357Z</time>
</trkpt>
<trkpt lat="30.8193100" lon="34.9437300">
<ele>203.240005</ele>
<time>2021-04-07T08:00:06.357Z</time>
</trkpt>
<trkpt lat="30.8193100" lon="34.9437300">
<ele>203.240005</ele>
<time>2021-04-07T08:00:06.357Z</time>
</trkpt>
<trkpt lat="30.8193100" lon="34.9437300">
<ele>203.240005</ele>
<time>2021-04-07T08:00:06.357Z</time>
</trkpt>
<trkpt lat="30.8193100" lon="34.9437300">
<ele>203.240005</ele>
<time>2021-04-07T08:00:06.357Z</time>
</trkpt>
<trkpt lat="30.8193600" lon="34.9436500">
<ele>205.179993</ele>
<time>2021-04-07T08:00:06.357Z</time>
</trkpt>
<trkpt lat="30.8194200" lon="34.9436100">
<ele>207.300003</ele>
<time>2021-04-07T08:00:06.357Z</time>
</trkpt>
<trkpt lat="30.8194600" lon="34.9435200">
<ele>208.330002</ele>
<time>2021-04-07T08:00:06.357Z</time>
</trkpt>
<trkpt lat="30.8194600" lon="34.9433200">
<ele>209.009995</ele>
<time>2021-04-07T08:00:06.357Z</time>
</trkpt>
<trkpt lat="30.8194300" lon="34.9432700">
<ele>208.579987</ele>
<time>2021-04-07T08:00:06.357Z</time>
</trkpt>
<trkpt lat="30.8194500" lon="34.9432300">
<ele>209.009995</ele>
<time>2021-04-07T08:00:06.357Z</time>
</trkpt>
<trkpt lat="30.8194900" lon="34.9431200">
<ele>209.250000</ele>
<time>2021-04-07T08:00:06.357Z</time>
</trkpt>
<trkpt lat="30.8195200" lon="34.9430800">
<ele>209.500000</ele>
<time>2021-04-07T08:00:06.357Z</time>
</trkpt>
<trkpt lat="30.8195400" lon="34.9430500">
<ele>209.660004</ele>
<time>2021-04-07T08:00:06.357Z</time>
</trkpt>
<trkpt lat="30.8195900" lon="34.9430800">
<ele>209.960007</ele>
<time>2021-04-07T08:00:06.357Z</time>
</trkpt>
<trkpt lat="30.8196300" lon="34.9431000">
<ele>210.119995</ele>
<time>2021-04-07T08:00:06.357Z</time>
</trkpt>
<trkpt lat="30.8197500" lon="34.9431200">
<ele>210.439987</ele>
<time>2021-04-07T08:00:06.357Z</time>
</trkpt>
<trkpt lat="30.8199800" lon="34.9431100">
<ele>209.680008</ele>
<time>2021-04-07T08:00:06.357Z</time>
</trkpt>
<trkpt lat="30.8200400" lon="34.9431200">
<ele>209.539993</ele>
<time>2021-04-07T08:00:06.357Z</time>
</trkpt>
<trkpt lat="30.8202600" lon="34.9432100">
<ele>208.889999</ele>
<time>2021-04-07T08:00:06.357Z</time>
</trkpt>
<trkpt lat="30.8203300" lon="34.9432400">
<ele>209.300003</ele>
<time>2021-04-07T08:00:06.357Z</time>
</trkpt>
<trkpt lat="30.8203400" lon="34.9432600">
<ele>209.260010</ele>
<time>2021-04-07T08:00:06.357Z</time>
</trkpt>
<trkpt lat="30.8203500" lon="34.9432900">
<ele>209.130005</ele>
<time>2021-04-07T08:00:06.357Z</time>
</trkpt>
<trkpt lat="30.8203600" lon="34.9433100">
<ele>209.080002</ele>
<time>2021-04-07T08:00:06.357Z</time>
</trkpt>
<trkpt lat="30.8203700" lon="34.9433400">
<ele>209.000000</ele>
<time>2021-04-07T08:00:06.357Z</time>
</trkpt>
<trkpt lat="30.8203800" lon="34.9433700">
<ele>209.100006</ele>
<time>2021-04-07T08:00:06.357Z</time>
</trkpt>
<trkpt lat="30.8203900" lon="34.9434000">
<ele>209.210007</ele>
<time>2021-04-07T08:00:06.357Z</time>
</trkpt>
<trkpt lat="30.8203900" lon="34.9434300">
<ele>209.210007</ele>
<time>2021-04-07T08:00:06.357Z</time>
</trkpt>
<trkpt lat="30.8203900" lon="34.9434500">
<ele>209.210007</ele>
<time>2021-04-07T08:00:06.357Z</time>
</trkpt>
<trkpt lat="30.8203800" lon="34.9434800">
<ele>209.100006</ele>
<time>2021-04-07T08:00:06.357Z</time>
</trkpt>
<trkpt lat="30.8203700" lon="34.9435000">
<ele>209.000000</ele>
<time>2021-04-07T08:00:06.357Z</time>
</trkpt>
<trkpt lat="30.8203600" lon="34.9435200">
<ele>208.889999</ele>
<time>2021-04-07T08:00:06.357Z</time>
</trkpt>
<trkpt lat="30.8203700" lon="34.9435500">
<ele>209.000000</ele>
<time>2021-04-07T08:00:06.357Z</time>
</trkpt>
<trkpt lat="30.8203700" lon="34.9435800">
<ele>209.000000</ele>
<time>2021-04-07T08:00:06.357Z</time>
</trkpt>
<trkpt lat="30.8203800" lon="34.9436100">
<ele>209.100006</ele>
<time>2021-04-07T08:00:06.357Z</time>
</trkpt>
<trkpt lat="30.8204300" lon="34.9437300">
<ele>209.600006</ele>
<time>2021-04-07T08:00:06.357Z</time>
</trkpt>
<trkpt lat="30.8204300" lon="34.9438200">
<ele>209.569992</ele>
<time>2021-04-07T08:00:06.357Z</time>
</trkpt>
<trkpt lat="30.8205200" lon="34.9441600">
<ele>209.869995</ele>
<time>2021-04-07T08:00:06.357Z</time>
</trkpt>
<trkpt lat="30.8206600" lon="34.9448100">
<ele>215.449997</ele>
<time>2021-04-07T08:00:06.357Z</time>
</trkpt>
<trkpt lat="30.8207000" lon="34.9450300">
<ele>218.290009</ele>
<time>2021-04-07T08:00:06.357Z</time>
</trkpt>
<trkpt lat="30.8207600" lon="34.9452000">
<ele>220.040009</ele>
<time>2021-04-07T08:00:06.357Z</time>
</trkpt>
<trkpt lat="30.8208500" lon="34.9452100">
<ele>220.819992</ele>
<time>2021-04-07T08:00:06.357Z</time>
</trkpt>
<trkpt lat="30.8209500" lon="34.9452100">
<ele>221.180008</ele>
<time>2021-04-07T08:00:06.357Z</time>
</trkpt>
<trkpt lat="30.8210400" lon="34.9452900">
<ele>221.650009</ele>
<time>2021-04-07T08:00:06.357Z</time>
</trkpt>
<trkpt lat="30.8211300" lon="34.9455300">
<ele>219.199997</ele>
<time>2021-04-07T08:00:06.357Z</time>
</trkpt>
<trkpt lat="30.8213200" lon="34.9458100">
<ele>217.559998</ele>
<time>2021-04-07T08:00:06.357Z</time>
</trkpt>
<trkpt lat="30.8216900" lon="34.9466400">
<ele>218.659988</ele>
<time>2021-04-07T08:00:06.357Z</time>
</trkpt>
<trkpt lat="30.8217700" lon="34.9468100">
<ele>217.699997</ele>
<time>2021-04-07T08:00:06.357Z</time>
</trkpt>
<trkpt lat="30.8218900" lon="34.9469500">
<ele>216.600006</ele>
<time>2021-04-07T08:00:06.357Z</time>
</trkpt>
<trkpt lat="30.8220800" lon="34.9472400">
<ele>216.510010</ele>
<time>2021-04-07T08:00:06.357Z</time>
</trkpt>
<trkpt lat="30.8222100" lon="34.9475700">
<ele>217.459991</ele>
<time>2021-04-07T08:00:06.357Z</time>
</trkpt>
<trkpt lat="30.8223500" lon="34.9477200">
<ele>218.679993</ele>
<time>2021-04-07T08:00:06.357Z</time>
</trkpt>
<trkpt lat="30.8225800" lon="34.9481000">
<ele>222.270004</ele>
<time>2021-04-07T08:00:06.357Z</time>
</trkpt>
<trkpt lat="30.8227200" lon="34.9485100">
<ele>223.369995</ele>
<time>2021-04-07T08:00:06.357Z</time>
</trkpt>
<trkpt lat="30.8228600" lon="34.9487400">
<ele>222.500000</ele>
<time>2021-04-07T08:00:06.357Z</time>
</trkpt>
<trkpt lat="30.8232700" lon="34.9491200">
<ele>223.000000</ele>
<time>2021-04-07T08:00:06.357Z</time>
</trkpt>
<trkpt lat="30.8233000" lon="34.9492800">
<ele>224.439987</ele>
<time>2021-04-07T08:00:06.357Z</time>
</trkpt>
<trkpt lat="30.8232400" lon="34.9494600">
<ele>225.599991</ele>
<time>2021-04-07T08:00:06.357Z</time>
</trkpt>
<trkpt lat="30.8233500" lon="34.9495500">
<ele>226.970001</ele>
<time>2021-04-07T08:00:06.357Z</time>
</trkpt>
<trkpt lat="30.8234100" lon="34.9497500">
<ele>227.850006</ele>
<time>2021-04-07T08:00:06.357Z</time>
</trkpt>
<trkpt lat="30.8235500" lon="34.9498600">
<ele>230.300003</ele>
<time>2021-04-07T08:00:06.357Z</time>
</trkpt>
<trkpt lat="30.8237300" lon="34.9498500">
<ele>232.480011</ele>
<time>2021-04-07T08:00:06.357Z</time>
</trkpt>
<trkpt lat="30.8239300" lon="34.9499700">
<ele>231.629990</ele>
<time>2021-04-07T08:00:06.357Z</time>
</trkpt>
<trkpt lat="30.8240700" lon="34.9500400">
<ele>227.919998</ele>
<time>2021-04-07T08:00:06.357Z</time>
</trkpt>
<trkpt lat="30.8243100" lon="34.9500200">
<ele>228.080002</ele>
<time>2021-04-07T08:00:06.357Z</time>
</trkpt>
<trkpt lat="30.8244000" lon="34.9500600">
<ele>227.900009</ele>
<time>2021-04-07T08:00:06.357Z</time>
</trkpt>
<trkpt lat="30.8244700" lon="34.9501600">
<ele>225.120010</ele>
<time>2021-04-07T08:00:06.357Z</time>
</trkpt>
<trkpt lat="30.8245900" lon="34.9502400">
<ele>221.520004</ele>
<time>2021-04-07T08:00:06.357Z</time>
</trkpt>
<trkpt lat="30.8247800" lon="34.9501700">
<ele>222.769989</ele>
<time>2021-04-07T08:00:06.357Z</time>
</trkpt>
<trkpt lat="30.8249900" lon="34.9501700">
<ele>225.209991</ele>
<time>2021-04-07T08:00:06.357Z</time>
</trkpt>
<trkpt lat="30.8249900" lon="34.9501700">
<ele>225.209991</ele>
<time>2021-04-07T08:00:06.357Z</time>
</trkpt>
<trkpt lat="30.8251800" lon="34.9501800">
<ele>225.949997</ele>
<time>2021-04-07T08:00:06.357Z</time>
</trkpt>
<trkpt lat="30.8255300" lon="34.9499800">
<ele>234.119995</ele>
<time>2021-04-07T08:00:06.357Z</time>
</trkpt>
<trkpt lat="30.8258300" lon="34.9499300">
<ele>240.960007</ele>
<time>2021-04-07T08:00:06.357Z</time>
</trkpt>
<trkpt lat="30.8260100" lon="34.9498500">
<ele>243.559998</ele>
<time>2021-04-07T08:00:06.357Z</time>
</trkpt>
<trkpt lat="30.8261500" lon="34.9497900">
<ele>244.460007</ele>
<time>2021-04-07T08:00:06.357Z</time>
</trkpt>
<trkpt lat="30.8265500" lon="34.9499900">
<ele>239.970001</ele>
<time>2021-04-07T08:00:06.357Z</time>
</trkpt>
<trkpt lat="30.8266900" lon="34.9500400">
<ele>238.739990</ele>
<time>2021-04-07T08:00:06.357Z</time>
</trkpt>
<trkpt lat="30.8269600" lon="34.9499000">
<ele>239.279999</ele>
<time>2021-04-07T08:00:06.357Z</time>
</trkpt>
<trkpt lat="30.8273200" lon="34.9500600">
<ele>234.339996</ele>
<time>2021-04-07T08:00:06.357Z</time>
</trkpt>
<trkpt lat="30.8275400" lon="34.9501100">
<ele>235.160004</ele>
<time>2021-04-07T08:00:06.357Z</time>
</trkpt>
<trkpt lat="30.8277200" lon="34.9503700">
<ele>234.450012</ele>
<time>2021-04-07T08:00:06.357Z</time>
</trkpt>
<trkpt lat="30.8279200" lon="34.9504600">
<ele>233.179993</ele>
<time>2021-04-07T08:00:06.357Z</time>
</trkpt>
<trkpt lat="30.8279200" lon="34.9505900">
<ele>231.979996</ele>
<time>2021-04-07T08:00:06.357Z</time>
</trkpt>
<trkpt lat="30.8279700" lon="34.9507700">
<ele>231.619995</ele>
<time>2021-04-07T08:00:06.357Z</time>
</trkpt>
<trkpt lat="30.8280000" lon="34.9508000">
<ele>231.399994</ele>
<time>2021-04-07T08:00:06.357Z</time>
</trkpt>
<trkpt lat="30.8280200" lon="34.9508300">
<ele>231.260010</ele>
<time>2021-04-07T08:00:06.357Z</time>
</trkpt>
<trkpt lat="30.8280400" lon="34.9508500">
<ele>231.159988</ele>
<time>2021-04-07T08:00:06.357Z</time>
</trkpt>
<trkpt lat="30.8280900" lon="34.9508900">
<ele>231.150009</ele>
<time>2021-04-07T08:00:06.357Z</time>
</trkpt>
<trkpt lat="30.8281200" lon="34.9509000">
<ele>231.130005</ele>
<time>2021-04-07T08:00:06.357Z</time>
</trkpt>
<trkpt lat="30.8281800" lon="34.9509300">
<ele>231.039993</ele>
<time>2021-04-07T08:00:06.357Z</time>
</trkpt>
<trkpt lat="30.8282400" lon="34.9509700">
<ele>230.839996</ele>
<time>2021-04-07T08:00:06.357Z</time>
</trkpt>
<trkpt lat="30.8282900" lon="34.9510100">
<ele>230.559998</ele>
<time>2021-04-07T08:00:06.357Z</time>
</trkpt>
<trkpt lat="30.8283200" lon="34.9510300">
<ele>230.360001</ele>
<time>2021-04-07T08:00:06.357Z</time>
</trkpt>
<trkpt lat="30.8283400" lon="34.9510600">
<ele>230.190002</ele>
<time>2021-04-07T08:00:06.357Z</time>
</trkpt>
<trkpt lat="30.8283800" lon="34.9510900">
<ele>230.210007</ele>
<time>2021-04-07T08:00:06.357Z</time>
</trkpt>
<trkpt lat="30.8284100" lon="34.9511000">
<ele>230.280014</ele>
<time>2021-04-07T08:00:06.357Z</time>
</trkpt>
<trkpt lat="30.8284400" lon="34.9511100">
<ele>230.380005</ele>
<time>2021-04-07T08:00:06.357Z</time>
</trkpt>
<trkpt lat="30.8284700" lon="34.9511600">
<ele>230.049988</ele>
<time>2021-04-07T08:00:06.357Z</time>
</trkpt>
<trkpt lat="30.8284800" lon="34.9512000">
<ele>229.720001</ele>
<time>2021-04-07T08:00:06.357Z</time>
</trkpt>
<trkpt lat="30.8284800" lon="34.9512400">
<ele>229.359985</ele>
<time>2021-04-07T08:00:06.357Z</time>
</trkpt>
<trkpt lat="30.8284800" lon="34.9512900">
<ele>228.899994</ele>
<time>2021-04-07T08:00:06.357Z</time>
</trkpt>
<trkpt lat="30.8284700" lon="34.9513300">
<ele>228.529999</ele>
<time>2021-04-07T08:00:06.357Z</time>
</trkpt>
<trkpt lat="30.8284500" lon="34.9513700">
<ele>228.160004</ele>
<time>2021-04-07T08:00:06.357Z</time>
</trkpt>
<trkpt lat="30.8284300" lon="34.9514000">
<ele>228.010010</ele>
<time>2021-04-07T08:00:06.357Z</time>
</trkpt>
<trkpt lat="30.8284000" lon="34.9514100">
<ele>228.020004</ele>
<time>2021-04-07T08:00:06.357Z</time>
</trkpt>
<trkpt lat="30.8283700" lon="34.9514300">
<ele>228.020004</ele>
<time>2021-04-07T08:00:06.357Z</time>
</trkpt>
<trkpt lat="30.8283400" lon="34.9514600">
<ele>228.010010</ele>
<time>2021-04-07T08:00:06.357Z</time>
</trkpt>
<trkpt lat="30.8283300" lon="34.9515000">
<ele>227.960007</ele>
<time>2021-04-07T08:00:06.357Z</time>
</trkpt>
<trkpt lat="30.8283300" lon="34.9515400">
<ele>227.960007</ele>
<time>2021-04-07T08:00:06.357Z</time>
</trkpt>
<trkpt lat="30.8283300" lon="34.9515800">
<ele>227.960007</ele>
<time>2021-04-07T08:00:06.357Z</time>
</trkpt>
<trkpt lat="30.8283400" lon="34.9516200">
<ele>228.020004</ele>
<time>2021-04-07T08:00:06.357Z</time>
</trkpt>
<trkpt lat="30.8283600" lon="34.9516600">
<ele>228.089996</ele>
<time>2021-04-07T08:00:06.357Z</time>
</trkpt>
<trkpt lat="30.8283800" lon="34.9517000">
<ele>228.370010</ele>
<time>2021-04-07T08:00:06.357Z</time>
</trkpt>
<trkpt lat="30.8284200" lon="34.9517400">
<ele>228.910004</ele>
<time>2021-04-07T08:00:06.357Z</time>
</trkpt>
<trkpt lat="30.8284600" lon="34.9517600">
<ele>229.400009</ele>
<time>2021-04-07T08:00:06.357Z</time>
</trkpt>
<trkpt lat="30.8285300" lon="34.9517700">
<ele>230.130005</ele>
<time>2021-04-07T08:00:06.357Z</time>
</trkpt>
<trkpt lat="30.8285700" lon="34.9517900">
<ele>230.809998</ele>
<time>2021-04-07T08:00:06.357Z</time>
</trkpt>
<trkpt lat="30.8286100" lon="34.9518000">
<ele>231.389999</ele>
<time>2021-04-07T08:00:06.357Z</time>
</trkpt>
<trkpt lat="30.8286500" lon="34.9518200">
<ele>232.540009</ele>
<time>2021-04-07T08:00:06.357Z</time>
</trkpt>
<trkpt lat="30.8286700" lon="34.9518400">
<ele>233.179993</ele>
<time>2021-04-07T08:00:06.357Z</time>
</trkpt>
<trkpt lat="30.8287000" lon="34.9518700">
<ele>233.989990</ele>
<time>2021-04-07T08:00:06.357Z</time>
</trkpt>
<trkpt lat="30.8287200" lon="34.9518800">
<ele>234.349991</ele>
<time>2021-04-07T08:00:06.357Z</time>
</trkpt>
<trkpt lat="30.8287600" lon="34.9519000">
<ele>234.960007</ele>
<time>2021-04-07T08:00:06.357Z</time>
</trkpt>
<trkpt lat="30.8287900" lon="34.9519200">
<ele>235.300003</ele>
<time>2021-04-07T08:00:06.357Z</time>
</trkpt>
<trkpt lat="30.8288300" lon="34.9519400">
<ele>235.600006</ele>
<time>2021-04-07T08:00:06.357Z</time>
</trkpt>
<trkpt lat="30.8288700" lon="34.9519600">
<ele>235.650009</ele>
<time>2021-04-07T08:00:06.357Z</time>
</trkpt>
<trkpt lat="30.8288900" lon="34.9519900">
<ele>235.360001</ele>
<time>2021-04-07T08:00:06.357Z</time>
</trkpt>
<trkpt lat="30.8289300" lon="34.9520200">
<ele>235.650009</ele>
<time>2021-04-07T08:00:06.357Z</time>
</trkpt>
<trkpt lat="30.8289600" lon="34.9520400">
<ele>235.899994</ele>
<time>2021-04-07T08:00:06.357Z</time>
</trkpt>
<trkpt lat="30.8289900" lon="34.9520600">
<ele>236.160004</ele>
<time>2021-04-07T08:00:06.357Z</time>
</trkpt>
<trkpt lat="30.8290200" lon="34.9520800">
<ele>236.410004</ele>
<time>2021-04-07T08:00:06.357Z</time>
</trkpt>
<trkpt lat="30.8290500" lon="34.9521100">
<ele>236.520004</ele>
<time>2021-04-07T08:00:06.357Z</time>
</trkpt>
<trkpt lat="30.8290900" lon="34.9521500">
<ele>236.659988</ele>
<time>2021-04-07T08:00:06.357Z</time>
</trkpt>
<trkpt lat="30.8291200" lon="34.9521700">
<ele>236.910004</ele>
<time>2021-04-07T08:00:06.357Z</time>
</trkpt>
<trkpt lat="30.8291500" lon="34.9522000">
<ele>237.020004</ele>
<time>2021-04-07T08:00:06.357Z</time>
</trkpt>
<trkpt lat="30.8291800" lon="34.9522300">
<ele>237.539993</ele>
<time>2021-04-07T08:00:06.357Z</time>
</trkpt>
<trkpt lat="30.8292000" lon="34.9522600">
<ele>238.099991</ele>
<time>2021-04-07T08:00:06.357Z</time>
</trkpt>
<trkpt lat="30.8292200" lon="34.9522900">
<ele>238.619995</ele>
<time>2021-04-07T08:00:06.357Z</time>
</trkpt>
<trkpt lat="30.8292400" lon="34.9523100">
<ele>239.229996</ele>
<time>2021-04-07T08:00:06.357Z</time>
</trkpt>
<trkpt lat="30.8292600" lon="34.9523500">
<ele>239.520004</ele>
<time>2021-04-07T08:00:06.357Z</time>
</trkpt>
<trkpt lat="30.8292900" lon="34.9523800">
<ele>240.309998</ele>
<time>2021-04-07T08:00:06.357Z</time>
</trkpt>
<trkpt lat="30.8293100" lon="34.9524200">
<ele>240.469986</ele>
<time>2021-04-07T08:00:06.357Z</time>
</trkpt>
<trkpt lat="30.8293400" lon="34.9524600">
<ele>240.939987</ele>
<time>2021-04-07T08:00:06.357Z</time>
</trkpt>
<trkpt lat="30.8293500" lon="34.9525000">
<ele>240.599991</ele>
<time>2021-04-07T08:00:06.357Z</time>
</trkpt>
<trkpt lat="30.8293700" lon="34.9525300">
<ele>240.630005</ele>
<time>2021-04-07T08:00:06.357Z</time>
</trkpt>
<trkpt lat="30.8293900" lon="34.9525700">
<ele>240.319992</ele>
<time>2021-04-07T08:00:06.357Z</time>
</trkpt>
<trkpt lat="30.8294100" lon="34.9526100">
<ele>239.890015</ele>
<time>2021-04-07T08:00:06.357Z</time>
</trkpt>
<trkpt lat="30.8294300" lon="34.9526600">
<ele>239.050003</ele>
<time>2021-04-07T08:00:06.357Z</time>
</trkpt>
<trkpt lat="30.8294500" lon="34.9527000">
<ele>238.560013</ele>
<time>2021-04-07T08:00:06.357Z</time>
</trkpt>
<trkpt lat="30.8294800" lon="34.9527400">
<ele>239.140015</ele>
<time>2021-04-07T08:00:06.357Z</time>
</trkpt>
<trkpt lat="30.8295000" lon="34.9527700">
<ele>239.419998</ele>
<time>2021-04-07T08:00:06.357Z</time>
</trkpt>
<trkpt lat="30.8295200" lon="34.9528000">
<ele>239.919998</ele>
<time>2021-04-07T08:00:06.357Z</time>
</trkpt>
<trkpt lat="30.8295300" lon="34.9528300">
<ele>239.890015</ele>
<time>2021-04-07T08:00:06.357Z</time>
</trkpt>
<trkpt lat="30.8295400" lon="34.9528600">
<ele>239.809998</ele>
<time>2021-04-07T08:00:06.357Z</time>
</trkpt>
<trkpt lat="30.8295500" lon="34.9529000">
<ele>239.480011</ele>
<time>2021-04-07T08:00:06.357Z</time>
</trkpt>
<trkpt lat="30.8295600" lon="34.9529300">
<ele>239.319992</ele>
<time>2021-04-07T08:00:06.357Z</time>
</trkpt>
<trkpt lat="30.8295700" lon="34.9529600">
<ele>239.130005</ele>
<time>2021-04-07T08:00:06.357Z</time>
</trkpt>
<trkpt lat="30.8295800" lon="34.9529900">
<ele>238.889999</ele>
<time>2021-04-07T08:00:06.357Z</time>
</trkpt>
<trkpt lat="30.8295900" lon="34.9530200">
<ele>238.610001</ele>
<time>2021-04-07T08:00:06.357Z</time>
</trkpt>
<trkpt lat="30.8296200" lon="34.9530700">
<ele>238.909988</ele>
<time>2021-04-07T08:00:06.357Z</time>
</trkpt>
<trkpt lat="30.8296300" lon="34.9531300">
<ele>239.079987</ele>
<time>2021-04-07T08:00:06.357Z</time>
</trkpt>
<trkpt lat="30.8296400" lon="34.9531700">
<ele>239.290009</ele>
<time>2021-04-07T08:00:06.357Z</time>
</trkpt>
<trkpt lat="30.8296500" lon="34.9532100">
<ele>239.460007</ele>
<time>2021-04-07T08:00:06.357Z</time>
</trkpt>
<trkpt lat="30.8296300" lon="34.9533300">
<ele>238.360001</ele>
<time>2021-04-07T08:00:06.357Z</time>
</trkpt>
<trkpt lat="30.8296000" lon="34.9534500">
<ele>236.820007</ele>
<time>2021-04-07T08:00:06.357Z</time>
</trkpt>
<trkpt lat="30.8296000" lon="34.9535000">
<ele>236.539993</ele>
<time>2021-04-07T08:00:06.357Z</time>
</trkpt>
<trkpt lat="30.8296000" lon="34.9535400">
<ele>236.319992</ele>
<time>2021-04-07T08:00:06.357Z</time>
</trkpt>
<trkpt lat="30.8295900" lon="34.9535900">
<ele>235.780014</ele>
<time>2021-04-07T08:00:06.357Z</time>
</trkpt>
<trkpt lat="30.8295900" lon="34.9536400">
<ele>235.710007</ele>
<time>2021-04-07T08:00:06.357Z</time>
</trkpt>
<trkpt lat="30.8296000" lon="34.9537000">
<ele>236.019989</ele>
<time>2021-04-07T08:00:06.357Z</time>
</trkpt>
<trkpt lat="30.8296100" lon="34.9537600">
<ele>236.290009</ele>
<time>2021-04-07T08:00:06.357Z</time>
</trkpt>
<trkpt lat="30.8296200" lon="34.9538300">
<ele>236.509995</ele>
<time>2021-04-07T08:00:06.357Z</time>
</trkpt>
<trkpt lat="30.8296400" lon="34.9538900">
<ele>236.830002</ele>
<time>2021-04-07T08:00:06.357Z</time>
</trkpt>
<trkpt lat="30.8296700" lon="34.9539400">
<ele>237.800003</ele>
<time>2021-04-07T08:00:06.357Z</time>
</trkpt>
<trkpt lat="30.8297000" lon="34.9539900">
<ele>238.770004</ele>
<time>2021-04-07T08:00:06.357Z</time>
</trkpt>
<trkpt lat="30.8297400" lon="34.9540300">
<ele>239.940002</ele>
<time>2021-04-07T08:00:06.357Z</time>
</trkpt>
<trkpt lat="30.8297800" lon="34.9540600">
<ele>241.130005</ele>
<time>2021-04-07T08:00:06.357Z</time>
</trkpt>
<trkpt lat="30.8298100" lon="34.9540900">
<ele>242.009995</ele>
<time>2021-04-07T08:00:06.357Z</time>
</trkpt>
<trkpt lat="30.8298400" lon="34.9541200">
<ele>242.830002</ele>
<time>2021-04-07T08:00:06.357Z</time>
</trkpt>
<trkpt lat="30.8298600" lon="34.9541400">
<ele>243.330002</ele>
<time>2021-04-07T08:00:06.357Z</time>
</trkpt>
<trkpt lat="30.8298800" lon="34.9541900">
<ele>243.729996</ele>
<time>2021-04-07T08:00:06.357Z</time>
</trkpt>
<trkpt lat="30.8299000" lon="34.9542300">
<ele>243.839996</ele>
<time>2021-04-07T08:00:06.357Z</time>
</trkpt>
<trkpt lat="30.8299300" lon="34.9542800">
<ele>243.930008</ele>
<time>2021-04-07T08:00:06.357Z</time>
</trkpt>
<trkpt lat="30.8299600" lon="34.9543500">
<ele>243.679993</ele>
<time>2021-04-07T08:00:06.357Z</time>
</trkpt>
<trkpt lat="30.8299900" lon="34.9544200">
<ele>243.220001</ele>
<time>2021-04-07T08:00:06.357Z</time>
</trkpt>
<trkpt lat="30.8300300" lon="34.9544800">
<ele>242.930008</ele>
<time>2021-04-07T08:00:06.357Z</time>
</trkpt>
<trkpt lat="30.8300800" lon="34.9545200">
<ele>242.970001</ele>
<time>2021-04-07T08:00:06.357Z</time>
</trkpt>
<trkpt lat="30.8301300" lon="34.9545600">
<ele>242.959991</ele>
<time>2021-04-07T08:00:06.357Z</time>
</trkpt>
<trkpt lat="30.8301600" lon="34.9545800">
<ele>242.979996</ele>
<time>2021-04-07T08:00:06.357Z</time>
</trkpt>
<trkpt lat="30.8301800" lon="34.9546000">
<ele>242.900009</ele>
<time>2021-04-07T08:00:06.357Z</time>
</trkpt>
<trkpt lat="30.8302100" lon="34.9546200">
<ele>242.889999</ele>
<time>2021-04-07T08:00:06.357Z</time>
</trkpt>
<trkpt lat="30.8302500" lon="34.9546400">
<ele>242.950012</ele>
<time>2021-04-07T08:00:06.357Z</time>
</trkpt>
<trkpt lat="30.8303000" lon="34.9546700">
<ele>243.019989</ele>
<time>2021-04-07T08:00:06.357Z</time>
</trkpt>
<trkpt lat="30.8303400" lon="34.9546900">
<ele>243.189987</ele>
<time>2021-04-07T08:00:06.357Z</time>
</trkpt>
<trkpt lat="30.8303900" lon="34.9547100">
<ele>243.420013</ele>
<time>2021-04-07T08:00:06.357Z</time>
</trkpt>
<trkpt lat="30.8304400" lon="34.9547500">
<ele>243.389999</ele>
<time>2021-04-07T08:00:06.357Z</time>
</trkpt>
<trkpt lat="30.8304900" lon="34.9547800">
<ele>243.509995</ele>
<time>2021-04-07T08:00:06.357Z</time>
</trkpt>
<trkpt lat="30.8305600" lon="34.9548100">
<ele>243.720001</ele>
<time>2021-04-07T08:00:06.357Z</time>
</trkpt>
<trkpt lat="30.8306100" lon="34.9548500">
<ele>242.820007</ele>
<time>2021-04-07T08:00:06.357Z</time>
</trkpt>
<trkpt lat="30.8306500" lon="34.9548800">
<ele>241.910004</ele>
<time>2021-04-07T08:00:06.357Z</time>
</trkpt>
<trkpt lat="30.8306900" lon="34.9549000">
<ele>241.069992</ele>
<time>2021-04-07T08:00:06.357Z</time>
</trkpt>
<trkpt lat="30.8307300" lon="34.9549200">
<ele>240.100006</ele>
<time>2021-04-07T08:00:06.357Z</time>
</trkpt>
<trkpt lat="30.8307700" lon="34.9549300">
<ele>239.319992</ele>
<time>2021-04-07T08:00:06.357Z</time>
</trkpt>
<trkpt lat="30.8308000" lon="34.9549300">
<ele>238.940002</ele>
<time>2021-04-07T08:00:06.357Z</time>
</trkpt>
<trkpt lat="30.8308500" lon="34.9549200">
<ele>238.550003</ele>
<time>2021-04-07T08:00:06.357Z</time>
</trkpt>
<trkpt lat="30.8308900" lon="34.9549100">
<ele>238.150009</ele>
<time>2021-04-07T08:00:06.357Z</time>
</trkpt>
<trkpt lat="30.8309300" lon="34.9549100">
<ele>237.380005</ele>
<time>2021-04-07T08:00:06.357Z</time>
</trkpt>
<trkpt lat="30.8309700" lon="34.9548900">
<ele>237.400009</ele>
<time>2021-04-07T08:00:06.357Z</time>
</trkpt>
<trkpt lat="30.8310200" lon="34.9548600">
<ele>237.689987</ele>
<time>2021-04-07T08:00:06.357Z</time>
</trkpt>
<trkpt lat="30.8310800" lon="34.9548300">
<ele>237.879990</ele>
<time>2021-04-07T08:00:06.357Z</time>
</trkpt>
<trkpt lat="30.8311400" lon="34.9548100">
<ele>237.680008</ele>
<time>2021-04-07T08:00:06.357Z</time>
</trkpt>
<trkpt lat="30.8311800" lon="34.9547900">
<ele>237.770004</ele>
<time>2021-04-07T08:00:06.357Z</time>
</trkpt>
<trkpt lat="30.8312100" lon="34.9547700">
<ele>237.980011</ele>
<time>2021-04-07T08:00:06.357Z</time>
</trkpt>
<trkpt lat="30.8312600" lon="34.9547400">
<ele>238.119995</ele>
<time>2021-04-07T08:00:06.357Z</time>
</trkpt>
<trkpt lat="30.8312800" lon="34.9547200">
<ele>238.470001</ele>
<time>2021-04-07T08:00:06.357Z</time>
</trkpt>
<trkpt lat="30.8313200" lon="34.9547000">
<ele>238.629990</ele>
<time>2021-04-07T08:00:06.357Z</time>
</trkpt>
<trkpt lat="30.8313600" lon="34.9546700">
<ele>239.279999</ele>
<time>2021-04-07T08:00:06.357Z</time>
</trkpt>
<trkpt lat="30.8313900" lon="34.9546300">
<ele>240.640015</ele>
<time>2021-04-07T08:00:06.357Z</time>
</trkpt>
<trkpt lat="30.8314100" lon="34.9546100">
<ele>241.490005</ele>
<time>2021-04-07T08:00:06.357Z</time>
</trkpt>
<trkpt lat="30.8314400" lon="34.9545900">
<ele>242.220001</ele>
<time>2021-04-07T08:00:06.357Z</time>
</trkpt>
<trkpt lat="30.8314600" lon="34.9545600">
<ele>243.470001</ele>
<time>2021-04-07T08:00:06.357Z</time>
</trkpt>
<trkpt lat="30.8314900" lon="34.9545200">
<ele>245.029999</ele>
<time>2021-04-07T08:00:06.357Z</time>
</trkpt>
<trkpt lat="30.8315200" lon="34.9544900">
<ele>246.050003</ele>
<time>2021-04-07T08:00:06.357Z</time>
</trkpt>
<trkpt lat="30.8315600" lon="34.9544600">
<ele>246.860001</ele>
<time>2021-04-07T08:00:06.357Z</time>
</trkpt>
<trkpt lat="30.8316000" lon="34.9544700">
<ele>245.880005</ele>
<time>2021-04-07T08:00:06.357Z</time>
</trkpt>
<trkpt lat="30.8316500" lon="34.9544800">
<ele>244.810013</ele>
<time>2021-04-07T08:00:06.357Z</time>
</trkpt>
<trkpt lat="30.8316800" lon="34.9544900">
<ele>244.179993</ele>
<time>2021-04-07T08:00:06.357Z</time>
</trkpt>
<trkpt lat="30.8317200" lon="34.9545100">
<ele>243.389999</ele>
<time>2021-04-07T08:00:06.357Z</time>
</trkpt>
<trkpt lat="30.8317400" lon="34.9545200">
<ele>243.029999</ele>
<time>2021-04-07T08:00:06.357Z</time>
</trkpt>
<trkpt lat="30.8317700" lon="34.9545400">
<ele>242.360001</ele>
<time>2021-04-07T08:00:06.357Z</time>
</trkpt>
<trkpt lat="30.8318100" lon="34.9545600">
<ele>241.770004</ele>
<time>2021-04-07T08:00:06.357Z</time>
</trkpt>
<trkpt lat="30.8318800" lon="34.9545900">
<ele>241.080002</ele>
<time>2021-04-07T08:00:06.357Z</time>
</trkpt>
<trkpt lat="30.8319300" lon="34.9546100">
<ele>240.759995</ele>
<time>2021-04-07T08:00:06.357Z</time>
</trkpt>
<trkpt lat="30.8320000" lon="34.9546300">
<ele>240.389999</ele>
<time>2021-04-07T08:00:06.357Z</time>
</trkpt>
<trkpt lat="30.8320600" lon="34.9546400">
<ele>240.290009</ele>
<time>2021-04-07T08:00:06.357Z</time>
</trkpt>
<trkpt lat="30.8321100" lon="34.9546600">
<ele>240.089996</ele>
<time>2021-04-07T08:00:06.357Z</time>
</trkpt>
<trkpt lat="30.8321600" lon="34.9546700">
<ele>240.139999</ele>
<time>2021-04-07T08:00:06.357Z</time>
</trkpt>
<trkpt lat="30.8322000" lon="34.9546800">
<ele>240.199997</ele>
<time>2021-04-07T08:00:06.357Z</time>
</trkpt>
<trkpt lat="30.8322400" lon="34.9547000">
<ele>240.089996</ele>
<time>2021-04-07T08:00:06.357Z</time>
</trkpt>
<trkpt lat="30.8322800" lon="34.9547100">
<ele>239.869995</ele>
<time>2021-04-07T08:00:06.357Z</time>
</trkpt>
<trkpt lat="30.8323100" lon="34.9547400">
<ele>239.789993</ele>
<time>2021-04-07T08:00:06.357Z</time>
</trkpt>
<trkpt lat="30.8325400" lon="34.9548400">
<ele>240.069992</ele>
<time>2021-04-07T08:00:06.357Z</time>
</trkpt>
<trkpt lat="30.8325600" lon="34.9548400">
<ele>239.959991</ele>
<time>2021-04-07T08:00:06.357Z</time>
</trkpt>
<trkpt lat="30.8325600" lon="34.9548400">
<ele>239.959991</ele>
<time>2021-04-07T08:00:06.357Z</time>
</trkpt>
<trkpt lat="30.8325600" lon="34.9548400">
<ele>239.959991</ele>
<time>2021-04-07T08:00:06.357Z</time>
</trkpt>
<trkpt lat="30.8325600" lon="34.9548400">
<ele>239.959991</ele>
<time>2021-04-07T08:00:06.357Z</time>
</trkpt>
<trkpt lat="30.8328500" lon="34.9548100">
<ele>239.520004</ele>
<time>2021-04-07T08:00:06.357Z</time>
</trkpt>
<trkpt lat="30.8330800" lon="34.9549300">
<ele>241.529999</ele>
<time>2021-04-07T08:00:06.357Z</time>
</trkpt>
<trkpt lat="30.8332900" lon="34.9556700">
<ele>240.409988</ele>
<time>2021-04-07T08:00:06.357Z</time>
</trkpt>
<trkpt lat="30.8332700" lon="34.9560000">
<ele>239.809998</ele>
<time>2021-04-07T08:00:06.357Z</time>
</trkpt>
<trkpt lat="30.8332700" lon="34.9560000">
<ele>239.809998</ele>
<time>2021-04-07T08:00:06.357Z</time>
</trkpt>
<trkpt lat="30.8332700" lon="34.9560200">
<ele>239.770004</ele>
<time>2021-04-07T08:00:06.357Z</time>
</trkpt>
<trkpt lat="30.8333100" lon="34.9562500">
<ele>239.419998</ele>
<time>2021-04-07T08:00:06.357Z</time>
</trkpt>
<trkpt lat="30.8332800" lon="34.9564000">
<ele>240.720001</ele>
<time>2021-04-07T08:00:06.357Z</time>
</trkpt>
<trkpt lat="30.8332400" lon="34.9567400">
<ele>245.059998</ele>
<time>2021-04-07T08:00:06.357Z</time>
</trkpt>
<trkpt lat="30.8331900" lon="34.9570600">
<ele>249.149994</ele>
<time>2021-04-07T08:00:06.357Z</time>
</trkpt>
<trkpt lat="30.8332300" lon="34.9573300">
<ele>251.139999</ele>
<time>2021-04-07T08:00:06.357Z</time>
</trkpt>
<trkpt lat="30.8333500" lon="34.9575200">
<ele>252.339996</ele>
<time>2021-04-07T08:00:06.357Z</time>
</trkpt>
<trkpt lat="30.8333800" lon="34.9579200">
<ele>251.160004</ele>
<time>2021-04-07T08:00:06.357Z</time>
</trkpt>
<trkpt lat="30.8335700" lon="34.9580800">
<ele>253.370010</ele>
<time>2021-04-07T08:00:06.357Z</time>
</trkpt>
<trkpt lat="30.8336300" lon="34.9581500">
<ele>254.019989</ele>
<time>2021-04-07T08:00:06.357Z</time>
</trkpt>
<trkpt lat="30.8336900" lon="34.9583800">
<ele>254.709991</ele>
<time>2021-04-07T08:00:06.357Z</time>
</trkpt>
<trkpt lat="30.8336400" lon="34.9584400">
<ele>254.870010</ele>
<time>2021-04-07T08:00:06.357Z</time>
</trkpt>
<trkpt lat="30.8336400" lon="34.9584400">
<ele>254.870010</ele>
<time>2021-04-07T08:00:06.357Z</time>
</trkpt>
<trkpt lat="30.8336900" lon="34.9583800">
<ele>254.709991</ele>
<time>2021-04-07T08:00:06.357Z</time>
</trkpt>
<trkpt lat="30.8336300" lon="34.9581500">
<ele>254.019989</ele>
<time>2021-04-07T08:00:06.357Z</time>
</trkpt>
<trkpt lat="30.8335700" lon="34.9580800">
<ele>253.370010</ele>
<time>2021-04-07T08:00:06.357Z</time>
</trkpt>
<trkpt lat="30.8333800" lon="34.9579200">
<ele>251.160004</ele>
<time>2021-04-07T08:00:06.357Z</time>
</trkpt>
<trkpt lat="30.8333500" lon="34.9575200">
<ele>252.339996</ele>
<time>2021-04-07T08:00:06.357Z</time>
</trkpt>
<trkpt lat="30.8332300" lon="34.9573300">
<ele>251.139999</ele>
<time>2021-04-07T08:00:06.357Z</time>
</trkpt>
<trkpt lat="30.8331900" lon="34.9570600">
<ele>249.149994</ele>
<time>2021-04-07T08:00:06.357Z</time>
</trkpt>
<trkpt lat="30.8332400" lon="34.9567400">
<ele>245.059998</ele>
<time>2021-04-07T08:00:06.357Z</time>
</trkpt>
<trkpt lat="30.8334600" lon="34.9564500">
<ele>247.580002</ele>
<time>2021-04-07T08:00:06.357Z</time>
</trkpt>
<trkpt lat="30.8336300" lon="34.9562600">
<ele>252.179993</ele>
<time>2021-04-07T08:00:06.357Z</time>
</trkpt>
<trkpt lat="30.8337000" lon="34.9561100">
<ele>251.879990</ele>
<time>2021-04-07T08:00:06.357Z</time>
</trkpt>
<trkpt lat="30.8337100" lon="34.9561200">
<ele>252.329987</ele>
<time>2021-04-07T08:00:06.357Z</time>
</trkpt>
<trkpt lat="30.8337100" lon="34.9561200">
<ele>252.329987</ele>
<time>2021-04-07T08:00:06.357Z</time>
</trkpt>
<trkpt lat="30.8337100" lon="34.9561200">
<ele>252.329987</ele>
<time>2021-04-07T08:00:06.357Z</time>
</trkpt>
<trkpt lat="30.8337500" lon="34.9561300">
<ele>253.739990</ele>
<time>2021-04-07T08:00:06.357Z</time>
</trkpt>
<trkpt lat="30.8337900" lon="34.9562700">
<ele>256.549988</ele>
<time>2021-04-07T08:00:06.357Z</time>
</trkpt>
<trkpt lat="30.8338000" lon="34.9563500">
<ele>257.670013</ele>
<time>2021-04-07T08:00:06.357Z</time>
</trkpt>
<trkpt lat="30.8337200" lon="34.9566300">
<ele>260.880005</ele>
<time>2021-04-07T08:00:06.357Z</time>
</trkpt>
<trkpt lat="30.8336200" lon="34.9568500">
<ele>262.109985</ele>
<time>2021-04-07T08:00:06.357Z</time>
</trkpt>
<trkpt lat="30.8335800" lon="34.9569400">
<ele>261.600006</ele>
<time>2021-04-07T08:00:06.357Z</time>
</trkpt>
<trkpt lat="30.8335500" lon="34.9570500">
<ele>260.309998</ele>
<time>2021-04-07T08:00:06.357Z</time>
</trkpt>
<trkpt lat="30.8335900" lon="34.9572700">
<ele>260.889984</ele>
<time>2021-04-07T08:00:06.357Z</time>
</trkpt>
<trkpt lat="30.8338500" lon="34.9578500">
<ele>261.809998</ele>
<time>2021-04-07T08:00:06.357Z</time>
</trkpt>
<trkpt lat="30.8340100" lon="34.9579300">
<ele>266.369995</ele>
<time>2021-04-07T08:00:06.357Z</time>
</trkpt>
<trkpt lat="30.8341200" lon="34.9580400">
<ele>268.589996</ele>
<time>2021-04-07T08:00:06.357Z</time>
</trkpt>
<trkpt lat="30.8341800" lon="34.9581400">
<ele>268.049988</ele>
<time>2021-04-07T08:00:06.357Z</time>
</trkpt>
<trkpt lat="30.8342100" lon="34.9582300">
<ele>266.130005</ele>
<time>2021-04-07T08:00:06.357Z</time>
</trkpt>
<trkpt lat="30.8342200" lon="34.9583700">
<ele>263.470001</ele>
<time>2021-04-07T08:00:06.357Z</time>
</trkpt>
<trkpt lat="30.8342800" lon="34.9584100">
<ele>264.059998</ele>
<time>2021-04-07T08:00:06.357Z</time>
</trkpt>
<trkpt lat="30.8343100" lon="34.9584100">
<ele>264.410004</ele>
<time>2021-04-07T08:00:06.357Z</time>
</trkpt>
<trkpt lat="30.8343800" lon="34.9584900">
<ele>265.169983</ele>
<time>2021-04-07T08:00:06.357Z</time>
</trkpt>
<trkpt lat="30.8343800" lon="34.9584900">
<ele>265.169983</ele>
<time>2021-04-07T08:00:06.357Z</time>
</trkpt>
<trkpt lat="30.8343900" lon="34.9585000">
<ele>265.290009</ele>
<time>2021-04-07T08:00:06.357Z</time>
</trkpt>
<trkpt lat="30.8343600" lon="34.9586100">
<ele>264.790009</ele>
<time>2021-04-07T08:00:06.357Z</time>
</trkpt>
<trkpt lat="30.8344500" lon="34.9588400">
<ele>267.619995</ele>
<time>2021-04-07T08:00:06.357Z</time>
</trkpt>
<trkpt lat="30.8346600" lon="34.9591600">
<ele>268.839996</ele>
<time>2021-04-07T08:00:06.357Z</time>
</trkpt>
<trkpt lat="30.8348300" lon="34.9593200">
<ele>269.000000</ele>
<time>2021-04-07T08:00:06.357Z</time>
</trkpt>
<trkpt lat="30.8348300" lon="34.9593200">
<ele>269.000000</ele>
<time>2021-04-07T08:00:06.357Z</time>
</trkpt>
<trkpt lat="30.8348300" lon="34.9593200">
<ele>269.000000</ele>
<time>2021-04-07T08:00:06.357Z</time>
</trkpt>
<trkpt lat="30.8348500" lon="34.9593700">
<ele>269.329987</ele>
<time>2021-04-07T08:00:06.357Z</time>
</trkpt>
<trkpt lat="30.8352100" lon="34.9599200">
<ele>272.239990</ele>
<time>2021-04-07T08:00:06.357Z</time>
</trkpt>
<trkpt lat="30.8353500" lon="34.9600600">
<ele>270.920013</ele>
<time>2021-04-07T08:00:06.357Z</time>
</trkpt>
<trkpt lat="30.8357900" lon="34.9605500">
<ele>270.130005</ele>
<time>2021-04-07T08:00:06.357Z</time>
</trkpt>
<trkpt lat="30.8360000" lon="34.9608500">
<ele>270.799988</ele>
<time>2021-04-07T08:00:06.357Z</time>
</trkpt>
<trkpt lat="30.8360700" lon="34.9609700">
<ele>268.829987</ele>
<time>2021-04-07T08:00:06.357Z</time>
</trkpt>
<trkpt lat="30.8361400" lon="34.9611500">
<ele>265.529999</ele>
<time>2021-04-07T08:00:06.357Z</time>
</trkpt>
<trkpt lat="30.8363000" lon="34.9616000">
<ele>260.480011</ele>
<time>2021-04-07T08:00:06.357Z</time>
</trkpt>
<trkpt lat="30.8363300" lon="34.9618100">
<ele>260.110016</ele>
<time>2021-04-07T08:00:06.357Z</time>
</trkpt>
<trkpt lat="30.8363400" lon="34.9619700">
<ele>260.130005</ele>
<time>2021-04-07T08:00:06.357Z</time>
</trkpt>
<trkpt lat="30.8362800" lon="34.9624500">
<ele>259.860016</ele>
<time>2021-04-07T08:00:06.357Z</time>
</trkpt>
<trkpt lat="30.8363700" lon="34.9629100">
<ele>258.010010</ele>
<time>2021-04-07T08:00:06.357Z</time>
</trkpt>
<trkpt lat="30.8363900" lon="34.9635200">
<ele>256.369995</ele>
<time>2021-04-07T08:00:06.357Z</time>
</trkpt>
<trkpt lat="30.8364300" lon="34.9640800">
<ele>262.139984</ele>
<time>2021-04-07T08:00:06.357Z</time>
</trkpt>
<trkpt lat="30.8364200" lon="34.9643600">
<ele>264.619995</ele>
<time>2021-04-07T08:00:06.357Z</time>
</trkpt>
<trkpt lat="30.8364100" lon="34.9646900">
<ele>267.869995</ele>
<time>2021-04-07T08:00:06.357Z</time>
</trkpt>
<trkpt lat="30.8365000" lon="34.9649700">
<ele>269.559998</ele>
<time>2021-04-07T08:00:06.357Z</time>
</trkpt>
<trkpt lat="30.8365700" lon="34.9651000">
<ele>269.899994</ele>
<time>2021-04-07T08:00:06.357Z</time>
</trkpt>
<trkpt lat="30.8367300" lon="34.9652000">
<ele>272.019989</ele>
<time>2021-04-07T08:00:06.357Z</time>
</trkpt>
<trkpt lat="30.8369100" lon="34.9654500">
<ele>272.929993</ele>
<time>2021-04-07T08:00:06.357Z</time>
</trkpt>
<trkpt lat="30.8372200" lon="34.9656900">
<ele>268.540009</ele>
<time>2021-04-07T08:00:06.357Z</time>
</trkpt>
<trkpt lat="30.8376500" lon="34.9657800">
<ele>267.179993</ele>
<time>2021-04-07T08:00:06.357Z</time>
</trkpt>
<trkpt lat="30.8381000" lon="34.9657100">
<ele>271.429993</ele>
<time>2021-04-07T08:00:06.357Z</time>
</trkpt>
<trkpt lat="30.8385300" lon="34.9655400">
<ele>270.929993</ele>
<time>2021-04-07T08:00:06.357Z</time>
</trkpt>
<trkpt lat="30.8387700" lon="34.9653500">
<ele>265.970001</ele>
<time>2021-04-07T08:00:06.357Z</time>
</trkpt>
<trkpt lat="30.8388900" lon="34.9652400">
<ele>263.459991</ele>
<time>2021-04-07T08:00:06.357Z</time>
</trkpt>
<trkpt lat="30.8390600" lon="34.9650600">
<ele>261.830017</ele>
<time>2021-04-07T08:00:06.357Z</time>
</trkpt>
<trkpt lat="30.8391200" lon="34.9649600">
<ele>261.779999</ele>
<time>2021-04-07T08:00:06.357Z</time>
</trkpt>
<trkpt lat="30.8391400" lon="34.9649100">
<ele>261.959991</ele>
<time>2021-04-07T08:00:06.357Z</time>
</trkpt>
<trkpt lat="30.8393100" lon="34.9646500">
<ele>260.309998</ele>
<time>2021-04-07T08:00:06.357Z</time>
</trkpt>
<trkpt lat="30.8395300" lon="34.9643300">
<ele>257.779999</ele>
<time>2021-04-07T08:00:06.357Z</time>
</trkpt>
<trkpt lat="30.8397500" lon="34.9640500">
<ele>259.949982</ele>
<time>2021-04-07T08:00:06.357Z</time>
</trkpt>
<trkpt lat="30.8399400" lon="34.9638100">
<ele>260.589996</ele>
<time>2021-04-07T08:00:06.357Z</time>
</trkpt>
<trkpt lat="30.8399800" lon="34.9636900">
<ele>260.399994</ele>
<time>2021-04-07T08:00:06.357Z</time>
</trkpt>
<trkpt lat="30.8401200" lon="34.9636100">
<ele>262.600006</ele>
<time>2021-04-07T08:00:06.357Z</time>
</trkpt>
<trkpt lat="30.8406200" lon="34.9634400">
<ele>268.509979</ele>
<time>2021-04-07T08:00:06.357Z</time>
</trkpt>
<trkpt lat="30.8408900" lon="34.9633100">
<ele>267.170013</ele>
<time>2021-04-07T08:00:06.357Z</time>
</trkpt>
<trkpt lat="30.8413200" lon="34.9630800">
<ele>271.489990</ele>
<time>2021-04-07T08:00:06.357Z</time>
</trkpt>
<trkpt lat="30.8419100" lon="34.9627400">
<ele>268.989990</ele>
<time>2021-04-07T08:00:06.357Z</time>
</trkpt>
<trkpt lat="30.8423700" lon="34.9624900">
<ele>268.179993</ele>
<time>2021-04-07T08:00:06.357Z</time>
</trkpt>
<trkpt lat="30.8427700" lon="34.9624200">
<ele>274.609985</ele>
<time>2021-04-07T08:00:06.357Z</time>
</trkpt>
<trkpt lat="30.8430800" lon="34.9626800">
<ele>275.679993</ele>
<time>2021-04-07T08:00:06.357Z</time>
</trkpt>
<trkpt lat="30.8432100" lon="34.9630100">
<ele>274.289978</ele>
<time>2021-04-07T08:00:06.357Z</time>
</trkpt>
<trkpt lat="30.8431300" lon="34.9632200">
<ele>271.769989</ele>
<time>2021-04-07T08:00:06.357Z</time>
</trkpt>
<trkpt lat="30.8430200" lon="34.9636300">
<ele>265.940002</ele>
<time>2021-04-07T08:00:06.357Z</time>
</trkpt>
<trkpt lat="30.8429100" lon="34.9639500">
<ele>268.380005</ele>
<time>2021-04-07T08:00:06.357Z</time>
</trkpt>
<trkpt lat="30.8427800" lon="34.9641600">
<ele>267.110016</ele>
<time>2021-04-07T08:00:06.357Z</time>
</trkpt>
<trkpt lat="30.8427300" lon="34.9642500">
<ele>269.199982</ele>
<time>2021-04-07T08:00:06.357Z</time>
</trkpt>
<trkpt lat="30.8425700" lon="34.9645000">
<ele>273.600006</ele>
<time>2021-04-07T08:00:06.357Z</time>
</trkpt>
<trkpt lat="30.8423700" lon="34.9647900">
<ele>277.369995</ele>
<time>2021-04-07T08:00:06.357Z</time>
</trkpt>
<trkpt lat="30.8422400" lon="34.9650300">
<ele>278.140015</ele>
<time>2021-04-07T08:00:06.357Z</time>
</trkpt>
<trkpt lat="30.8420700" lon="34.9652700">
<ele>279.989990</ele>
<time>2021-04-07T08:00:06.357Z</time>
</trkpt>
<trkpt lat="30.8418300" lon="34.9656300">
<ele>280.920013</ele>
<time>2021-04-07T08:00:06.357Z</time>
</trkpt>
<trkpt lat="30.8417300" lon="34.9659300">
<ele>280.459991</ele>
<time>2021-04-07T08:00:06.357Z</time>
</trkpt>
<trkpt lat="30.8417200" lon="34.9663300">
<ele>280.839996</ele>
<time>2021-04-07T08:00:06.357Z</time>
</trkpt>
<trkpt lat="30.8416300" lon="34.9667000">
<ele>279.540009</ele>
<time>2021-04-07T08:00:06.357Z</time>
</trkpt>
<trkpt lat="30.8416300" lon="34.9669500">
<ele>279.660004</ele>
<time>2021-04-07T08:00:06.357Z</time>
</trkpt>
<trkpt lat="30.8417000" lon="34.9671900">
<ele>279.720001</ele>
<time>2021-04-07T08:00:06.357Z</time>
</trkpt>
<trkpt lat="30.8418700" lon="34.9675500">
<ele>283.239990</ele>
<time>2021-04-07T08:00:06.357Z</time>
</trkpt>
<trkpt lat="30.8419800" lon="34.9680700">
<ele>284.350006</ele>
<time>2021-04-07T08:00:06.357Z</time>
</trkpt>
<trkpt lat="30.8422100" lon="34.9687900">
<ele>287.410004</ele>
<time>2021-04-07T08:00:06.357Z</time>
</trkpt>
<trkpt lat="30.8422500" lon="34.9688800">
<ele>286.739990</ele>
<time>2021-04-07T08:00:06.357Z</time>
</trkpt>
<trkpt lat="30.8423000" lon="34.9690600">
<ele>285.369995</ele>
<time>2021-04-07T08:00:06.357Z</time>
</trkpt>
<trkpt lat="30.8425400" lon="34.9697600">
<ele>282.790009</ele>
<time>2021-04-07T08:00:06.357Z</time>
</trkpt>
<trkpt lat="30.8426500" lon="34.9702400">
<ele>285.800018</ele>
<time>2021-04-07T08:00:06.357Z</time>
</trkpt>
<trkpt lat="30.8429000" lon="34.9703700">
<ele>286.290009</ele>
<time>2021-04-07T08:00:06.357Z</time>
</trkpt>
<trkpt lat="30.8429800" lon="34.9706100">
<ele>285.860016</ele>
<time>2021-04-07T08:00:06.357Z</time>
</trkpt>
<trkpt lat="30.8430400" lon="34.9707600">
<ele>285.309998</ele>
<time>2021-04-07T08:00:06.357Z</time>
</trkpt>
<trkpt lat="30.8431200" lon="34.9710000">
<ele>286.619995</ele>
<time>2021-04-07T08:00:06.357Z</time>
</trkpt>
<trkpt lat="30.8433300" lon="34.9713300">
<ele>288.009979</ele>
<time>2021-04-07T08:00:06.357Z</time>
</trkpt>
<trkpt lat="30.8436600" lon="34.9714500">
<ele>286.789978</ele>
<time>2021-04-07T08:00:06.357Z</time>
</trkpt>
<trkpt lat="30.8438400" lon="34.9714900">
<ele>288.380005</ele>
<time>2021-04-07T08:00:06.357Z</time>
</trkpt>
<trkpt lat="30.8440300" lon="34.9715300">
<ele>290.540009</ele>
<time>2021-04-07T08:00:06.357Z</time>
</trkpt>
<trkpt lat="30.8443600" lon="34.9715800">
<ele>293.720001</ele>
<time>2021-04-07T08:00:06.357Z</time>
</trkpt>
<trkpt lat="30.8446400" lon="34.9717100">
<ele>295.670013</ele>
<time>2021-04-07T08:00:06.357Z</time>
</trkpt>
<trkpt lat="30.8449100" lon="34.9718500">
<ele>298.209991</ele>
<time>2021-04-07T08:00:06.357Z</time>
</trkpt>
<trkpt lat="30.8452700" lon="34.9720700">
<ele>298.850006</ele>
<time>2021-04-07T08:00:06.357Z</time>
</trkpt>
<trkpt lat="30.8456100" lon="34.9723100">
<ele>295.759979</ele>
<time>2021-04-07T08:00:06.357Z</time>
</trkpt>
<trkpt lat="30.8460100" lon="34.9725000">
<ele>292.460022</ele>
<time>2021-04-07T08:00:06.357Z</time>
</trkpt>
<trkpt lat="30.8463800" lon="34.9726100">
<ele>289.529999</ele>
<time>2021-04-07T08:00:06.357Z</time>
</trkpt>
<trkpt lat="30.8468600" lon="34.9727900">
<ele>292.529999</ele>
<time>2021-04-07T08:00:06.357Z</time>
</trkpt>
<trkpt lat="30.8473300" lon="34.9727900">
<ele>286.649994</ele>
<time>2021-04-07T08:00:06.357Z</time>
</trkpt>
<trkpt lat="30.8478600" lon="34.9727300">
<ele>287.580017</ele>
<time>2021-04-07T08:00:06.357Z</time>
</trkpt>
<trkpt lat="30.8478800" lon="34.9727300">
<ele>287.519989</ele>
<time>2021-04-07T08:00:06.357Z</time>
</trkpt>
<trkpt lat="30.8478800" lon="34.9727300">
<ele>287.519989</ele>
<time>2021-04-07T08:00:06.357Z</time>
</trkpt>
<trkpt lat="30.8478800" lon="34.9727200">
<ele>287.500000</ele>
<time>2021-04-07T08:00:06.357Z</time>
</trkpt>
<trkpt lat="30.8482500" lon="34.9726500">
<ele>287.109985</ele>
<time>2021-04-07T08:00:06.357Z</time>
</trkpt>
<trkpt lat="30.8484200" lon="34.9726400">
<ele>287.029999</ele>
<time>2021-04-07T08:00:06.357Z</time>
</trkpt>
<trkpt lat="30.8488000" lon="34.9725200">
<ele>282.220001</ele>
<time>2021-04-07T08:00:06.357Z</time>
</trkpt>
<trkpt lat="30.8491900" lon="34.9723300">
<ele>283.529999</ele>
<time>2021-04-07T08:00:06.357Z</time>
</trkpt>
<trkpt lat="30.8493400" lon="34.9723000">
<ele>284.479980</ele>
<time>2021-04-07T08:00:06.357Z</time>
</trkpt>
<trkpt lat="30.8495700" lon="34.9723100">
<ele>288.959991</ele>
<time>2021-04-07T08:00:06.357Z</time>
</trkpt>
<trkpt lat="30.8508800" lon="34.9725900">
<ele>306.860016</ele>
<time>2021-04-07T08:00:06.357Z</time>
</trkpt>
<trkpt lat="30.8512300" lon="34.9726800">
<ele>301.529999</ele>
<time>2021-04-07T08:00:06.357Z</time>
</trkpt>
<trkpt lat="30.8515200" lon="34.9728400">
<ele>301.109985</ele>
<time>2021-04-07T08:00:06.357Z</time>
</trkpt>
<trkpt lat="30.8516100" lon="34.9728600">
<ele>301.239990</ele>
<time>2021-04-07T08:00:06.357Z</time>
</trkpt>
<trkpt lat="30.8519000" lon="34.9728600">
<ele>301.640015</ele>
<time>2021-04-07T08:00:06.357Z</time>
</trkpt>
<trkpt lat="30.8520300" lon="34.9728900">
<ele>302.269989</ele>
<time>2021-04-07T08:00:06.357Z</time>
</trkpt>
<trkpt lat="30.8520300" lon="34.9728900">
<ele>302.269989</ele>
<time>2021-04-07T08:00:06.357Z</time>
</trkpt>
<trkpt lat="30.8521200" lon="34.9729100">
<ele>302.820007</ele>
<time>2021-04-07T08:00:06.357Z</time>
</trkpt>
<trkpt lat="30.8523200" lon="34.9729200">
<ele>303.460022</ele>
<time>2021-04-07T08:00:06.357Z</time>
</trkpt>
<trkpt lat="30.8525400" lon="34.9729000">
<ele>303.670013</ele>
<time>2021-04-07T08:00:06.357Z</time>
</trkpt>
<trkpt lat="30.8527600" lon="34.9728400">
<ele>302.470001</ele>
<time>2021-04-07T08:00:06.357Z</time>
</trkpt>
<trkpt lat="30.8529000" lon="34.9727800">
<ele>298.850006</ele>
<time>2021-04-07T08:00:06.357Z</time>
</trkpt>
<trkpt lat="30.8533000" lon="34.9726000">
<ele>290.309998</ele>
<time>2021-04-07T08:00:06.357Z</time>
</trkpt>
<trkpt lat="30.8534900" lon="34.9725200">
<ele>289.489990</ele>
<time>2021-04-07T08:00:06.357Z</time>
</trkpt>
<trkpt lat="30.8539000" lon="34.9723000">
<ele>294.239990</ele>
<time>2021-04-07T08:00:06.357Z</time>
</trkpt>
<trkpt lat="30.8542700" lon="34.9720300">
<ele>293.420013</ele>
<time>2021-04-07T08:00:06.357Z</time>
</trkpt>
<trkpt lat="30.8542700" lon="34.9720200">
<ele>293.489990</ele>
<time>2021-04-07T08:00:06.357Z</time>
</trkpt>
<trkpt lat="30.8542500" lon="34.9720000">
<ele>293.579987</ele>
<time>2021-04-07T08:00:06.357Z</time>
</trkpt>
<trkpt lat="30.8542500" lon="34.9720000">
<ele>293.579987</ele>
<time>2021-04-07T08:00:06.357Z</time>
</trkpt>
<trkpt lat="30.8542700" lon="34.9720200">
<ele>293.489990</ele>
<time>2021-04-07T08:00:06.357Z</time>
</trkpt>
<trkpt lat="30.8543400" lon="34.9719600">
<ele>293.940002</ele>
<time>2021-04-07T08:00:06.357Z</time>
</trkpt>
<trkpt lat="30.8544300" lon="34.9718600">
<ele>294.660004</ele>
<time>2021-04-07T08:00:06.357Z</time>
</trkpt>
<trkpt lat="30.8544900" lon="34.9717500">
<ele>296.320007</ele>
<time>2021-04-07T08:00:06.357Z</time>
</trkpt>
<trkpt lat="30.8545100" lon="34.9716300">
<ele>297.179993</ele>
<time>2021-04-07T08:00:06.357Z</time>
</trkpt>
<trkpt lat="30.8545000" lon="34.9715400">
<ele>297.000000</ele>
<time>2021-04-07T08:00:06.357Z</time>
</trkpt>
<trkpt lat="30.8543600" lon="34.9710000">
<ele>299.609985</ele>
<time>2021-04-07T08:00:06.357Z</time>
</trkpt>
<trkpt lat="30.8546500" lon="34.9705000">
<ele>299.720001</ele>
<time>2021-04-07T08:00:06.357Z</time>
</trkpt>
<trkpt lat="30.8549100" lon="34.9699000">
<ele>295.510010</ele>
<time>2021-04-07T08:00:06.357Z</time>
</trkpt>
<trkpt lat="30.8551700" lon="34.9693700">
<ele>294.640015</ele>
<time>2021-04-07T08:00:06.357Z</time>
</trkpt>
<trkpt lat="30.8552500" lon="34.9691500">
<ele>292.179993</ele>
<time>2021-04-07T08:00:06.357Z</time>
</trkpt>
<trkpt lat="30.8553000" lon="34.9690300">
<ele>294.649994</ele>
<time>2021-04-07T08:00:06.357Z</time>
</trkpt>
<trkpt lat="30.8553200" lon="34.9688000">
<ele>298.860016</ele>
<time>2021-04-07T08:00:06.357Z</time>
</trkpt>
<trkpt lat="30.8553100" lon="34.9687100">
<ele>299.889984</ele>
<time>2021-04-07T08:00:06.357Z</time>
</trkpt>
<trkpt lat="30.8552300" lon="34.9682800">
<ele>304.519989</ele>
<time>2021-04-07T08:00:06.357Z</time>
</trkpt>
<trkpt lat="30.8552300" lon="34.9682000">
<ele>305.100006</ele>
<time>2021-04-07T08:00:06.357Z</time>
</trkpt>
<trkpt lat="30.8552400" lon="34.9680800">
<ele>306.139984</ele>
<time>2021-04-07T08:00:06.357Z</time>
</trkpt>
<trkpt lat="30.8553200" lon="34.9678600">
<ele>306.750000</ele>
<time>2021-04-07T08:00:06.357Z</time>
</trkpt>
<trkpt lat="30.8553600" lon="34.9677800">
<ele>306.899994</ele>
<time>2021-04-07T08:00:06.357Z</time>
</trkpt>
<trkpt lat="30.8554700" lon="34.9675700">
<ele>306.289978</ele>
<time>2021-04-07T08:00:06.357Z</time>
</trkpt>
<trkpt lat="30.8555900" lon="34.9671100">
<ele>303.279999</ele>
<time>2021-04-07T08:00:06.357Z</time>
</trkpt>
<trkpt lat="30.8558300" lon="34.9665100">
<ele>309.230011</ele>
<time>2021-04-07T08:00:06.357Z</time>
</trkpt>
<trkpt lat="30.8558900" lon="34.9663300">
<ele>313.429993</ele>
<time>2021-04-07T08:00:06.357Z</time>
</trkpt>
<trkpt lat="30.8559300" lon="34.9659200">
<ele>317.440002</ele>
<time>2021-04-07T08:00:06.357Z</time>
</trkpt>
<trkpt lat="30.8559000" lon="34.9657500">
<ele>316.760010</ele>
<time>2021-04-07T08:00:06.357Z</time>
</trkpt>
<trkpt lat="30.8559000" lon="34.9657500">
<ele>316.760010</ele>
<time>2021-04-07T08:00:06.357Z</time>
</trkpt>
<trkpt lat="30.8558700" lon="34.9655200">
<ele>315.139984</ele>
<time>2021-04-07T08:00:06.357Z</time>
</trkpt>
<trkpt lat="30.8558800" lon="34.9654300">
<ele>314.600006</ele>
<time>2021-04-07T08:00:06.357Z</time>
</trkpt>
<trkpt lat="30.8562600" lon="34.9646900">
<ele>305.380005</ele>
<time>2021-04-07T08:00:06.357Z</time>
</trkpt>
<trkpt lat="30.8563800" lon="34.9643700">
<ele>300.149994</ele>
<time>2021-04-07T08:00:06.357Z</time>
</trkpt>
<trkpt lat="30.8564700" lon="34.9640600">
<ele>299.289978</ele>
<time>2021-04-07T08:00:06.357Z</time>
</trkpt>
<trkpt lat="30.8564800" lon="34.9636500">
<ele>299.739990</ele>
<time>2021-04-07T08:00:06.357Z</time>
</trkpt>
<trkpt lat="30.8565100" lon="34.9635600">
<ele>299.970001</ele>
<time>2021-04-07T08:00:06.357Z</time>
</trkpt>
<trkpt lat="30.8566300" lon="34.9634300">
<ele>302.170013</ele>
<time>2021-04-07T08:00:06.357Z</time>
</trkpt>
<trkpt lat="30.8567300" lon="34.9633700">
<ele>303.880005</ele>
<time>2021-04-07T08:00:06.357Z</time>
</trkpt>
<trkpt lat="30.8571000" lon="34.9632200">
<ele>311.279999</ele>
<time>2021-04-07T08:00:06.357Z</time>
</trkpt>
<trkpt lat="30.8572600" lon="34.9631000">
<ele>314.140015</ele>
<time>2021-04-07T08:00:06.357Z</time>
</trkpt>
<trkpt lat="30.8571100" lon="34.9629300">
<ele>311.709991</ele>
<time>2021-04-07T08:00:06.357Z</time>
</trkpt>
<trkpt lat="30.8571000" lon="34.9629300">
<ele>311.550018</ele>
<time>2021-04-07T08:00:06.357Z</time>
</trkpt>
<trkpt lat="30.8571000" lon="34.9629300">
<ele>311.550018</ele>
<time>2021-04-07T08:00:06.357Z</time>
</trkpt>
<trkpt lat="30.8571100" lon="34.9629300">
<ele>311.709991</ele>
<time>2021-04-07T08:00:06.357Z</time>
</trkpt>
<trkpt lat="30.8568500" lon="34.9626200">
<ele>306.959991</ele>
<time>2021-04-07T08:00:06.357Z</time>
</trkpt>
<trkpt lat="30.8566000" lon="34.9624500">
<ele>302.570007</ele>
<time>2021-04-07T08:00:06.357Z</time>
</trkpt>
<trkpt lat="30.8564900" lon="34.9623300">
<ele>303.239990</ele>
<time>2021-04-07T08:00:06.357Z</time>
</trkpt>
<trkpt lat="30.8561400" lon="34.9619800">
<ele>309.889984</ele>
<time>2021-04-07T08:00:06.357Z</time>
</trkpt>
<trkpt lat="30.8557900" lon="34.9615800">
<ele>318.049988</ele>
<time>2021-04-07T08:00:06.357Z</time>
</trkpt>
<trkpt lat="30.8554400" lon="34.9611700">
<ele>316.120026</ele>
<time>2021-04-07T08:00:06.357Z</time>
</trkpt>
<trkpt lat="30.8550900" lon="34.9607700">
<ele>309.649994</ele>
<time>2021-04-07T08:00:06.357Z</time>
</trkpt>
<trkpt lat="30.8547000" lon="34.9603500">
<ele>304.179993</ele>
<time>2021-04-07T08:00:06.357Z</time>
</trkpt>
<trkpt lat="30.8543100" lon="34.9599400">
<ele>300.190002</ele>
<time>2021-04-07T08:00:06.357Z</time>
</trkpt>
<trkpt lat="30.8539200" lon="34.9595200">
<ele>297.059998</ele>
<time>2021-04-07T08:00:06.357Z</time>
</trkpt>
<trkpt lat="30.8535300" lon="34.9591000">
<ele>297.649994</ele>
<time>2021-04-07T08:00:06.357Z</time>
</trkpt>
<trkpt lat="30.8532600" lon="34.9587500">
<ele>300.100006</ele>
<time>2021-04-07T08:00:06.357Z</time>
</trkpt>
<trkpt lat="30.8532200" lon="34.9586600">
<ele>299.050018</ele>
<time>2021-04-07T08:00:06.357Z</time>
</trkpt>
<trkpt lat="30.8529700" lon="34.9578700">
<ele>293.639984</ele>
<time>2021-04-07T08:00:06.357Z</time>
</trkpt>
<trkpt lat="30.8528000" lon="34.9571900">
<ele>292.040009</ele>
<time>2021-04-07T08:00:06.357Z</time>
</trkpt>
<trkpt lat="30.8526300" lon="34.9565100">
<ele>291.600006</ele>
<time>2021-04-07T08:00:06.357Z</time>
</trkpt>
<trkpt lat="30.8525400" lon="34.9559900">
<ele>289.600006</ele>
<time>2021-04-07T08:00:06.357Z</time>
</trkpt>
<trkpt lat="30.8524500" lon="34.9554800">
<ele>290.319977</ele>
<time>2021-04-07T08:00:06.357Z</time>
</trkpt>
<trkpt lat="30.8523600" lon="34.9549600">
<ele>290.510010</ele>
<time>2021-04-07T08:00:06.357Z</time>
</trkpt>
<trkpt lat="30.8522600" lon="34.9544400">
<ele>293.429993</ele>
<time>2021-04-07T08:00:06.357Z</time>
</trkpt>
<trkpt lat="30.8521700" lon="34.9539200">
<ele>289.500000</ele>
<time>2021-04-07T08:00:06.357Z</time>
</trkpt>
<trkpt lat="30.8520800" lon="34.9534100">
<ele>289.160004</ele>
<time>2021-04-07T08:00:06.357Z</time>
</trkpt>
<trkpt lat="30.8519900" lon="34.9528900">
<ele>288.510010</ele>
<time>2021-04-07T08:00:06.357Z</time>
</trkpt>
<trkpt lat="30.8518500" lon="34.9523500">
<ele>291.760010</ele>
<time>2021-04-07T08:00:06.357Z</time>
</trkpt>
<trkpt lat="30.8517100" lon="34.9518100">
<ele>292.559998</ele>
<time>2021-04-07T08:00:06.357Z</time>
</trkpt>
<trkpt lat="30.8514700" lon="34.9510800">
<ele>290.550018</ele>
<time>2021-04-07T08:00:06.357Z</time>
</trkpt>
<trkpt lat="30.8511200" lon="34.9503600">
<ele>289.229980</ele>
<time>2021-04-07T08:00:06.357Z</time>
</trkpt>
<trkpt lat="30.8508600" lon="34.9498500">
<ele>289.279999</ele>
<time>2021-04-07T08:00:06.357Z</time>
</trkpt>
<trkpt lat="30.8505900" lon="34.9493400">
<ele>287.290009</ele>
<time>2021-04-07T08:00:06.357Z</time>
</trkpt>
<trkpt lat="30.8503500" lon="34.9488100">
<ele>284.640015</ele>
<time>2021-04-07T08:00:06.357Z</time>
</trkpt>
<trkpt lat="30.8501000" lon="34.9482900">
<ele>284.910004</ele>
<time>2021-04-07T08:00:06.357Z</time>
</trkpt>
<trkpt lat="30.8498600" lon="34.9477600">
<ele>286.420013</ele>
<time>2021-04-07T08:00:06.357Z</time>
</trkpt>
<trkpt lat="30.8496100" lon="34.9472300">
<ele>284.410004</ele>
<time>2021-04-07T08:00:06.357Z</time>
</trkpt>
<trkpt lat="30.8495400" lon="34.9470700">
<ele>282.639984</ele>
<time>2021-04-07T08:00:06.357Z</time>
</trkpt>
<trkpt lat="30.8493900" lon="34.9467700">
<ele>281.750000</ele>
<time>2021-04-07T08:00:06.357Z</time>
</trkpt>
<trkpt lat="30.8490800" lon="34.9462000">
<ele>285.529999</ele>
<time>2021-04-07T08:00:06.357Z</time>
</trkpt>
<trkpt lat="30.8486500" lon="34.9456000">
<ele>289.130005</ele>
<time>2021-04-07T08:00:06.357Z</time>
</trkpt>
<trkpt lat="30.8483400" lon="34.9452000">
<ele>288.759979</ele>
<time>2021-04-07T08:00:06.357Z</time>
</trkpt>
<trkpt lat="30.8480300" lon="34.9447900">
<ele>285.440002</ele>
<time>2021-04-07T08:00:06.357Z</time>
</trkpt>
<trkpt lat="30.8477100" lon="34.9443000">
<ele>282.119995</ele>
<time>2021-04-07T08:00:06.357Z</time>
</trkpt>
<trkpt lat="30.8473800" lon="34.9438200">
<ele>280.600006</ele>
<time>2021-04-07T08:00:06.357Z</time>
</trkpt>
<trkpt lat="30.8470600" lon="34.9433300">
<ele>276.220001</ele>
<time>2021-04-07T08:00:06.357Z</time>
</trkpt>
<trkpt lat="30.8466500" lon="34.9427500">
<ele>275.779999</ele>
<time>2021-04-07T08:00:06.357Z</time>
</trkpt>
<trkpt lat="30.8462300" lon="34.9421700">
<ele>277.470001</ele>
<time>2021-04-07T08:00:06.357Z</time>
</trkpt>
<trkpt lat="30.8462300" lon="34.9421700">
<ele>277.470001</ele>
<time>2021-04-07T08:00:06.357Z</time>
</trkpt>
<trkpt lat="30.8459200" lon="34.9417400">
<ele>276.230011</ele>
<time>2021-04-07T08:00:06.357Z</time>
</trkpt>
<trkpt lat="30.8456200" lon="34.9413100">
<ele>277.220001</ele>
<time>2021-04-07T08:00:06.357Z</time>
</trkpt>
<trkpt lat="30.8453100" lon="34.9408700">
<ele>267.880005</ele>
<time>2021-04-07T08:00:06.357Z</time>
</trkpt>
<trkpt lat="30.8450000" lon="34.9404400">
<ele>272.830017</ele>
<time>2021-04-07T08:00:06.357Z</time>
</trkpt>
<trkpt lat="30.8445500" lon="34.9397800">
<ele>281.800018</ele>
<time>2021-04-07T08:00:06.357Z</time>
</trkpt>
<trkpt lat="30.8441800" lon="34.9391600">
<ele>271.899994</ele>
<time>2021-04-07T08:00:06.357Z</time>
</trkpt>
<trkpt lat="30.8441100" lon="34.9389800">
<ele>269.040009</ele>
<time>2021-04-07T08:00:06.357Z</time>
</trkpt>
<trkpt lat="30.8439600" lon="34.9384400">
<ele>261.320007</ele>
<time>2021-04-07T08:00:06.357Z</time>
</trkpt>
<trkpt lat="30.8438500" lon="34.9377300">
<ele>265.820007</ele>
<time>2021-04-07T08:00:06.357Z</time>
</trkpt>
<trkpt lat="30.8437300" lon="34.9370200">
<ele>268.209991</ele>
<time>2021-04-07T08:00:06.357Z</time>
</trkpt>
<trkpt lat="30.8436500" lon="34.9365400">
<ele>270.119995</ele>
<time>2021-04-07T08:00:06.357Z</time>
</trkpt>
<trkpt lat="30.8435500" lon="34.9359300">
<ele>265.100006</ele>
<time>2021-04-07T08:00:06.357Z</time>
</trkpt>
<trkpt lat="30.8434400" lon="34.9353200">
<ele>265.269989</ele>
<time>2021-04-07T08:00:06.357Z</time>
</trkpt>
<trkpt lat="30.8433400" lon="34.9347100">
<ele>261.089996</ele>
<time>2021-04-07T08:00:06.357Z</time>
</trkpt>
<trkpt lat="30.8431000" lon="34.9342500">
<ele>262.399994</ele>
<time>2021-04-07T08:00:06.357Z</time>
</trkpt>
<trkpt lat="30.8428500" lon="34.9337900">
<ele>265.000000</ele>
<time>2021-04-07T08:00:06.357Z</time>
</trkpt>
<trkpt lat="30.8426100" lon="34.9333200">
<ele>267.229980</ele>
<time>2021-04-07T08:00:06.357Z</time>
</trkpt>
<trkpt lat="30.8423700" lon="34.9328600">
<ele>266.970001</ele>
<time>2021-04-07T08:00:06.357Z</time>
</trkpt>
<trkpt lat="30.8421200" lon="34.9324000">
<ele>259.980011</ele>
<time>2021-04-07T08:00:06.357Z</time>
</trkpt>
<trkpt lat="30.8418800" lon="34.9319400">
<ele>256.029999</ele>
<time>2021-04-07T08:00:06.357Z</time>
</trkpt>
<trkpt lat="30.8413600" lon="34.9311300">
<ele>257.850006</ele>
<time>2021-04-07T08:00:06.357Z</time>
</trkpt>
<trkpt lat="30.8409700" lon="34.9305300">
<ele>250.800003</ele>
<time>2021-04-07T08:00:06.357Z</time>
</trkpt>
<trkpt lat="30.8409200" lon="34.9305800">
<ele>251.989990</ele>
<time>2021-04-07T08:00:06.357Z</time>
</trkpt>
<trkpt lat="30.8409200" lon="34.9305800">
<ele>251.989990</ele>
<time>2021-04-07T08:00:06.357Z</time>
</trkpt>
<trkpt lat="30.8405800" lon="34.9300700">
<ele>251.139999</ele>
<time>2021-04-07T08:00:06.357Z</time>
</trkpt>
<trkpt lat="30.8402300" lon="34.9295600">
<ele>252.240005</ele>
<time>2021-04-07T08:00:06.357Z</time>
</trkpt>
<trkpt lat="30.8398400" lon="34.9292000">
<ele>247.369995</ele>
<time>2021-04-07T08:00:06.357Z</time>
</trkpt>
<trkpt lat="30.8394600" lon="34.9288500">
<ele>247.279999</ele>
<time>2021-04-07T08:00:06.357Z</time>
</trkpt>
<trkpt lat="30.8390700" lon="34.9284900">
<ele>248.539993</ele>
<time>2021-04-07T08:00:06.357Z</time>
</trkpt>
<trkpt lat="30.8386900" lon="34.9281400">
<ele>251.519989</ele>
<time>2021-04-07T08:00:06.357Z</time>
</trkpt>
<trkpt lat="30.8383000" lon="34.9277800">
<ele>247.630005</ele>
<time>2021-04-07T08:00:06.357Z</time>
</trkpt>
<trkpt lat="30.8378700" lon="34.9274800">
<ele>250.930008</ele>
<time>2021-04-07T08:00:06.357Z</time>
</trkpt>
<trkpt lat="30.8374400" lon="34.9271800">
<ele>253.639999</ele>
<time>2021-04-07T08:00:06.357Z</time>
</trkpt>
<trkpt lat="30.8370100" lon="34.9268800">
<ele>252.250000</ele>
<time>2021-04-07T08:00:06.357Z</time>
</trkpt>
<trkpt lat="30.8365800" lon="34.9264500">
<ele>252.020004</ele>
<time>2021-04-07T08:00:06.357Z</time>
</trkpt>
<trkpt lat="30.8363900" lon="34.9261300">
<ele>250.070007</ele>
<time>2021-04-07T08:00:06.357Z</time>
</trkpt>
<trkpt lat="30.8360400" lon="34.9256600">
<ele>241.699997</ele>
<time>2021-04-07T08:00:06.357Z</time>
</trkpt>
<trkpt lat="30.8356800" lon="34.9251800">
<ele>245.169998</ele>
<time>2021-04-07T08:00:06.357Z</time>
</trkpt>
<trkpt lat="30.8353300" lon="34.9247100">
<ele>245.649994</ele>
<time>2021-04-07T08:00:06.357Z</time>
</trkpt>
<trkpt lat="30.8352000" lon="34.9241300">
<ele>240.810013</ele>
<time>2021-04-07T08:00:06.357Z</time>
</trkpt>
<trkpt lat="30.8350700" lon="34.9235500">
<ele>240.110001</ele>
<time>2021-04-07T08:00:06.357Z</time>
</trkpt>
<trkpt lat="30.8348100" lon="34.9230300">
<ele>243.240005</ele>
<time>2021-04-07T08:00:06.357Z</time>
</trkpt>
<trkpt lat="30.8345500" lon="34.9225100">
<ele>242.220001</ele>
<time>2021-04-07T08:00:06.357Z</time>
</trkpt>
<trkpt lat="30.8343000" lon="34.9219900">
<ele>240.050003</ele>
<time>2021-04-07T08:00:06.357Z</time>
</trkpt>
<trkpt lat="30.8340400" lon="34.9214600">
<ele>237.119995</ele>
<time>2021-04-07T08:00:06.357Z</time>
</trkpt>
<trkpt lat="30.8337800" lon="34.9209400">
<ele>238.110001</ele>
<time>2021-04-07T08:00:06.357Z</time>
</trkpt>
<trkpt lat="30.8335200" lon="34.9204200">
<ele>242.139999</ele>
<time>2021-04-07T08:00:06.357Z</time>
</trkpt>
<trkpt lat="30.8330600" lon="34.9201200">
<ele>238.759995</ele>
<time>2021-04-07T08:00:06.357Z</time>
</trkpt>
<trkpt lat="30.8325900" lon="34.9200000">
<ele>234.649994</ele>
<time>2021-04-07T08:00:06.357Z</time>
</trkpt>
<trkpt lat="30.8321200" lon="34.9198900">
<ele>237.080002</ele>
<time>2021-04-07T08:00:06.357Z</time>
</trkpt>
<trkpt lat="30.8316600" lon="34.9197700">
<ele>241.979996</ele>
<time>2021-04-07T08:00:06.357Z</time>
</trkpt>
<trkpt lat="30.8311900" lon="34.9196600">
<ele>234.459991</ele>
<time>2021-04-07T08:00:06.357Z</time>
</trkpt>
<trkpt lat="30.8307200" lon="34.9195400">
<ele>228.250000</ele>
<time>2021-04-07T08:00:06.357Z</time>
</trkpt>
<trkpt lat="30.8302400" lon="34.9194700">
<ele>224.039993</ele>
<time>2021-04-07T08:00:06.357Z</time>
</trkpt>
<trkpt lat="30.8297500" lon="34.9193900">
<ele>228.699997</ele>
<time>2021-04-07T08:00:06.357Z</time>
</trkpt>
<trkpt lat="30.8292700" lon="34.9193200">
<ele>235.149994</ele>
<time>2021-04-07T08:00:06.357Z</time>
</trkpt>
<trkpt lat="30.8286100" lon="34.9193300">
<ele>234.560013</ele>
<time>2021-04-07T08:00:06.357Z</time>
</trkpt>
<trkpt lat="30.8279400" lon="34.9193400">
<ele>222.350006</ele>
<time>2021-04-07T08:00:06.357Z</time>
</trkpt>
<trkpt lat="30.8275900" lon="34.9194500">
<ele>218.690002</ele>
<time>2021-04-07T08:00:06.357Z</time>
</trkpt>
<trkpt lat="30.8272100" lon="34.9197600">
<ele>224.789993</ele>
<time>2021-04-07T08:00:06.357Z</time>
</trkpt>
<trkpt lat="30.8268200" lon="34.9200700">
<ele>223.049988</ele>
<time>2021-04-07T08:00:06.357Z</time>
</trkpt>
<trkpt lat="30.8265200" lon="34.9205900">
<ele>217.690002</ele>
<time>2021-04-07T08:00:06.357Z</time>
</trkpt>
<trkpt lat="30.8262200" lon="34.9211000">
<ele>217.240005</ele>
<time>2021-04-07T08:00:06.357Z</time>
</trkpt>
<trkpt lat="30.8262000" lon="34.9205200">
<ele>220.119995</ele>
<time>2021-04-07T08:00:06.357Z</time>
</trkpt>
<trkpt lat="30.8261900" lon="34.9199500">
<ele>222.720001</ele>
<time>2021-04-07T08:00:06.357Z</time>
</trkpt>
<trkpt lat="30.8261700" lon="34.9193700">
<ele>225.619995</ele>
<time>2021-04-07T08:00:06.357Z</time>
</trkpt>
<trkpt lat="30.8261500" lon="34.9188000">
<ele>226.699997</ele>
<time>2021-04-07T08:00:06.357Z</time>
</trkpt>
<trkpt lat="30.8261300" lon="34.9182200">
<ele>228.619995</ele>
<time>2021-04-07T08:00:06.357Z</time>
</trkpt>
<trkpt lat="30.8261200" lon="34.9176500">
<ele>227.329987</ele>
<time>2021-04-07T08:00:06.357Z</time>
</trkpt>
<trkpt lat="30.8261000" lon="34.9170700">
<ele>230.139999</ele>
<time>2021-04-07T08:00:06.357Z</time>
</trkpt>
<trkpt lat="30.8262300" lon="34.9169000">
<ele>229.240005</ele>
<time>2021-04-07T08:00:06.357Z</time>
</trkpt>
<trkpt lat="30.8260200" lon="34.9164000">
<ele>232.639999</ele>
<time>2021-04-07T08:00:06.357Z</time>
</trkpt>
<trkpt lat="30.8258100" lon="34.9159000">
<ele>238.759995</ele>
<time>2021-04-07T08:00:06.357Z</time>
</trkpt>
<trkpt lat="30.8255900" lon="34.9154000">
<ele>237.830002</ele>
<time>2021-04-07T08:00:06.357Z</time>
</trkpt>
<trkpt lat="30.8253800" lon="34.9149000">
<ele>240.649994</ele>
<time>2021-04-07T08:00:06.357Z</time>
</trkpt>
<trkpt lat="30.8251700" lon="34.9144100">
<ele>244.089996</ele>
<time>2021-04-07T08:00:06.357Z</time>
</trkpt>
<trkpt lat="30.8249600" lon="34.9139100">
<ele>244.929993</ele>
<time>2021-04-07T08:00:06.357Z</time>
</trkpt>
<trkpt lat="30.8247400" lon="34.9134100">
<ele>244.020004</ele>
<time>2021-04-07T08:00:06.357Z</time>
</trkpt>
<trkpt lat="30.8245300" lon="34.9129100">
<ele>242.820007</ele>
<time>2021-04-07T08:00:06.357Z</time>
</trkpt>
<trkpt lat="30.8244900" lon="34.9123600">
<ele>241.839996</ele>
<time>2021-04-07T08:00:06.357Z</time>
</trkpt>
<trkpt lat="30.8244400" lon="34.9118200">
<ele>237.179993</ele>
<time>2021-04-07T08:00:06.357Z</time>
</trkpt>
<trkpt lat="30.8244000" lon="34.9112700">
<ele>236.319992</ele>
<time>2021-04-07T08:00:06.357Z</time>
</trkpt>
<trkpt lat="30.8243500" lon="34.9107300">
<ele>235.840012</ele>
<time>2021-04-07T08:00:06.357Z</time>
</trkpt>
<trkpt lat="30.8243100" lon="34.9101800">
<ele>234.179993</ele>
<time>2021-04-07T08:00:06.357Z</time>
</trkpt>
<trkpt lat="30.8242600" lon="34.9096400">
<ele>234.669998</ele>
<time>2021-04-07T08:00:06.357Z</time>
</trkpt>
<trkpt lat="30.8242200" lon="34.9090900">
<ele>235.690002</ele>
<time>2021-04-07T08:00:06.357Z</time>
</trkpt>
<trkpt lat="30.8240600" lon="34.9085700">
<ele>237.920013</ele>
<time>2021-04-07T08:00:06.357Z</time>
</trkpt>
<trkpt lat="30.8239100" lon="34.9080500">
<ele>240.769989</ele>
<time>2021-04-07T08:00:06.357Z</time>
</trkpt>
<trkpt lat="30.8237500" lon="34.9075300">
<ele>242.609985</ele>
<time>2021-04-07T08:00:06.357Z</time>
</trkpt>
<trkpt lat="30.8236000" lon="34.9070100">
<ele>243.279999</ele>
<time>2021-04-07T08:00:06.357Z</time>
</trkpt>
<trkpt lat="30.8234400" lon="34.9064800">
<ele>244.519989</ele>
<time>2021-04-07T08:00:06.357Z</time>
</trkpt>
<trkpt lat="30.8232800" lon="34.9059600">
<ele>241.440002</ele>
<time>2021-04-07T08:00:06.357Z</time>
</trkpt>
<trkpt lat="30.8231300" lon="34.9054400">
<ele>239.079987</ele>
<time>2021-04-07T08:00:06.357Z</time>
</trkpt>
<trkpt lat="30.8229700" lon="34.9049200">
<ele>242.520004</ele>
<time>2021-04-07T08:00:06.357Z</time>
</trkpt>
<trkpt lat="30.8227700" lon="34.9044500">
<ele>243.129990</ele>
<time>2021-04-07T08:00:06.357Z</time>
</trkpt>
<trkpt lat="30.8225700" lon="34.9039800">
<ele>246.410004</ele>
<time>2021-04-07T08:00:06.357Z</time>
</trkpt>
<trkpt lat="30.8223700" lon="34.9035000">
<ele>249.759995</ele>
<time>2021-04-07T08:00:06.357Z</time>
</trkpt>
<trkpt lat="30.8221600" lon="34.9030300">
<ele>253.310013</ele>
<time>2021-04-07T08:00:06.357Z</time>
</trkpt>
<trkpt lat="30.8219600" lon="34.9025600">
<ele>249.399994</ele>
<time>2021-04-07T08:00:06.357Z</time>
</trkpt>
<trkpt lat="30.8217600" lon="34.9020900">
<ele>247.060013</ele>
<time>2021-04-07T08:00:06.357Z</time>
</trkpt>
<trkpt lat="30.8220300" lon="34.9015600">
<ele>242.260010</ele>
<time>2021-04-07T08:00:06.357Z</time>
</trkpt>
<trkpt lat="30.8223000" lon="34.9010200">
<ele>237.389999</ele>
<time>2021-04-07T08:00:06.357Z</time>
</trkpt>
<trkpt lat="30.8224700" lon="34.9004000">
<ele>229.690002</ele>
<time>2021-04-07T08:00:06.357Z</time>
</trkpt>
<trkpt lat="30.8226300" lon="34.8997700">
<ele>231.779999</ele>
<time>2021-04-07T08:00:06.357Z</time>
</trkpt>
<trkpt lat="30.8228000" lon="34.8991500">
<ele>234.580002</ele>
<time>2021-04-07T08:00:06.357Z</time>
</trkpt>
<trkpt lat="30.8228300" lon="34.8985700">
<ele>236.230011</ele>
<time>2021-04-07T08:00:06.357Z</time>
</trkpt>
<trkpt lat="30.8228600" lon="34.8979800">
<ele>242.529999</ele>
<time>2021-04-07T08:00:06.357Z</time>
</trkpt>
<trkpt lat="30.8228800" lon="34.8974000">
<ele>249.660004</ele>
<time>2021-04-07T08:00:06.357Z</time>
</trkpt>
<trkpt lat="30.8229100" lon="34.8968100">
<ele>245.479996</ele>
<time>2021-04-07T08:00:06.357Z</time>
</trkpt>
<trkpt lat="30.8228200" lon="34.8962400">
<ele>240.989990</ele>
<time>2021-04-07T08:00:06.357Z</time>
</trkpt>
<trkpt lat="30.8227400" lon="34.8956700">
<ele>240.860001</ele>
<time>2021-04-07T08:00:06.357Z</time>
</trkpt>
<trkpt lat="30.8226500" lon="34.8951000">
<ele>245.479996</ele>
<time>2021-04-07T08:00:06.357Z</time>
</trkpt>
<trkpt lat="30.8224900" lon="34.8946100">
<ele>246.930008</ele>
<time>2021-04-07T08:00:06.357Z</time>
</trkpt>
<trkpt lat="30.8223200" lon="34.8941200">
<ele>243.919998</ele>
<time>2021-04-07T08:00:06.357Z</time>
</trkpt>
<trkpt lat="30.8221600" lon="34.8936300">
<ele>250.970001</ele>
<time>2021-04-07T08:00:06.357Z</time>
</trkpt>
<trkpt lat="30.8220000" lon="34.8931300">
<ele>255.880005</ele>
<time>2021-04-07T08:00:06.357Z</time>
</trkpt>
<trkpt lat="30.8218400" lon="34.8926400">
<ele>257.000000</ele>
<time>2021-04-07T08:00:06.357Z</time>
</trkpt>
<trkpt lat="30.8216700" lon="34.8921500">
<ele>262.190002</ele>
<time>2021-04-07T08:00:06.357Z</time>
</trkpt>
<trkpt lat="30.8215100" lon="34.8916600">
<ele>261.489990</ele>
<time>2021-04-07T08:00:06.357Z</time>
</trkpt>
<trkpt lat="30.8211700" lon="34.8912300">
<ele>257.309998</ele>
<time>2021-04-07T08:00:06.357Z</time>
</trkpt>
<trkpt lat="30.8208300" lon="34.8907900">
<ele>254.709991</ele>
<time>2021-04-07T08:00:06.357Z</time>
</trkpt>
<trkpt lat="30.8204900" lon="34.8903600">
<ele>258.420013</ele>
<time>2021-04-07T08:00:06.357Z</time>
</trkpt>
<trkpt lat="30.8201500" lon="34.8899200">
<ele>262.899994</ele>
<time>2021-04-07T08:00:06.357Z</time>
</trkpt>
<trkpt lat="30.8198100" lon="34.8894900">
<ele>266.440002</ele>
<time>2021-04-07T08:00:06.357Z</time>
</trkpt>
<trkpt lat="30.8194700" lon="34.8890500">
<ele>262.190002</ele>
<time>2021-04-07T08:00:06.357Z</time>
</trkpt>
<trkpt lat="30.8193700" lon="34.8882700">
<ele>258.309998</ele>
<time>2021-04-07T08:00:06.357Z</time>
</trkpt>
<trkpt lat="30.8194700" lon="34.8877600">
<ele>258.299988</ele>
<time>2021-04-07T08:00:06.357Z</time>
</trkpt>
<trkpt lat="30.8195800" lon="34.8872500">
<ele>257.169983</ele>
<time>2021-04-07T08:00:06.357Z</time>
</trkpt>
<trkpt lat="30.8196800" lon="34.8867400">
<ele>258.070007</ele>
<time>2021-04-07T08:00:06.357Z</time>
</trkpt>
<trkpt lat="30.8197800" lon="34.8862300">
<ele>261.309998</ele>
<time>2021-04-07T08:00:06.357Z</time>
</trkpt>
<trkpt lat="30.8198900" lon="34.8857200">
<ele>260.220001</ele>
<time>2021-04-07T08:00:06.357Z</time>
</trkpt>
<trkpt lat="30.8199900" lon="34.8852000">
<ele>258.950012</ele>
<time>2021-04-07T08:00:06.357Z</time>
</trkpt>
<trkpt lat="30.8201000" lon="34.8846900">
<ele>258.010010</ele>
<time>2021-04-07T08:00:06.357Z</time>
</trkpt>
<trkpt lat="30.8202000" lon="34.8841800">
<ele>259.300018</ele>
<time>2021-04-07T08:00:06.357Z</time>
</trkpt>
<trkpt lat="30.8203000" lon="34.8836700">
<ele>259.279999</ele>
<time>2021-04-07T08:00:06.357Z</time>
</trkpt>
<trkpt lat="30.8204100" lon="34.8831600">
<ele>258.149994</ele>
<time>2021-04-07T08:00:06.357Z</time>
</trkpt>
<trkpt lat="30.8205100" lon="34.8826500">
<ele>259.360016</ele>
<time>2021-04-07T08:00:06.357Z</time>
</trkpt>
<trkpt lat="30.8206200" lon="34.8821100">
<ele>259.770020</ele>
<time>2021-04-07T08:00:06.357Z</time>
</trkpt>
<trkpt lat="30.8207300" lon="34.8815700">
<ele>258.960022</ele>
<time>2021-04-07T08:00:06.357Z</time>
</trkpt>
<trkpt lat="30.8208400" lon="34.8810300">
<ele>259.300018</ele>
<time>2021-04-07T08:00:06.357Z</time>
</trkpt>
<trkpt lat="30.8209500" lon="34.8805000">
<ele>263.320007</ele>
<time>2021-04-07T08:00:06.357Z</time>
</trkpt>
<trkpt lat="30.8210600" lon="34.8799600">
<ele>267.720001</ele>
<time>2021-04-07T08:00:06.357Z</time>
</trkpt>
<trkpt lat="30.8211700" lon="34.8794200">
<ele>264.169983</ele>
<time>2021-04-07T08:00:06.357Z</time>
</trkpt>
<trkpt lat="30.8212800" lon="34.8788800">
<ele>261.989990</ele>
<time>2021-04-07T08:00:06.357Z</time>
</trkpt>
<trkpt lat="30.8213900" lon="34.8783400">
<ele>262.980011</ele>
<time>2021-04-07T08:00:06.357Z</time>
</trkpt>
<trkpt lat="30.8215000" lon="34.8778100">
<ele>265.000000</ele>
<time>2021-04-07T08:00:06.357Z</time>
</trkpt>
<trkpt lat="30.8216100" lon="34.8772700">
<ele>267.029999</ele>
<time>2021-04-07T08:00:06.357Z</time>
</trkpt>
<trkpt lat="30.8217200" lon="34.8767300">
<ele>268.779999</ele>
<time>2021-04-07T08:00:06.357Z</time>
</trkpt>
<trkpt lat="30.8218300" lon="34.8761900">
<ele>269.040009</ele>
<time>2021-04-07T08:00:06.357Z</time>
</trkpt>
<trkpt lat="30.8218800" lon="34.8756400">
<ele>265.399994</ele>
<time>2021-04-07T08:00:06.357Z</time>
</trkpt>
<trkpt lat="30.8219300" lon="34.8750800">
<ele>262.760010</ele>
<time>2021-04-07T08:00:06.357Z</time>
</trkpt>
<trkpt lat="30.8219900" lon="34.8745300">
<ele>267.619995</ele>
<time>2021-04-07T08:00:06.357Z</time>
</trkpt>
<trkpt lat="30.8220400" lon="34.8739800">
<ele>273.110016</ele>
<time>2021-04-07T08:00:06.357Z</time>
</trkpt>
<trkpt lat="30.8220900" lon="34.8734200">
<ele>275.899994</ele>
<time>2021-04-07T08:00:06.357Z</time>
</trkpt>
<trkpt lat="30.8221400" lon="34.8728700">
<ele>278.269989</ele>
<time>2021-04-07T08:00:06.357Z</time>
</trkpt>
<trkpt lat="30.8222000" lon="34.8723200">
<ele>280.380005</ele>
<time>2021-04-07T08:00:06.357Z</time>
</trkpt>
<trkpt lat="30.8222500" lon="34.8717600">
<ele>281.429993</ele>
<time>2021-04-07T08:00:06.357Z</time>
</trkpt>
<trkpt lat="30.8223000" lon="34.8712100">
<ele>282.559998</ele>
<time>2021-04-07T08:00:06.357Z</time>
</trkpt>
<trkpt lat="30.8223300" lon="34.8706800">
<ele>284.540009</ele>
<time>2021-04-07T08:00:06.357Z</time>
</trkpt>
<trkpt lat="30.8223600" lon="34.8701400">
<ele>285.229980</ele>
<time>2021-04-07T08:00:06.357Z</time>
</trkpt>
<trkpt lat="30.8223900" lon="34.8696100">
<ele>288.220001</ele>
<time>2021-04-07T08:00:06.357Z</time>
</trkpt>
<trkpt lat="30.8224200" lon="34.8690800">
<ele>291.450012</ele>
<time>2021-04-07T08:00:06.357Z</time>
</trkpt>
<trkpt lat="30.8224500" lon="34.8685400">
<ele>292.170013</ele>
<time>2021-04-07T08:00:06.357Z</time>
</trkpt>
<trkpt lat="30.8224900" lon="34.8680100">
<ele>291.069977</ele>
<time>2021-04-07T08:00:06.357Z</time>
</trkpt>
<trkpt lat="30.8225200" lon="34.8674700">
<ele>292.260010</ele>
<time>2021-04-07T08:00:06.357Z</time>
</trkpt>
<trkpt lat="30.8225500" lon="34.8669400">
<ele>292.720001</ele>
<time>2021-04-07T08:00:06.357Z</time>
</trkpt>
<trkpt lat="30.8225800" lon="34.8664100">
<ele>292.889984</ele>
<time>2021-04-07T08:00:06.357Z</time>
</trkpt>
<trkpt lat="30.8226100" lon="34.8658700">
<ele>294.049988</ele>
<time>2021-04-07T08:00:06.357Z</time>
</trkpt>
<trkpt lat="30.8226400" lon="34.8653400">
<ele>295.160004</ele>
<time>2021-04-07T08:00:06.357Z</time>
</trkpt>
<trkpt lat="30.8226400" lon="34.8646600">
<ele>296.500000</ele>
<time>2021-04-07T08:00:06.357Z</time>
</trkpt>
<trkpt lat="30.8226400" lon="34.8639800">
<ele>294.839996</ele>
<time>2021-04-07T08:00:06.357Z</time>
</trkpt>
<trkpt lat="30.8226400" lon="34.8633000">
<ele>299.070007</ele>
<time>2021-04-07T08:00:06.357Z</time>
</trkpt>
<trkpt lat="30.8224300" lon="34.8624800">
<ele>302.250000</ele>
<time>2021-04-07T08:00:06.357Z</time>
</trkpt>
<trkpt lat="30.8221700" lon="34.8620000">
<ele>305.559998</ele>
<time>2021-04-07T08:00:06.357Z</time>
</trkpt>
<trkpt lat="30.8219200" lon="34.8615100">
<ele>312.170013</ele>
<time>2021-04-07T08:00:06.357Z</time>
</trkpt>
<trkpt lat="30.8216600" lon="34.8610300">
<ele>315.309967</ele>
<time>2021-04-07T08:00:06.357Z</time>
</trkpt>
<trkpt lat="30.8214000" lon="34.8605500">
<ele>307.959991</ele>
<time>2021-04-07T08:00:06.357Z</time>
</trkpt>
<trkpt lat="30.8214800" lon="34.8600100">
<ele>303.410004</ele>
<time>2021-04-07T08:00:06.357Z</time>
</trkpt>
<trkpt lat="30.8215700" lon="34.8594800">
<ele>302.700012</ele>
<time>2021-04-07T08:00:06.357Z</time>
</trkpt>
<trkpt lat="30.8216500" lon="34.8589400">
<ele>302.720001</ele>
<time>2021-04-07T08:00:06.357Z</time>
</trkpt>
<trkpt lat="30.8217400" lon="34.8584100">
<ele>305.720001</ele>
<time>2021-04-07T08:00:06.357Z</time>
</trkpt>
<trkpt lat="30.8218200" lon="34.8578700">
<ele>305.809998</ele>
<time>2021-04-07T08:00:06.357Z</time>
</trkpt>
<trkpt lat="30.8219000" lon="34.8573300">
<ele>302.329987</ele>
<time>2021-04-07T08:00:06.357Z</time>
</trkpt>
<trkpt lat="30.8219900" lon="34.8568000">
<ele>295.510010</ele>
<time>2021-04-07T08:00:06.357Z</time>
</trkpt>
<trkpt lat="30.8220700" lon="34.8562600">
<ele>295.339996</ele>
<time>2021-04-07T08:00:06.357Z</time>
</trkpt>
<trkpt lat="30.8221300" lon="34.8557200">
<ele>296.610016</ele>
<time>2021-04-07T08:00:06.357Z</time>
</trkpt>
<trkpt lat="30.8221900" lon="34.8551800">
<ele>297.500000</ele>
<time>2021-04-07T08:00:06.357Z</time>
</trkpt>
<trkpt lat="30.8222500" lon="34.8546400">
<ele>302.019989</ele>
<time>2021-04-07T08:00:06.357Z</time>
</trkpt>
<trkpt lat="30.8223100" lon="34.8541000">
<ele>306.260010</ele>
<time>2021-04-07T08:00:06.357Z</time>
</trkpt>
<trkpt lat="30.8223700" lon="34.8535600">
<ele>305.980011</ele>
<time>2021-04-07T08:00:06.357Z</time>
</trkpt>
<trkpt lat="30.8224400" lon="34.8530200">
<ele>304.529999</ele>
<time>2021-04-07T08:00:06.357Z</time>
</trkpt>
<trkpt lat="30.8225000" lon="34.8524700">
<ele>304.220001</ele>
<time>2021-04-07T08:00:06.357Z</time>
</trkpt>
<trkpt lat="30.8225600" lon="34.8519300">
<ele>308.429993</ele>
<time>2021-04-07T08:00:06.357Z</time>
</trkpt>
<trkpt lat="30.8226200" lon="34.8513900">
<ele>311.290009</ele>
<time>2021-04-07T08:00:06.357Z</time>
</trkpt>
<trkpt lat="30.8226800" lon="34.8508500">
<ele>311.369995</ele>
<time>2021-04-07T08:00:06.357Z</time>
</trkpt>
<trkpt lat="30.8227400" lon="34.8503100">
<ele>312.730011</ele>
<time>2021-04-07T08:00:06.357Z</time>
</trkpt>
<trkpt lat="30.8228000" lon="34.8497700">
<ele>315.600006</ele>
<time>2021-04-07T08:00:06.357Z</time>
</trkpt>
<trkpt lat="30.8232400" lon="34.8495100">
<ele>316.429993</ele>
<time>2021-04-07T08:00:06.357Z</time>
</trkpt>
<trkpt lat="30.8236900" lon="34.8492400">
<ele>316.160004</ele>
<time>2021-04-07T08:00:06.357Z</time>
</trkpt>
<trkpt lat="30.8241300" lon="34.8489800">
<ele>317.130005</ele>
<time>2021-04-07T08:00:06.357Z</time>
</trkpt>
<trkpt lat="30.8245700" lon="34.8487200">
<ele>316.609985</ele>
<time>2021-04-07T08:00:06.357Z</time>
</trkpt>
<trkpt lat="30.8250200" lon="34.8484500">
<ele>314.390015</ele>
<time>2021-04-07T08:00:06.357Z</time>
</trkpt>
<trkpt lat="30.8254600" lon="34.8481900">
<ele>315.789978</ele>
<time>2021-04-07T08:00:06.357Z</time>
</trkpt>
<trkpt lat="30.8258200" lon="34.8478300">
<ele>314.410004</ele>
<time>2021-04-07T08:00:06.357Z</time>
</trkpt>
<trkpt lat="30.8261700" lon="34.8474800">
<ele>313.139984</ele>
<time>2021-04-07T08:00:06.357Z</time>
</trkpt>
<trkpt lat="30.8265300" lon="34.8471200">
<ele>309.419983</ele>
<time>2021-04-07T08:00:06.357Z</time>
</trkpt>
<trkpt lat="30.8268900" lon="34.8467600">
<ele>307.600006</ele>
<time>2021-04-07T08:00:06.357Z</time>
</trkpt>
<trkpt lat="30.8272500" lon="34.8464000">
<ele>313.839996</ele>
<time>2021-04-07T08:00:06.357Z</time>
</trkpt>
<trkpt lat="30.8276000" lon="34.8460500">
<ele>316.360016</ele>
<time>2021-04-07T08:00:06.357Z</time>
</trkpt>
<trkpt lat="30.8279600" lon="34.8456900">
<ele>318.649994</ele>
<time>2021-04-07T08:00:06.357Z</time>
</trkpt>
<trkpt lat="30.8283300" lon="34.8452400">
<ele>317.150024</ele>
<time>2021-04-07T08:00:06.357Z</time>
</trkpt>
<trkpt lat="30.8286900" lon="34.8447900">
<ele>318.609985</ele>
<time>2021-04-07T08:00:06.357Z</time>
</trkpt>
<trkpt lat="30.8290600" lon="34.8443300">
<ele>320.539978</ele>
<time>2021-04-07T08:00:06.357Z</time>
</trkpt>
<trkpt lat="30.8294200" lon="34.8438800">
<ele>319.800018</ele>
<time>2021-04-07T08:00:06.357Z</time>
</trkpt>
<trkpt lat="30.8297000" lon="34.8434700">
<ele>315.809998</ele>
<time>2021-04-07T08:00:06.357Z</time>
</trkpt>
<trkpt lat="30.8299800" lon="34.8430600">
<ele>315.699982</ele>
<time>2021-04-07T08:00:06.357Z</time>
</trkpt>
<trkpt lat="30.8302700" lon="34.8426500">
<ele>318.099976</ele>
<time>2021-04-07T08:00:06.357Z</time>
</trkpt>
<trkpt lat="30.8305500" lon="34.8422300">
<ele>314.059998</ele>
<time>2021-04-07T08:00:06.357Z</time>
</trkpt>
<trkpt lat="30.8308300" lon="34.8418200">
<ele>313.080017</ele>
<time>2021-04-07T08:00:06.357Z</time>
</trkpt>
<trkpt lat="30.8311100" lon="34.8414100">
<ele>315.209991</ele>
<time>2021-04-07T08:00:06.357Z</time>
</trkpt>
<trkpt lat="30.8314000" lon="34.8410000">
<ele>315.190002</ele>
<time>2021-04-07T08:00:06.357Z</time>
</trkpt>
<trkpt lat="30.8316800" lon="34.8405900">
<ele>315.970001</ele>
<time>2021-04-07T08:00:06.357Z</time>
</trkpt>
<trkpt lat="30.8319600" lon="34.8401800">
<ele>316.149994</ele>
<time>2021-04-07T08:00:06.357Z</time>
</trkpt>
<trkpt lat="30.8322400" lon="34.8397600">
<ele>316.959991</ele>
<time>2021-04-07T08:00:06.357Z</time>
</trkpt>
<trkpt lat="30.8325300" lon="34.8393500">
<ele>320.700012</ele>
<time>2021-04-07T08:00:06.357Z</time>
</trkpt>
<trkpt lat="30.8328100" lon="34.8389400">
<ele>320.769989</ele>
<time>2021-04-07T08:00:06.357Z</time>
</trkpt>
<trkpt lat="30.8330900" lon="34.8385300">
<ele>323.760010</ele>
<time>2021-04-07T08:00:06.357Z</time>
</trkpt>
<trkpt lat="30.8333800" lon="34.8380700">
<ele>326.300018</ele>
<time>2021-04-07T08:00:06.357Z</time>
</trkpt>
<trkpt lat="30.8336800" lon="34.8376200">
<ele>324.389984</ele>
<time>2021-04-07T08:00:06.357Z</time>
</trkpt>
<trkpt lat="30.8339700" lon="34.8371700">
<ele>322.260010</ele>
<time>2021-04-07T08:00:06.357Z</time>
</trkpt>
<trkpt lat="30.8342700" lon="34.8367100">
<ele>324.369995</ele>
<time>2021-04-07T08:00:06.357Z</time>
</trkpt>
<trkpt lat="30.8345600" lon="34.8362600">
<ele>330.450012</ele>
<time>2021-04-07T08:00:06.357Z</time>
</trkpt>
<trkpt lat="30.8348500" lon="34.8358000">
<ele>335.160004</ele>
<time>2021-04-07T08:00:06.357Z</time>
</trkpt>
<trkpt lat="30.8351500" lon="34.8353500">
<ele>329.520020</ele>
<time>2021-04-07T08:00:06.357Z</time>
</trkpt>
<trkpt lat="30.8354400" lon="34.8348900">
<ele>321.649994</ele>
<time>2021-04-07T08:00:06.357Z</time>
</trkpt>
<trkpt lat="30.8357400" lon="34.8344800">
<ele>321.160004</ele>
<time>2021-04-07T08:00:06.357Z</time>
</trkpt>
<trkpt lat="30.8360500" lon="34.8340700">
<ele>319.500000</ele>
<time>2021-04-07T08:00:06.357Z</time>
</trkpt>
<trkpt lat="30.8363500" lon="34.8336700">
<ele>321.380005</ele>
<time>2021-04-07T08:00:06.357Z</time>
</trkpt>
<trkpt lat="30.8366600" lon="34.8332600">
<ele>323.149994</ele>
<time>2021-04-07T08:00:06.357Z</time>
</trkpt>
<trkpt lat="30.8369600" lon="34.8328500">
<ele>324.200012</ele>
<time>2021-04-07T08:00:06.357Z</time>
</trkpt>
<trkpt lat="30.8372700" lon="34.8324400">
<ele>322.289978</ele>
<time>2021-04-07T08:00:06.357Z</time>
</trkpt>
<trkpt lat="30.8375700" lon="34.8320400">
<ele>323.459991</ele>
<time>2021-04-07T08:00:06.357Z</time>
</trkpt>
<trkpt lat="30.8378700" lon="34.8316300">
<ele>323.889984</ele>
<time>2021-04-07T08:00:06.357Z</time>
</trkpt>
<trkpt lat="30.8381800" lon="34.8312200">
<ele>320.799988</ele>
<time>2021-04-07T08:00:06.357Z</time>
</trkpt>
<trkpt lat="30.8384800" lon="34.8308100">
<ele>319.490021</ele>
<time>2021-04-07T08:00:06.357Z</time>
</trkpt>
<trkpt lat="30.8387900" lon="34.8304000">
<ele>322.710022</ele>
<time>2021-04-07T08:00:06.357Z</time>
</trkpt>
<trkpt lat="30.8390900" lon="34.8300000">
<ele>323.619995</ele>
<time>2021-04-07T08:00:06.357Z</time>
</trkpt>
<trkpt lat="30.8394000" lon="34.8295900">
<ele>319.130005</ele>
<time>2021-04-07T08:00:06.357Z</time>
</trkpt>
<trkpt lat="30.8397000" lon="34.8291800">
<ele>319.460022</ele>
<time>2021-04-07T08:00:06.357Z</time>
</trkpt>
<trkpt lat="30.8400200" lon="34.8287800">
<ele>319.020020</ele>
<time>2021-04-07T08:00:06.357Z</time>
</trkpt>
<trkpt lat="30.8403400" lon="34.8283900">
<ele>314.960022</ele>
<time>2021-04-07T08:00:06.357Z</time>
</trkpt>
<trkpt lat="30.8406600" lon="34.8279900">
<ele>313.029999</ele>
<time>2021-04-07T08:00:06.357Z</time>
</trkpt>
<trkpt lat="30.8409800" lon="34.8275900">
<ele>315.909973</ele>
<time>2021-04-07T08:00:06.357Z</time>
</trkpt>
<trkpt lat="30.8413000" lon="34.8271900">
<ele>320.919983</ele>
<time>2021-04-07T08:00:06.357Z</time>
</trkpt>
<trkpt lat="30.8416200" lon="34.8268000">
<ele>320.079987</ele>
<time>2021-04-07T08:00:06.357Z</time>
</trkpt>
<trkpt lat="30.8419400" lon="34.8264000">
<ele>316.100006</ele>
<time>2021-04-07T08:00:06.357Z</time>
</trkpt>
<trkpt lat="30.8422500" lon="34.8260000">
<ele>312.300018</ele>
<time>2021-04-07T08:00:06.357Z</time>
</trkpt>
<trkpt lat="30.8425700" lon="34.8256100">
<ele>310.899994</ele>
<time>2021-04-07T08:00:06.357Z</time>
</trkpt>
<trkpt lat="30.8428900" lon="34.8252100">
<ele>313.680023</ele>
<time>2021-04-07T08:00:06.357Z</time>
</trkpt>
<trkpt lat="30.8432100" lon="34.8248100">
<ele>312.569977</ele>
<time>2021-04-07T08:00:06.357Z</time>
</trkpt>
<trkpt lat="30.8435300" lon="34.8244100">
<ele>310.880005</ele>
<time>2021-04-07T08:00:06.357Z</time>
</trkpt>
<trkpt lat="30.8438500" lon="34.8240200">
<ele>317.060028</ele>
<time>2021-04-07T08:00:06.357Z</time>
</trkpt>
<trkpt lat="30.8441700" lon="34.8236200">
<ele>317.089996</ele>
<time>2021-04-07T08:00:06.357Z</time>
</trkpt>
<trkpt lat="30.8442200" lon="34.8232600">
<ele>314.690002</ele>
<time>2021-04-07T08:00:06.357Z</time>
</trkpt>
<trkpt lat="30.8441600" lon="34.8227200">
<ele>317.130005</ele>
<time>2021-04-07T08:00:06.357Z</time>
</trkpt>
<trkpt lat="30.8441400" lon="34.8223100">
<ele>316.440002</ele>
<time>2021-04-07T08:00:06.357Z</time>
</trkpt>
<trkpt lat="30.8440700" lon="34.8221400">
<ele>315.839996</ele>
<time>2021-04-07T08:00:06.357Z</time>
</trkpt>
<trkpt lat="30.8438900" lon="34.8215300">
<ele>320.470001</ele>
<time>2021-04-07T08:00:06.357Z</time>
</trkpt>
<trkpt lat="30.8437600" lon="34.8209100">
<ele>321.459991</ele>
<time>2021-04-07T08:00:06.357Z</time>
</trkpt>
<trkpt lat="30.8437100" lon="34.8202500">
<ele>314.639984</ele>
<time>2021-04-07T08:00:06.357Z</time>
</trkpt>
<trkpt lat="30.8435100" lon="34.8197500">
<ele>316.129974</ele>
<time>2021-04-07T08:00:06.357Z</time>
</trkpt>
<trkpt lat="30.8433000" lon="34.8194700">
<ele>318.919983</ele>
<time>2021-04-07T08:00:06.357Z</time>
</trkpt>
<trkpt lat="30.8431900" lon="34.8189100">
<ele>319.490021</ele>
<time>2021-04-07T08:00:06.357Z</time>
</trkpt>
<trkpt lat="30.8430400" lon="34.8183500">
<ele>321.100006</ele>
<time>2021-04-07T08:00:06.357Z</time>
</trkpt>
<trkpt lat="30.8427400" lon="34.8178500">
<ele>326.839996</ele>
<time>2021-04-07T08:00:06.357Z</time>
</trkpt>
<trkpt lat="30.8424500" lon="34.8175400">
<ele>324.149994</ele>
<time>2021-04-07T08:00:06.357Z</time>
</trkpt>
<trkpt lat="30.8422400" lon="34.8171600">
<ele>322.100006</ele>
<time>2021-04-07T08:00:06.357Z</time>
</trkpt>
<trkpt lat="30.8421000" lon="34.8169200">
<ele>318.439972</ele>
<time>2021-04-07T08:00:06.357Z</time>
</trkpt>
<trkpt lat="30.8418900" lon="34.8164900">
<ele>315.090027</ele>
<time>2021-04-07T08:00:06.357Z</time>
</trkpt>
<trkpt lat="30.8415700" lon="34.8161400">
<ele>317.109985</ele>
<time>2021-04-07T08:00:06.357Z</time>
</trkpt>
<trkpt lat="30.8412800" lon="34.8157600">
<ele>330.089996</ele>
<time>2021-04-07T08:00:06.357Z</time>
</trkpt>
<trkpt lat="30.8409400" lon="34.8152800">
<ele>337.770020</ele>
<time>2021-04-07T08:00:06.357Z</time>
</trkpt>
<trkpt lat="30.8404900" lon="34.8148600">
<ele>339.669983</ele>
<time>2021-04-07T08:00:06.357Z</time>
</trkpt>
<trkpt lat="30.8402200" lon="34.8144400">
<ele>334.760010</ele>
<time>2021-04-07T08:00:06.357Z</time>
</trkpt>
<trkpt lat="30.8398900" lon="34.8139700">
<ele>328.969971</ele>
<time>2021-04-07T08:00:06.357Z</time>
</trkpt>
<trkpt lat="30.8395400" lon="34.8135600">
<ele>322.629974</ele>
<time>2021-04-07T08:00:06.357Z</time>
</trkpt>
<trkpt lat="30.8392400" lon="34.8132600">
<ele>321.330017</ele>
<time>2021-04-07T08:00:06.357Z</time>
</trkpt>
<trkpt lat="30.8390400" lon="34.8128100">
<ele>320.079987</ele>
<time>2021-04-07T08:00:06.357Z</time>
</trkpt>
<trkpt lat="30.8388300" lon="34.8124800">
<ele>319.660004</ele>
<time>2021-04-07T08:00:06.357Z</time>
</trkpt>
<trkpt lat="30.8386000" lon="34.8121700">
<ele>327.890015</ele>
<time>2021-04-07T08:00:06.357Z</time>
</trkpt>
<trkpt lat="30.8383200" lon="34.8120100">
<ele>334.910004</ele>
<time>2021-04-07T08:00:06.357Z</time>
</trkpt>
<trkpt lat="30.8379900" lon="34.8119300">
<ele>342.500000</ele>
<time>2021-04-07T08:00:06.357Z</time>
</trkpt>
<trkpt lat="30.8376800" lon="34.8117900">
<ele>338.949982</ele>
<time>2021-04-07T08:00:06.357Z</time>
</trkpt>
<trkpt lat="30.8373100" lon="34.8116100">
<ele>330.700012</ele>
<time>2021-04-07T08:00:06.357Z</time>
</trkpt>
<trkpt lat="30.8370500" lon="34.8113700">
<ele>322.070007</ele>
<time>2021-04-07T08:00:06.357Z</time>
</trkpt>
<trkpt lat="30.8366100" lon="34.8113200">
<ele>317.769989</ele>
<time>2021-04-07T08:00:06.357Z</time>
</trkpt>
<trkpt lat="30.8362900" lon="34.8115000">
<ele>321.589996</ele>
<time>2021-04-07T08:00:06.357Z</time>
</trkpt>
<trkpt lat="30.8360600" lon="34.8115200">
<ele>321.160004</ele>
<time>2021-04-07T08:00:06.357Z</time>
</trkpt>
<trkpt lat="30.8359000" lon="34.8113800">
<ele>319.930023</ele>
<time>2021-04-07T08:00:06.357Z</time>
</trkpt>
<trkpt lat="30.8360500" lon="34.8110500">
<ele>316.949982</ele>
<time>2021-04-07T08:00:06.357Z</time>
</trkpt>
<trkpt lat="30.8362500" lon="34.8108300">
<ele>317.600006</ele>
<time>2021-04-07T08:00:06.357Z</time>
</trkpt>
<trkpt lat="30.8365200" lon="34.8106800">
<ele>322.410004</ele>
<time>2021-04-07T08:00:06.357Z</time>
</trkpt>
<trkpt lat="30.8369500" lon="34.8106400">
<ele>320.779999</ele>
<time>2021-04-07T08:00:06.357Z</time>
</trkpt>
<trkpt lat="30.8376000" lon="34.8104700">
<ele>315.439972</ele>
<time>2021-04-07T08:00:06.357Z</time>
</trkpt>
<trkpt lat="30.8380500" lon="34.8104000">
<ele>315.690002</ele>
<time>2021-04-07T08:00:06.357Z</time>
</trkpt>
<trkpt lat="30.8384000" lon="34.8103000">
<ele>316.959991</ele>
<time>2021-04-07T08:00:06.357Z</time>
</trkpt>
<trkpt lat="30.8387200" lon="34.8103400">
<ele>318.980011</ele>
<time>2021-04-07T08:00:06.357Z</time>
</trkpt>
<trkpt lat="30.8390300" lon="34.8102600">
<ele>319.899994</ele>
<time>2021-04-07T08:00:06.357Z</time>
</trkpt>
<trkpt lat="30.8390400" lon="34.8098400">
<ele>322.000000</ele>
<time>2021-04-07T08:00:06.357Z</time>
</trkpt>
<trkpt lat="30.8390800" lon="34.8092800">
<ele>329.779968</ele>
<time>2021-04-07T08:00:06.357Z</time>
</trkpt>
<trkpt lat="30.8389300" lon="34.8089000">
<ele>327.769989</ele>
<time>2021-04-07T08:00:06.357Z</time>
</trkpt>
<trkpt lat="30.8388900" lon="34.8085400">
<ele>324.750000</ele>
<time>2021-04-07T08:00:06.357Z</time>
</trkpt>
<trkpt lat="30.8388900" lon="34.8082600">
<ele>324.259979</ele>
<time>2021-04-07T08:00:06.357Z</time>
</trkpt>
<trkpt lat="30.8387100" lon="34.8078600">
<ele>324.750000</ele>
<time>2021-04-07T08:00:06.357Z</time>
</trkpt>
<trkpt lat="30.8385000" lon="34.8073900">
<ele>324.559998</ele>
<time>2021-04-07T08:00:06.357Z</time>
</trkpt>
<trkpt lat="30.8384100" lon="34.8068900">
<ele>324.029999</ele>
<time>2021-04-07T08:00:06.357Z</time>
</trkpt>
<trkpt lat="30.8383500" lon="34.8064900">
<ele>323.239990</ele>
<time>2021-04-07T08:00:06.357Z</time>
</trkpt>
<trkpt lat="30.8385400" lon="34.8061600">
<ele>320.290009</ele>
<time>2021-04-07T08:00:06.357Z</time>
</trkpt>
<trkpt lat="30.8386800" lon="34.8057600">
<ele>318.040009</ele>
<time>2021-04-07T08:00:06.357Z</time>
</trkpt>
<trkpt lat="30.8389000" lon="34.8053700">
<ele>315.269989</ele>
<time>2021-04-07T08:00:06.357Z</time>
</trkpt>
<trkpt lat="30.8391100" lon="34.8049400">
<ele>315.260010</ele>
<time>2021-04-07T08:00:06.357Z</time>
</trkpt>
<trkpt lat="30.8394700" lon="34.8043400">
<ele>314.390015</ele>
<time>2021-04-07T08:00:06.357Z</time>
</trkpt>
<trkpt lat="30.8398300" lon="34.8039300">
<ele>314.280029</ele>
<time>2021-04-07T08:00:06.357Z</time>
</trkpt>
<trkpt lat="30.8401000" lon="34.8036300">
<ele>315.170013</ele>
<time>2021-04-07T08:00:06.357Z</time>
</trkpt>
<trkpt lat="30.8404300" lon="34.8034300">
<ele>317.130005</ele>
<time>2021-04-07T08:00:06.357Z</time>
</trkpt>
<trkpt lat="30.8408000" lon="34.8031300">
<ele>321.890015</ele>
<time>2021-04-07T08:00:06.357Z</time>
</trkpt>
<trkpt lat="30.8411200" lon="34.8027400">
<ele>326.869995</ele>
<time>2021-04-07T08:00:06.357Z</time>
</trkpt>
<trkpt lat="30.8413700" lon="34.8023200">
<ele>328.419983</ele>
<time>2021-04-07T08:00:06.357Z</time>
</trkpt>
<trkpt lat="30.8413700" lon="34.8022800">
<ele>328.850006</ele>
<time>2021-04-07T08:00:06.357Z</time>
</trkpt>
<trkpt lat="30.8413700" lon="34.8022100">
<ele>329.609985</ele>
<time>2021-04-07T08:00:06.357Z</time>
</trkpt>
<trkpt lat="30.8414300" lon="34.8021200">
<ele>329.470001</ele>
<time>2021-04-07T08:00:06.357Z</time>
</trkpt>
<trkpt lat="30.8414900" lon="34.8020800">
<ele>329.090027</ele>
<time>2021-04-07T08:00:06.357Z</time>
</trkpt>
<trkpt lat="30.8415500" lon="34.8020200">
<ele>329.130005</ele>
<time>2021-04-07T08:00:06.357Z</time>
</trkpt>
<trkpt lat="30.8415900" lon="34.8019400">
<ele>329.909973</ele>
<time>2021-04-07T08:00:06.357Z</time>
</trkpt>
<trkpt lat="30.8416100" lon="34.8018700">
<ele>331.060028</ele>
<time>2021-04-07T08:00:06.357Z</time>
</trkpt>
<trkpt lat="30.8415600" lon="34.8016100">
<ele>335.489990</ele>
<time>2021-04-07T08:00:06.357Z</time>
</trkpt>
<trkpt lat="30.8415900" lon="34.8014900">
<ele>336.450012</ele>
<time>2021-04-07T08:00:06.357Z</time>
</trkpt>
<trkpt lat="30.8416100" lon="34.8014600">
<ele>336.639984</ele>
<time>2021-04-07T08:00:06.357Z</time>
</trkpt>
<trkpt lat="30.8416900" lon="34.8014100">
<ele>336.849976</ele>
<time>2021-04-07T08:00:06.357Z</time>
</trkpt>
<trkpt lat="30.8419900" lon="34.8013900">
<ele>336.169983</ele>
<time>2021-04-07T08:00:06.357Z</time>
</trkpt>
<trkpt lat="30.8421500" lon="34.8012000">
<ele>333.950012</ele>
<time>2021-04-07T08:00:06.357Z</time>
</trkpt>
<trkpt lat="30.8422200" lon="34.8008000">
<ele>332.860016</ele>
<time>2021-04-07T08:00:06.357Z</time>
</trkpt>
<trkpt lat="30.8423300" lon="34.8002700">
<ele>331.549988</ele>
<time>2021-04-07T08:00:06.357Z</time>
</trkpt>
<trkpt lat="30.8426000" lon="34.7996700">
<ele>337.380005</ele>
<time>2021-04-07T08:00:06.357Z</time>
</trkpt>
<trkpt lat="30.8426900" lon="34.7991200">
<ele>341.790009</ele>
<time>2021-04-07T08:00:06.357Z</time>
</trkpt>
<trkpt lat="30.8427300" lon="34.7985800">
<ele>342.490021</ele>
<time>2021-04-07T08:00:06.357Z</time>
</trkpt>
<trkpt lat="30.8427500" lon="34.7979100">
<ele>329.019989</ele>
<time>2021-04-07T08:00:06.357Z</time>
</trkpt>
<trkpt lat="30.8424400" lon="34.7975600">
<ele>319.010010</ele>
<time>2021-04-07T08:00:06.357Z</time>
</trkpt>
<trkpt lat="30.8422800" lon="34.7974300">
<ele>317.459991</ele>
<time>2021-04-07T08:00:06.357Z</time>
</trkpt>
<trkpt lat="30.8421500" lon="34.7972600">
<ele>316.979980</ele>
<time>2021-04-07T08:00:06.357Z</time>
</trkpt>
<trkpt lat="30.8419000" lon="34.7970800">
<ele>324.059998</ele>
<time>2021-04-07T08:00:06.357Z</time>
</trkpt>
<trkpt lat="30.8415500" lon="34.7970900">
<ele>332.380005</ele>
<time>2021-04-07T08:00:06.357Z</time>
</trkpt>
<trkpt lat="30.8412100" lon="34.7969300">
<ele>342.649994</ele>
<time>2021-04-07T08:00:06.357Z</time>
</trkpt>
<trkpt lat="30.8410000" lon="34.7966300">
<ele>344.130005</ele>
<time>2021-04-07T08:00:06.357Z</time>
</trkpt>
<trkpt lat="30.8407800" lon="34.7962600">
<ele>344.899994</ele>
<time>2021-04-07T08:00:06.357Z</time>
</trkpt>
<trkpt lat="30.8405300" lon="34.7958100">
<ele>343.489990</ele>
<time>2021-04-07T08:00:06.357Z</time>
</trkpt>
<trkpt lat="30.8405100" lon="34.7953900">
<ele>339.839996</ele>
<time>2021-04-07T08:00:06.357Z</time>
</trkpt>
<trkpt lat="30.8405300" lon="34.7949000">
<ele>337.459991</ele>
<time>2021-04-07T08:00:06.357Z</time>
</trkpt>
<trkpt lat="30.8405900" lon="34.7945100">
<ele>334.809998</ele>
<time>2021-04-07T08:00:06.357Z</time>
</trkpt>
<trkpt lat="30.8407100" lon="34.7941900">
<ele>332.000000</ele>
<time>2021-04-07T08:00:06.357Z</time>
</trkpt>
<trkpt lat="30.8408700" lon="34.7938500">
<ele>328.480011</ele>
<time>2021-04-07T08:00:06.357Z</time>
</trkpt>
<trkpt lat="30.8411900" lon="34.7935200">
<ele>327.709991</ele>
<time>2021-04-07T08:00:06.357Z</time>
</trkpt>
<trkpt lat="30.8414800" lon="34.7933700">
<ele>332.660004</ele>
<time>2021-04-07T08:00:06.357Z</time>
</trkpt>
<trkpt lat="30.8415800" lon="34.7931400">
<ele>337.390015</ele>
<time>2021-04-07T08:00:06.357Z</time>
</trkpt>
<trkpt lat="30.8416100" lon="34.7931000">
<ele>338.139984</ele>
<time>2021-04-07T08:00:06.357Z</time>
</trkpt>
<trkpt lat="30.8416000" lon="34.7928200">
<ele>338.080017</ele>
<time>2021-04-07T08:00:06.357Z</time>
</trkpt>
<trkpt lat="30.8416900" lon="34.7926100">
<ele>339.809998</ele>
<time>2021-04-07T08:00:06.357Z</time>
</trkpt>
<trkpt lat="30.8418900" lon="34.7924800">
<ele>341.269989</ele>
<time>2021-04-07T08:00:06.357Z</time>
</trkpt>
<trkpt lat="30.8419000" lon="34.7921800">
<ele>345.140015</ele>
<time>2021-04-07T08:00:06.357Z</time>
</trkpt>
<trkpt lat="30.8418600" lon="34.7918600">
<ele>347.089996</ele>
<time>2021-04-07T08:00:06.357Z</time>
</trkpt>
<trkpt lat="30.8417900" lon="34.7915100">
<ele>348.559998</ele>
<time>2021-04-07T08:00:06.357Z</time>
</trkpt>
<trkpt lat="30.8417100" lon="34.7912200">
<ele>349.609985</ele>
<time>2021-04-07T08:00:06.357Z</time>
</trkpt>
<trkpt lat="30.8416400" lon="34.7909100">
<ele>350.440002</ele>
<time>2021-04-07T08:00:06.357Z</time>
</trkpt>
<trkpt lat="30.8416000" lon="34.7904500">
<ele>351.220001</ele>
<time>2021-04-07T08:00:06.357Z</time>
</trkpt>
<trkpt lat="30.8416700" lon="34.7900000">
<ele>350.010010</ele>
<time>2021-04-07T08:00:06.357Z</time>
</trkpt>
<trkpt lat="30.8417500" lon="34.7896100">
<ele>350.140015</ele>
<time>2021-04-07T08:00:06.357Z</time>
</trkpt>
<trkpt lat="30.8417900" lon="34.7891300">
<ele>352.380005</ele>
<time>2021-04-07T08:00:06.357Z</time>
</trkpt>
<trkpt lat="30.8417600" lon="34.7888100">
<ele>353.709991</ele>
<time>2021-04-07T08:00:06.357Z</time>
</trkpt>
<trkpt lat="30.8417400" lon="34.7885300">
<ele>355.529999</ele>
<time>2021-04-07T08:00:06.357Z</time>
</trkpt>
<trkpt lat="30.8417100" lon="34.7881500">
<ele>360.579987</ele>
<time>2021-04-07T08:00:06.357Z</time>
</trkpt>
<trkpt lat="30.8416900" lon="34.7880800">
<ele>362.089996</ele>
<time>2021-04-07T08:00:06.357Z</time>
</trkpt>
<trkpt lat="30.8417300" lon="34.7876300">
<ele>362.570007</ele>
<time>2021-04-07T08:00:06.357Z</time>
</trkpt>
<trkpt lat="30.8419100" lon="34.7872500">
<ele>361.950012</ele>
<time>2021-04-07T08:00:06.357Z</time>
</trkpt>
<trkpt lat="30.8422000" lon="34.7872100">
<ele>360.460022</ele>
<time>2021-04-07T08:00:06.357Z</time>
</trkpt>
<trkpt lat="30.8426400" lon="34.7871900">
<ele>356.600006</ele>
<time>2021-04-07T08:00:06.357Z</time>
</trkpt>
<trkpt lat="30.8428800" lon="34.7869300">
<ele>352.210022</ele>
<time>2021-04-07T08:00:06.357Z</time>
</trkpt>
<trkpt lat="30.8430400" lon="34.7864300">
<ele>351.279999</ele>
<time>2021-04-07T08:00:06.357Z</time>
</trkpt>
<trkpt lat="30.8431900" lon="34.7861800">
<ele>349.059998</ele>
<time>2021-04-07T08:00:06.357Z</time>
</trkpt>
<trkpt lat="30.8432400" lon="34.7858900">
<ele>348.610016</ele>
<time>2021-04-07T08:00:06.357Z</time>
</trkpt>
<trkpt lat="30.8434300" lon="34.7854700">
<ele>348.470001</ele>
<time>2021-04-07T08:00:06.357Z</time>
</trkpt>
<trkpt lat="30.8435100" lon="34.7853300">
<ele>349.279999</ele>
<time>2021-04-07T08:00:06.357Z</time>
</trkpt>
<trkpt lat="30.8436400" lon="34.7849900">
<ele>350.240021</ele>
<time>2021-04-07T08:00:06.357Z</time>
</trkpt>
<trkpt lat="30.8436400" lon="34.7844300">
<ele>351.250000</ele>
<time>2021-04-07T08:00:06.357Z</time>
</trkpt>
<trkpt lat="30.8436200" lon="34.7839100">
<ele>350.240021</ele>
<time>2021-04-07T08:00:06.357Z</time>
</trkpt>
<trkpt lat="30.8435500" lon="34.7833800">
<ele>347.750000</ele>
<time>2021-04-07T08:00:06.357Z</time>
</trkpt>
<trkpt lat="30.8435600" lon="34.7829000">
<ele>349.049988</ele>
<time>2021-04-07T08:00:06.357Z</time>
</trkpt>
<trkpt lat="30.8434600" lon="34.7824400">
<ele>352.750000</ele>
<time>2021-04-07T08:00:06.357Z</time>
</trkpt>
<trkpt lat="30.8434200" lon="34.7819800">
<ele>356.010010</ele>
<time>2021-04-07T08:00:06.357Z</time>
</trkpt>
<trkpt lat="30.8434100" lon="34.7814000">
<ele>355.470001</ele>
<time>2021-04-07T08:00:06.357Z</time>
</trkpt>
<trkpt lat="30.8433500" lon="34.7809600">
<ele>355.949982</ele>
<time>2021-04-07T08:00:06.357Z</time>
</trkpt>
<trkpt lat="30.8432600" lon="34.7804200">
<ele>356.980011</ele>
<time>2021-04-07T08:00:06.357Z</time>
</trkpt>
<trkpt lat="30.8430600" lon="34.7798400">
<ele>361.610016</ele>
<time>2021-04-07T08:00:06.357Z</time>
</trkpt>
<trkpt lat="30.8429100" lon="34.7792900">
<ele>362.390015</ele>
<time>2021-04-07T08:00:06.357Z</time>
</trkpt>
<trkpt lat="30.8426600" lon="34.7788800">
<ele>362.910004</ele>
<time>2021-04-07T08:00:06.357Z</time>
</trkpt>
<trkpt lat="30.8426400" lon="34.7788400">
<ele>363.340027</ele>
<time>2021-04-07T08:00:06.357Z</time>
</trkpt>
</trkseg>
</trk>
</gpx>
